Weather Data 2026-05-09
| Time | Wind Dr | Wind Spd mph |
Wind Gust mph |
Hum In % |
Humid % |
TempI F |
Temp F |
Raw Bar in |
Tot Rain in |
UV | Solar W/sqm |
DailyRain in |
HourRain in |
24HrRain in |
RainRate in |
|---|---|---|---|---|---|---|---|---|---|---|---|---|---|---|---|
| 05/09/26 12:01:23 AM | 38 | 0.0 | 0.0 | 55 | 76 | 72.9 | 62.6 | 29.949 | 7.26 | 0.0 | 0 | 0.00 | 0.00 | 0.00 | 0.00 |
| 05/09/26 12:02:36 AM | 37 | 0.0 | 0.0 | 55 | 76 | 72.9 | 62.6 | 29.949 | 7.26 | 0.0 | 0 | 0.00 | 0.00 | 0.00 | 0.00 |
| 05/09/26 12:03:24 AM | 37 | 0.0 | 0.0 | 55 | 76 | 72.9 | 62.6 | 29.947 | 7.26 | 0.0 | 0 | 0.00 | 0.00 | 0.00 | 0.00 |
| 05/09/26 12:04:33 AM | 34 | 0.0 | 0.0 | 55 | 76 | 72.9 | 62.5 | 29.950 | 7.26 | 0.0 | 0 | 0.00 | 0.00 | 0.00 | 0.00 |
| 05/09/26 12:05:25 AM | 38 | 0.0 | 0.0 | 55 | 76 | 72.9 | 62.5 | 29.946 | 7.26 | 0.0 | 0 | 0.00 | 0.00 | 0.00 | 0.00 |
| 05/09/26 12:06:19 AM | 36 | 0.0 | 0.0 | 55 | 76 | 72.9 | 62.4 | 29.951 | 7.26 | 0.0 | 0 | 0.00 | 0.00 | 0.00 | 0.00 |
| 05/09/26 12:07:32 AM | 38 | 0.0 | 0.0 | 55 | 76 | 72.9 | 62.3 | 29.949 | 7.26 | 0.0 | 0 | 0.00 | 0.00 | 0.00 | 0.00 |
| 05/09/26 12:08:20 AM | 32 | 0.0 | 0.0 | 55 | 76 | 72.9 | 62.3 | 29.949 | 7.26 | 0.0 | 0 | 0.00 | 0.00 | 0.00 | 0.00 |
| 05/09/26 12:09:33 AM | 38 | 0.0 | 0.0 | 55 | 77 | 72.9 | 62.2 | 29.947 | 7.26 | 0.0 | 0 | 0.00 | 0.00 | 0.00 | 0.00 |
| 05/09/26 12:10:24 AM | 38 | 0.0 | 0.0 | 55 | 77 | 72.9 | 62.2 | 29.948 | 7.26 | 0.0 | 0 | 0.00 | 0.00 | 0.00 | 0.00 |
| 05/09/26 12:11:34 AM | 37 | 0.0 | 0.0 | 55 | 77 | 72.9 | 62.2 | 29.949 | 7.26 | 0.0 | 0 | 0.00 | 0.00 | 0.00 | 0.00 |
| 05/09/26 12:12:29 AM | 36 | 0.0 | 0.0 | 55 | 77 | 72.9 | 62.1 | 29.949 | 7.26 | 0.0 | 0 | 0.00 | 0.00 | 0.00 | 0.00 |
| 05/09/26 12:13:21 AM | 38 | 0.0 | 0.0 | 55 | 77 | 72.9 | 62.1 | 29.947 | 7.26 | 0.0 | 0 | 0.00 | 0.00 | 0.00 | 0.00 |
| 05/09/26 12:14:28 AM | 30 | 0.0 | 0.0 | 55 | 77 | 72.9 | 62.1 | 29.947 | 7.26 | 0.0 | 0 | 0.00 | 0.00 | 0.00 | 0.00 |
| 05/09/26 12:15:20 AM | 37 | 0.0 | 0.0 | 55 | 77 | 72.9 | 62.1 | 29.948 | 7.26 | 0.0 | 0 | 0.00 | 0.00 | 0.00 | 0.00 |
| 05/09/26 12:16:30 AM | 38 | 0.0 | 0.0 | 55 | 77 | 72.9 | 62.0 | 29.947 | 7.26 | 0.0 | 0 | 0.00 | 0.00 | 0.00 | 0.00 |
| 05/09/26 12:17:21 AM | 38 | 0.0 | 0.0 | 55 | 77 | 72.8 | 62.0 | 29.946 | 7.26 | 0.0 | 0 | 0.00 | 0.00 | 0.00 | 0.00 |
| 05/09/26 12:18:31 AM | 38 | 0.0 | 0.0 | 55 | 77 | 72.9 | 62.0 | 29.948 | 7.26 | 0.0 | 0 | 0.00 | 0.00 | 0.00 | 0.00 |
| 05/09/26 12:19:20 AM | 38 | 0.0 | 0.0 | 55 | 78 | 72.8 | 61.9 | 29.947 | 7.26 | 0.0 | 0 | 0.00 | 0.00 | 0.00 | 0.00 |
| 05/09/26 12:20:30 AM | 38 | 0.0 | 0.0 | 55 | 78 | 72.8 | 61.9 | 29.948 | 7.26 | 0.0 | 0 | 0.00 | 0.00 | 0.00 | 0.00 |
| 05/09/26 12:21:25 AM | 37 | 0.0 | 0.0 | 55 | 78 | 72.9 | 61.9 | 29.946 | 7.26 | 0.0 | 0 | 0.00 | 0.00 | 0.00 | 0.00 |
| 05/09/26 12:22:35 AM | 32 | 0.0 | 0.0 | 55 | 78 | 72.8 | 61.8 | 29.946 | 7.26 | 0.0 | 0 | 0.00 | 0.00 | 0.00 | 0.00 |
| 05/09/26 12:23:27 AM | 32 | 0.0 | 0.0 | 55 | 78 | 72.8 | 61.8 | 29.944 | 7.26 | 0.0 | 0 | 0.00 | 0.00 | 0.00 | 0.00 |
| 05/09/26 12:24:37 AM | 35 | 0.0 | 0.0 | 55 | 78 | 72.8 | 61.8 | 29.947 | 7.26 | 0.0 | 0 | 0.00 | 0.00 | 0.00 | 0.00 |
| 05/09/26 12:25:29 AM | 39 | 0.0 | 0.0 | 55 | 78 | 72.8 | 61.7 | 29.944 | 7.26 | 0.0 | 0 | 0.00 | 0.00 | 0.00 | 0.00 |
| 05/09/26 12:26:21 AM | 39 | 0.0 | 0.0 | 55 | 78 | 72.8 | 61.7 | 29.944 | 7.26 | 0.0 | 0 | 0.00 | 0.00 | 0.00 | 0.00 |
| 05/09/26 12:27:30 AM | 38 | 0.0 | 0.0 | 55 | 78 | 72.8 | 61.7 | 29.945 | 7.26 | 0.0 | 0 | 0.00 | 0.00 | 0.00 | 0.00 |
| 05/09/26 12:28:22 AM | 38 | 0.0 | 0.0 | 55 | 78 | 72.8 | 61.6 | 29.944 | 7.26 | 0.0 | 0 | 0.00 | 0.00 | 0.00 | 0.00 |
| 05/09/26 12:29:29 AM | 39 | 0.0 | 0.0 | 55 | 78 | 72.8 | 61.6 | 29.944 | 7.26 | 0.0 | 0 | 0.00 | 0.00 | 0.00 | 0.00 |
| 05/09/26 12:30:24 AM | 32 | 0.0 | 0.0 | 55 | 78 | 72.8 | 61.6 | 29.945 | 7.26 | 0.0 | 0 | 0.00 | 0.00 | 0.00 | 0.00 |
| 05/09/26 12:31:34 AM | 38 | 0.0 | 0.0 | 55 | 78 | 72.8 | 61.5 | 29.945 | 7.26 | 0.0 | 0 | 0.00 | 0.00 | 0.00 | 0.00 |
| 05/09/26 12:32:26 AM | 31 | 0.0 | 0.0 | 55 | 78 | 72.8 | 61.5 | 29.943 | 7.26 | 0.0 | 0 | 0.00 | 0.00 | 0.00 | 0.00 |
| 05/09/26 12:33:18 AM | 37 | 0.0 | 0.0 | 55 | 78 | 72.8 | 61.5 | 29.945 | 7.26 | 0.0 | 0 | 0.00 | 0.00 | 0.00 | 0.00 |
| 05/09/26 12:34:28 AM | 36 | 0.0 | 0.0 | 55 | 78 | 72.8 | 61.4 | 29.945 | 7.26 | 0.0 | 0 | 0.00 | 0.00 | 0.00 | 0.00 |
| 05/09/26 12:35:16 AM | 37 | 0.0 | 0.0 | 55 | 78 | 72.8 | 61.4 | 29.948 | 7.26 | 0.0 | 0 | 0.00 | 0.00 | 0.00 | 0.00 |
| 05/09/26 12:36:29 AM | 34 | 0.0 | 0.0 | 55 | 79 | 72.8 | 61.3 | 29.943 | 7.26 | 0.0 | 0 | 0.00 | 0.00 | 0.00 | 0.00 |
| 05/09/26 12:37:21 AM | 36 | 0.0 | 0.0 | 55 | 79 | 72.8 | 61.3 | 29.945 | 7.26 | 0.0 | 0 | 0.00 | 0.00 | 0.00 | 0.00 |
| 05/09/26 12:38:31 AM | 36 | 0.0 | 0.0 | 55 | 79 | 72.8 | 61.3 | 29.945 | 7.26 | 0.0 | 0 | 0.00 | 0.00 | 0.00 | 0.00 |
| 05/09/26 12:39:26 AM | 38 | 0.0 | 0.0 | 55 | 79 | 72.8 | 61.3 | 29.948 | 7.26 | 0.0 | 0 | 0.00 | 0.00 | 0.00 | 0.00 |
| 05/09/26 12:40:33 AM | 32 | 0.0 | 0.0 | 55 | 79 | 72.8 | 61.2 | 29.945 | 7.26 | 0.0 | 0 | 0.00 | 0.00 | 0.00 | 0.00 |
| 05/09/26 12:41:25 AM | 36 | 0.0 | 0.0 | 55 | 79 | 72.8 | 61.2 | 29.948 | 7.26 | 0.0 | 0 | 0.00 | 0.00 | 0.00 | 0.00 |
| 05/09/26 12:42:16 AM | 38 | 0.0 | 0.0 | 55 | 79 | 72.8 | 61.2 | 29.945 | 7.26 | 0.0 | 0 | 0.00 | 0.00 | 0.00 | 0.00 |
| 05/09/26 12:43:30 AM | 38 | 0.0 | 0.0 | 55 | 79 | 72.8 | 61.1 | 29.945 | 7.26 | 0.0 | 0 | 0.00 | 0.00 | 0.00 | 0.00 |
| 05/09/26 12:44:21 AM | 38 | 0.0 | 0.0 | 55 | 79 | 72.8 | 61.1 | 29.947 | 7.26 | 0.0 | 0 | 0.00 | 0.00 | 0.00 | 0.00 |
| 05/09/26 12:45:31 AM | 38 | 0.0 | 0.0 | 55 | 80 | 72.8 | 61.1 | 29.943 | 7.26 | 0.0 | 0 | 0.00 | 0.00 | 0.00 | 0.00 |
| 05/09/26 12:46:20 AM | 38 | 0.0 | 0.0 | 55 | 80 | 72.8 | 61.1 | 29.945 | 7.26 | 0.0 | 0 | 0.00 | 0.00 | 0.00 | 0.00 |
| 05/09/26 12:47:33 AM | 36 | 0.0 | 0.0 | 55 | 80 | 72.7 | 61.1 | 29.948 | 7.26 | 0.0 | 0 | 0.00 | 0.00 | 0.00 | 0.00 |
| 05/09/26 12:48:25 AM | 34 | 0.0 | 0.0 | 55 | 80 | 72.8 | 61.1 | 29.944 | 7.26 | 0.0 | 0 | 0.00 | 0.00 | 0.00 | 0.00 |
| 05/09/26 12:49:17 AM | 38 | 0.0 | 0.0 | 55 | 80 | 72.8 | 61.0 | 29.947 | 7.26 | 0.0 | 0 | 0.00 | 0.00 | 0.00 | 0.00 |
| 05/09/26 12:50:30 AM | 34 | 0.0 | 0.0 | 55 | 80 | 72.8 | 61.0 | 29.946 | 7.26 | 0.0 | 0 | 0.00 | 0.00 | 0.00 | 0.00 |
| 05/09/26 12:51:16 AM | 32 | 0.0 | 0.0 | 55 | 80 | 72.7 | 61.0 | 29.944 | 7.26 | 0.0 | 0 | 0.00 | 0.00 | 0.00 | 0.00 |
| 05/09/26 12:52:29 AM | 38 | 0.0 | 0.0 | 55 | 80 | 72.8 | 60.9 | 29.946 | 7.26 | 0.0 | 0 | 0.00 | 0.00 | 0.00 | 0.00 |
| 05/09/26 12:53:20 AM | 36 | 0.0 | 0.0 | 55 | 80 | 72.7 | 60.9 | 29.946 | 7.26 | 0.0 | 0 | 0.00 | 0.00 | 0.00 | 0.00 |
| 05/09/26 12:54:33 AM | 32 | 0.0 | 0.0 | 55 | 80 | 72.7 | 60.8 | 29.946 | 7.26 | 0.0 | 0 | 0.00 | 0.00 | 0.00 | 0.00 |
| 05/09/26 12:55:25 AM | 38 | 0.0 | 0.0 | 55 | 80 | 72.7 | 60.8 | 29.947 | 7.26 | 0.0 | 0 | 0.00 | 0.00 | 0.00 | 0.00 |
| 05/09/26 12:56:32 AM | 38 | 0.0 | 0.0 | 55 | 80 | 72.7 | 60.8 | 29.946 | 7.26 | 0.0 | 0 | 0.00 | 0.00 | 0.00 | 0.00 |
| 05/09/26 12:57:27 AM | 39 | 0.0 | 0.0 | 55 | 80 | 72.7 | 60.7 | 29.946 | 7.26 | 0.0 | 0 | 0.00 | 0.00 | 0.00 | 0.00 |
| 05/09/26 12:58:19 AM | 31 | 0.0 | 0.0 | 55 | 80 | 72.7 | 60.7 | 29.946 | 7.26 | 0.0 | 0 | 0.00 | 0.00 | 0.00 | 0.00 |
| 05/09/26 12:59:29 AM | 38 | 0.0 | 0.0 | 55 | 80 | 72.7 | 60.7 | 29.945 | 7.26 | 0.0 | 0 | 0.00 | 0.00 | 0.00 | 0.00 |
| 05/09/26 1:00:24 AM | 35 | 0.0 | 0.0 | 55 | 80 | 72.7 | 60.7 | 29.947 | 7.26 | 0.0 | 0 | 0.00 | 0.00 | 0.00 | 0.00 |
| 05/09/26 1:01:31 AM | 34 | 0.0 | 0.0 | 55 | 80 | 72.7 | 60.6 | 29.945 | 7.26 | 0.0 | 0 | 0.00 | 0.00 | 0.00 | 0.00 |
| 05/09/26 1:02:22 AM | 35 | 0.0 | 0.0 | 55 | 80 | 72.6 | 60.6 | 29.946 | 7.26 | 0.0 | 0 | 0.00 | 0.00 | 0.00 | 0.00 |
| 05/09/26 1:03:35 AM | 36 | 0.0 | 0.0 | 55 | 81 | 72.6 | 60.6 | 29.943 | 7.26 | 0.0 | 0 | 0.00 | 0.00 | 0.00 | 0.00 |
| 05/09/26 1:04:27 AM | 32 | 0.0 | 0.0 | 55 | 81 | 72.7 | 60.6 | 29.942 | 7.26 | 0.0 | 0 | 0.00 | 0.00 | 0.00 | 0.00 |
| 05/09/26 1:05:22 AM | 36 | 0.0 | 0.0 | 55 | 81 | 72.6 | 60.5 | 29.942 | 7.26 | 0.0 | 0 | 0.00 | 0.00 | 0.00 | 0.00 |
| 05/09/26 1:06:32 AM | 36 | 0.0 | 0.0 | 55 | 80 | 72.7 | 60.5 | 29.943 | 7.26 | 0.0 | 0 | 0.00 | 0.00 | 0.00 | 0.00 |
| 05/09/26 1:07:21 AM | 35 | 0.0 | 0.0 | 55 | 81 | 72.6 | 60.5 | 29.941 | 7.26 | 0.0 | 0 | 0.00 | 0.00 | 0.00 | 0.00 |
| 05/09/26 1:08:31 AM | 38 | 0.0 | 0.0 | 55 | 81 | 72.6 | 60.5 | 29.942 | 7.26 | 0.0 | 0 | 0.00 | 0.00 | 0.00 | 0.00 |
| 05/09/26 1:09:26 AM | 37 | 0.0 | 0.0 | 55 | 81 | 72.6 | 60.4 | 29.942 | 7.26 | 0.0 | 0 | 0.00 | 0.00 | 0.00 | 0.00 |
| 05/09/26 1:10:18 AM | 37 | 0.0 | 0.0 | 55 | 81 | 72.6 | 60.4 | 29.940 | 7.26 | 0.0 | 0 | 0.00 | 0.00 | 0.00 | 0.00 |
| 05/09/26 1:11:31 AM | 37 | 0.0 | 0.0 | 55 | 81 | 72.6 | 60.4 | 29.941 | 7.26 | 0.0 | 0 | 0.00 | 0.00 | 0.00 | 0.00 |
| 05/09/26 1:12:17 AM | 36 | 0.0 | 0.0 | 55 | 81 | 72.6 | 60.3 | 29.940 | 7.26 | 0.0 | 0 | 0.00 | 0.00 | 0.00 | 0.00 |
| 05/09/26 1:13:30 AM | 38 | 0.0 | 0.0 | 55 | 81 | 72.6 | 60.3 | 29.940 | 7.26 | 0.0 | 0 | 0.00 | 0.00 | 0.00 | 0.00 |
| 05/09/26 1:14:21 AM | 34 | 0.0 | 0.0 | 55 | 81 | 72.6 | 60.3 | 29.941 | 7.26 | 0.0 | 0 | 0.00 | 0.00 | 0.00 | 0.00 |
| 05/09/26 1:15:34 AM | 37 | 0.0 | 0.0 | 55 | 81 | 72.6 | 60.2 | 29.940 | 7.26 | 0.0 | 0 | 0.00 | 0.00 | 0.00 | 0.00 |
| 05/09/26 1:16:26 AM | 32 | 0.0 | 0.0 | 55 | 81 | 72.6 | 60.2 | 29.939 | 7.26 | 0.0 | 0 | 0.00 | 0.00 | 0.00 | 0.00 |
| 05/09/26 1:17:18 AM | 36 | 0.0 | 0.0 | 55 | 81 | 72.6 | 60.2 | 29.940 | 7.26 | 0.0 | 0 | 0.00 | 0.00 | 0.00 | 0.00 |
| 05/09/26 1:18:25 AM | 38 | 0.0 | 0.0 | 55 | 81 | 72.6 | 60.2 | 29.939 | 7.26 | 0.0 | 0 | 0.00 | 0.00 | 0.00 | 0.00 |
| 05/09/26 1:19:17 AM | 38 | 0.0 | 0.0 | 55 | 81 | 72.6 | 60.2 | 29.937 | 7.26 | 0.0 | 0 | 0.00 | 0.00 | 0.00 | 0.00 |
| 05/09/26 1:20:27 AM | 38 | 0.0 | 0.0 | 55 | 82 | 72.6 | 60.2 | 29.938 | 7.26 | 0.0 | 0 | 0.00 | 0.00 | 0.00 | 0.00 |
| 05/09/26 1:21:22 AM | 38 | 0.0 | 0.0 | 55 | 82 | 72.6 | 60.2 | 29.934 | 7.26 | 0.0 | 0 | 0.00 | 0.00 | 0.00 | 0.00 |
| 05/09/26 1:22:32 AM | 38 | 0.0 | 0.0 | 55 | 82 | 72.6 | 60.1 | 29.936 | 7.26 | 0.0 | 0 | 0.00 | 0.00 | 0.00 | 0.00 |
| 05/09/26 1:23:20 AM | 37 | 0.0 | 0.0 | 55 | 82 | 72.6 | 60.1 | 29.938 | 7.26 | 0.0 | 0 | 0.00 | 0.00 | 0.00 | 0.00 |
| 05/09/26 1:24:34 AM | 32 | 0.0 | 0.0 | 55 | 82 | 72.5 | 60.1 | 29.935 | 7.26 | 0.0 | 0 | 0.00 | 0.00 | 0.00 | 0.00 |
| 05/09/26 1:25:22 AM | 32 | 0.0 | 0.0 | 55 | 82 | 72.6 | 60.0 | 29.935 | 7.26 | 0.0 | 0 | 0.00 | 0.00 | 0.00 | 0.00 |
| 05/09/26 1:26:17 AM | 37 | 0.0 | 0.0 | 55 | 82 | 72.5 | 60.0 | 29.937 | 7.26 | 0.0 | 0 | 0.00 | 0.00 | 0.00 | 0.00 |
| 05/09/26 1:27:30 AM | 38 | 0.0 | 0.0 | 55 | 82 | 72.5 | 60.0 | 29.935 | 7.26 | 0.0 | 0 | 0.00 | 0.00 | 0.00 | 0.00 |
| 05/09/26 1:28:19 AM | 37 | 0.0 | 0.0 | 55 | 82 | 72.5 | 60.0 | 29.937 | 7.26 | 0.0 | 0 | 0.00 | 0.00 | 0.00 | 0.00 |
| 05/09/26 1:29:29 AM | 32 | 0.0 | 0.0 | 55 | 82 | 72.5 | 60.0 | 29.936 | 7.26 | 0.0 | 0 | 0.00 | 0.00 | 0.00 | 0.00 |
| 05/09/26 1:30:24 AM | 34 | 0.0 | 0.0 | 55 | 82 | 72.5 | 60.0 | 29.938 | 7.26 | 0.0 | 0 | 0.00 | 0.00 | 0.00 | 0.00 |
| 05/09/26 1:31:34 AM | 38 | 0.0 | 0.0 | 55 | 82 | 72.6 | 60.0 | 29.936 | 7.26 | 0.0 | 0 | 0.00 | 0.00 | 0.00 | 0.00 |
| 05/09/26 1:32:29 AM | 38 | 0.0 | 0.0 | 55 | 82 | 72.5 | 59.9 | 29.938 | 7.26 | 0.0 | 0 | 0.00 | 0.00 | 0.00 | 0.00 |
| 05/09/26 1:33:21 AM | 30 | 0.0 | 0.0 | 55 | 82 | 72.5 | 59.9 | 29.936 | 7.26 | 0.0 | 0 | 0.00 | 0.00 | 0.00 | 0.00 |
| 05/09/26 1:34:28 AM | 38 | 0.0 | 0.0 | 55 | 82 | 72.5 | 59.9 | 29.935 | 7.26 | 0.0 | 0 | 0.00 | 0.00 | 0.00 | 0.00 |
| 05/09/26 1:35:19 AM | 37 | 0.0 | 0.0 | 55 | 82 | 72.5 | 59.9 | 29.935 | 7.26 | 0.0 | 0 | 0.00 | 0.00 | 0.00 | 0.00 |
| 05/09/26 1:36:36 AM | 37 | 0.0 | 0.0 | 55 | 82 | 72.5 | 59.8 | 29.935 | 7.26 | 0.0 | 0 | 0.00 | 0.00 | 0.00 | 0.00 |
| 05/09/26 1:37:27 AM | 37 | 0.0 | 0.0 | 55 | 82 | 72.5 | 59.8 | 29.937 | 7.26 | 0.0 | 0 | 0.00 | 0.00 | 0.00 | 0.00 |
| 05/09/26 1:38:16 AM | 36 | 0.0 | 0.0 | 55 | 82 | 72.5 | 59.8 | 29.938 | 7.26 | 0.0 | 0 | 0.00 | 0.00 | 0.00 | 0.00 |
| 05/09/26 1:39:26 AM | 37 | 0.0 | 0.0 | 55 | 82 | 72.5 | 59.8 | 29.936 | 7.26 | 0.0 | 0 | 0.00 | 0.00 | 0.00 | 0.00 |
| 05/09/26 1:40:18 AM | 32 | 0.0 | 0.0 | 55 | 82 | 72.5 | 59.7 | 29.937 | 7.26 | 0.0 | 0 | 0.00 | 0.00 | 0.00 | 0.00 |
| 05/09/26 1:41:31 AM | 38 | 0.0 | 0.0 | 55 | 82 | 72.5 | 59.7 | 29.935 | 7.26 | 0.0 | 0 | 0.00 | 0.00 | 0.00 | 0.00 |
| 05/09/26 1:42:23 AM | 36 | 0.0 | 0.0 | 55 | 82 | 72.5 | 59.6 | 29.935 | 7.26 | 0.0 | 0 | 0.00 | 0.00 | 0.00 | 0.00 |
| 05/09/26 1:43:36 AM | 36 | 0.0 | 0.0 | 55 | 82 | 72.4 | 59.6 | 29.935 | 7.26 | 0.0 | 0 | 0.00 | 0.00 | 0.00 | 0.00 |
| 05/09/26 1:44:22 AM | 38 | 0.0 | 0.0 | 55 | 82 | 72.4 | 59.6 | 29.936 | 7.26 | 0.0 | 0 | 0.00 | 0.00 | 0.00 | 0.00 |
| 05/09/26 1:45:35 AM | 38 | 0.0 | 0.0 | 55 | 82 | 72.5 | 59.6 | 29.935 | 7.26 | 0.0 | 0 | 0.00 | 0.00 | 0.00 | 0.00 |
| 05/09/26 1:46:27 AM | 37 | 0.0 | 0.0 | 55 | 82 | 72.5 | 59.6 | 29.935 | 7.26 | 0.0 | 0 | 0.00 | 0.00 | 0.00 | 0.00 |
| 05/09/26 1:47:19 AM | 37 | 0.0 | 0.0 | 55 | 82 | 72.4 | 59.6 | 29.934 | 7.26 | 0.0 | 0 | 0.00 | 0.00 | 0.00 | 0.00 |
| 05/09/26 1:48:29 AM | 37 | 0.0 | 0.0 | 55 | 82 | 72.4 | 59.6 | 29.935 | 7.26 | 0.0 | 0 | 0.00 | 0.00 | 0.00 | 0.00 |
| 05/09/26 1:49:24 AM | 37 | 0.0 | 0.0 | 55 | 82 | 72.5 | 59.5 | 29.935 | 7.26 | 0.0 | 0 | 0.00 | 0.00 | 0.00 | 0.00 |
| 05/09/26 1:50:31 AM | 36 | 0.0 | 0.0 | 55 | 82 | 72.4 | 59.5 | 29.934 | 7.26 | 0.0 | 0 | 0.00 | 0.00 | 0.00 | 0.00 |
| 05/09/26 1:51:22 AM | 37 | 0.0 | 0.0 | 55 | 82 | 72.4 | 59.5 | 29.933 | 7.26 | 0.0 | 0 | 0.00 | 0.00 | 0.00 | 0.00 |
| 05/09/26 1:52:32 AM | 37 | 0.0 | 0.0 | 55 | 82 | 72.4 | 59.5 | 29.933 | 7.26 | 0.0 | 0 | 0.00 | 0.00 | 0.00 | 0.00 |
| 05/09/26 1:53:25 AM | 38 | 0.0 | 0.0 | 55 | 82 | 72.4 | 59.5 | 29.934 | 7.26 | 0.0 | 0 | 0.00 | 0.00 | 0.00 | 0.00 |
| 05/09/26 1:54:19 AM | 34 | 0.0 | 0.0 | 55 | 82 | 72.4 | 59.5 | 29.932 | 7.26 | 0.0 | 0 | 0.00 | 0.00 | 0.00 | 0.00 |
| 05/09/26 1:55:26 AM | 35 | 0.0 | 0.0 | 55 | 82 | 72.4 | 59.4 | 29.930 | 7.26 | 0.0 | 0 | 0.00 | 0.00 | 0.00 | 0.00 |
| 05/09/26 1:56:18 AM | 38 | 0.0 | 0.0 | 55 | 82 | 72.4 | 59.4 | 29.932 | 7.26 | 0.0 | 0 | 0.00 | 0.00 | 0.00 | 0.00 |
| 05/09/26 1:57:31 AM | 35 | 0.0 | 0.0 | 55 | 82 | 72.4 | 59.4 | 29.932 | 7.26 | 0.0 | 0 | 0.00 | 0.00 | 0.00 | 0.00 |
| 05/09/26 1:58:20 AM | 34 | 0.0 | 0.0 | 55 | 82 | 72.4 | 59.4 | 29.934 | 7.26 | 0.0 | 0 | 0.00 | 0.00 | 0.00 | 0.00 |
| 05/09/26 1:59:33 AM | 38 | 0.0 | 0.0 | 55 | 82 | 72.4 | 59.3 | 29.933 | 7.26 | 0.0 | 0 | 0.00 | 0.00 | 0.00 | 0.00 |
| 05/09/26 2:00:22 AM | 38 | 0.0 | 0.0 | 55 | 82 | 72.4 | 59.3 | 29.932 | 7.26 | 0.0 | 0 | 0.00 | 0.00 | 0.00 | 0.00 |
| 05/09/26 2:01:32 AM | 37 | 0.0 | 0.0 | 55 | 83 | 72.3 | 59.3 | 29.931 | 7.26 | 0.0 | 0 | 0.00 | 0.00 | 0.00 | 0.00 |
| 05/09/26 2:02:24 AM | 38 | 0.0 | 0.0 | 55 | 83 | 72.3 | 59.3 | 29.932 | 7.26 | 0.0 | 0 | 0.00 | 0.00 | 0.00 | 0.00 |
| 05/09/26 2:03:16 AM | 31 | 0.0 | 0.0 | 55 | 83 | 72.4 | 59.3 | 29.932 | 7.26 | 0.0 | 0 | 0.00 | 0.00 | 0.00 | 0.00 |
| 05/09/26 2:04:29 AM | 36 | 0.0 | 0.0 | 55 | 83 | 72.3 | 59.3 | 29.931 | 7.26 | 0.0 | 0 | 0.00 | 0.00 | 0.00 | 0.00 |
| 05/09/26 2:05:18 AM | 37 | 0.0 | 0.0 | 55 | 83 | 72.3 | 59.2 | 29.932 | 7.26 | 0.0 | 0 | 0.00 | 0.00 | 0.00 | 0.00 |
| 05/09/26 2:06:28 AM | 35 | 0.0 | 0.0 | 55 | 83 | 72.3 | 59.2 | 29.932 | 7.26 | 0.0 | 0 | 0.00 | 0.00 | 0.00 | 0.00 |
| 05/09/26 2:07:20 AM | 38 | 0.0 | 0.0 | 55 | 83 | 72.3 | 59.2 | 29.932 | 7.26 | 0.0 | 0 | 0.00 | 0.00 | 0.00 | 0.00 |
| 05/09/26 2:08:33 AM | 35 | 0.0 | 0.0 | 55 | 83 | 72.3 | 59.1 | 29.930 | 7.26 | 0.0 | 0 | 0.00 | 0.00 | 0.00 | 0.00 |
| 05/09/26 2:09:25 AM | 38 | 0.0 | 0.0 | 55 | 83 | 72.3 | 59.1 | 29.931 | 7.26 | 0.0 | 0 | 0.00 | 0.00 | 0.00 | 0.00 |
| 05/09/26 2:10:17 AM | 37 | 0.0 | 0.0 | 55 | 83 | 72.3 | 59.1 | 29.931 | 7.26 | 0.0 | 0 | 0.00 | 0.00 | 0.00 | 0.00 |
| 05/09/26 2:11:27 AM | 38 | 0.0 | 0.0 | 55 | 83 | 72.3 | 59.1 | 29.929 | 7.26 | 0.0 | 0 | 0.00 | 0.00 | 0.00 | 0.00 |
| 05/09/26 2:12:19 AM | 38 | 0.0 | 0.0 | 55 | 83 | 72.3 | 59.1 | 29.929 | 7.26 | 0.0 | 0 | 0.00 | 0.00 | 0.00 | 0.00 |
| 05/09/26 2:13:32 AM | 38 | 0.0 | 0.0 | 55 | 83 | 72.3 | 59.0 | 29.928 | 7.26 | 0.0 | 0 | 0.00 | 0.00 | 0.00 | 0.00 |
| 05/09/26 2:14:24 AM | 38 | 0.0 | 0.0 | 55 | 83 | 72.2 | 59.0 | 29.930 | 7.26 | 0.0 | 0 | 0.00 | 0.00 | 0.00 | 0.00 |
| 05/09/26 2:15:37 AM | 32 | 0.0 | 0.0 | 55 | 83 | 72.3 | 59.0 | 29.932 | 7.26 | 0.0 | 0 | 0.00 | 0.00 | 0.00 | 0.00 |
| 05/09/26 2:16:23 AM | 30 | 0.0 | 0.0 | 55 | 83 | 72.2 | 59.0 | 29.930 | 7.26 | 0.0 | 0 | 0.00 | 0.00 | 0.00 | 0.00 |
| 05/09/26 2:17:36 AM | 38 | 0.0 | 0.0 | 55 | 83 | 72.2 | 58.9 | 29.928 | 7.26 | 0.0 | 0 | 0.00 | 0.00 | 0.00 | 0.00 |
| 05/09/26 2:18:28 AM | 37 | 0.0 | 0.0 | 55 | 83 | 72.2 | 58.9 | 29.928 | 7.26 | 0.0 | 0 | 0.00 | 0.00 | 0.00 | 0.00 |
| 05/09/26 2:19:20 AM | 38 | 0.0 | 0.0 | 55 | 83 | 72.2 | 58.9 | 29.930 | 7.26 | 0.0 | 0 | 0.00 | 0.00 | 0.00 | 0.00 |
| 05/09/26 2:20:33 AM | 38 | 0.0 | 0.0 | 55 | 83 | 72.2 | 58.8 | 29.927 | 7.26 | 0.0 | 0 | 0.00 | 0.00 | 0.00 | 0.00 |
| 05/09/26 2:21:22 AM | 38 | 0.0 | 0.0 | 55 | 83 | 72.2 | 58.8 | 29.929 | 7.26 | 0.0 | 0 | 0.00 | 0.00 | 0.00 | 0.00 |
| 05/09/26 2:22:32 AM | 35 | 0.0 | 0.0 | 55 | 83 | 72.2 | 58.8 | 29.926 | 7.26 | 0.0 | 0 | 0.00 | 0.00 | 0.00 | 0.00 |
| 05/09/26 2:23:24 AM | 32 | 0.0 | 0.0 | 55 | 83 | 72.1 | 58.7 | 29.928 | 7.26 | 0.0 | 0 | 0.00 | 0.00 | 0.00 | 0.00 |
| 05/09/26 2:24:34 AM | 34 | 0.0 | 0.0 | 55 | 83 | 72.1 | 58.7 | 29.930 | 7.26 | 0.0 | 0 | 0.00 | 0.00 | 0.00 | 0.00 |
| 05/09/26 2:25:26 AM | 38 | 0.0 | 0.0 | 55 | 83 | 72.1 | 58.6 | 29.929 | 7.26 | 0.0 | 0 | 0.00 | 0.00 | 0.00 | 0.00 |
| 05/09/26 2:26:18 AM | 38 | 0.0 | 0.0 | 55 | 83 | 72.2 | 58.6 | 29.929 | 7.26 | 0.0 | 0 | 0.00 | 0.00 | 0.00 | 0.00 |
| 05/09/26 2:27:28 AM | 32 | 0.0 | 0.0 | 55 | 83 | 72.1 | 58.6 | 29.929 | 7.26 | 0.0 | 0 | 0.00 | 0.00 | 0.00 | 0.00 |
| 05/09/26 2:28:20 AM | 38 | 0.0 | 0.0 | 55 | 83 | 72.1 | 58.5 | 29.927 | 7.26 | 0.0 | 0 | 0.00 | 0.00 | 0.00 | 0.00 |
| 05/09/26 2:29:30 AM | 37 | 0.0 | 0.0 | 55 | 83 | 72.1 | 58.5 | 29.927 | 7.26 | 0.0 | 0 | 0.00 | 0.00 | 0.00 | 0.00 |
| 05/09/26 2:30:25 AM | 34 | 0.0 | 0.0 | 55 | 83 | 72.1 | 58.4 | 29.927 | 7.26 | 0.0 | 0 | 0.00 | 0.00 | 0.00 | 0.00 |
| 05/09/26 2:31:35 AM | 37 | 0.0 | 0.0 | 55 | 83 | 72.1 | 58.4 | 29.924 | 7.26 | 0.0 | 0 | 0.00 | 0.00 | 0.00 | 0.00 |
| 05/09/26 2:32:24 AM | 38 | 0.0 | 0.0 | 55 | 83 | 72.1 | 58.3 | 29.927 | 7.26 | 0.0 | 0 | 0.00 | 0.00 | 0.00 | 0.00 |
| 05/09/26 2:33:34 AM | 34 | 0.0 | 0.0 | 55 | 84 | 72.1 | 58.3 | 29.924 | 7.26 | 0.0 | 0 | 0.00 | 0.00 | 0.00 | 0.00 |
| 05/09/26 2:34:28 AM | 38 | 0.0 | 0.0 | 55 | 84 | 72.1 | 58.3 | 29.924 | 7.26 | 0.0 | 0 | 0.00 | 0.00 | 0.00 | 0.00 |
| 05/09/26 2:35:20 AM | 32 | 0.0 | 0.0 | 55 | 84 | 72.1 | 58.3 | 29.924 | 7.26 | 0.0 | 0 | 0.00 | 0.00 | 0.00 | 0.00 |
| 05/09/26 2:36:33 AM | 34 | 0.0 | 0.0 | 55 | 84 | 72.1 | 58.3 | 29.922 | 7.26 | 0.0 | 0 | 0.00 | 0.00 | 0.00 | 0.00 |
| 05/09/26 2:37:25 AM | 36 | 0.0 | 0.0 | 55 | 84 | 72.0 | 58.2 | 29.924 | 7.26 | 0.0 | 0 | 0.00 | 0.00 | 0.00 | 0.00 |
| 05/09/26 2:38:32 AM | 36 | 0.0 | 0.0 | 55 | 84 | 72.0 | 58.2 | 29.924 | 7.26 | 0.0 | 0 | 0.00 | 0.00 | 0.00 | 0.00 |
| 05/09/26 2:39:24 AM | 36 | 0.0 | 0.0 | 55 | 84 | 72.0 | 58.2 | 29.924 | 7.26 | 0.0 | 0 | 0.00 | 0.00 | 0.00 | 0.00 |
| 05/09/26 2:40:16 AM | 38 | 0.0 | 0.0 | 55 | 84 | 72.1 | 58.2 | 29.922 | 7.26 | 0.0 | 0 | 0.00 | 0.00 | 0.00 | 0.00 |
| 05/09/26 2:41:29 AM | 38 | 0.0 | 0.0 | 55 | 84 | 72.0 | 58.2 | 29.919 | 7.26 | 0.0 | 0 | 0.00 | 0.00 | 0.00 | 0.00 |
| 05/09/26 2:42:21 AM | 35 | 0.0 | 0.0 | 55 | 84 | 72.0 | 58.2 | 29.921 | 7.26 | 0.0 | 0 | 0.00 | 0.00 | 0.00 | 0.00 |
| 05/09/26 2:43:28 AM | 38 | 0.0 | 0.0 | 55 | 84 | 72.0 | 58.2 | 29.921 | 7.26 | 0.0 | 0 | 0.00 | 0.00 | 0.00 | 0.00 |
| 05/09/26 2:44:20 AM | 38 | 0.0 | 0.0 | 55 | 84 | 72.0 | 58.2 | 29.918 | 7.26 | 0.0 | 0 | 0.00 | 0.00 | 0.00 | 0.00 |
| 05/09/26 2:45:33 AM | 34 | 0.0 | 0.0 | 55 | 84 | 72.0 | 58.2 | 29.922 | 7.26 | 0.0 | 0 | 0.00 | 0.00 | 0.00 | 0.00 |
| 05/09/26 2:46:22 AM | 37 | 0.0 | 0.0 | 55 | 84 | 72.0 | 58.2 | 29.919 | 7.26 | 0.0 | 0 | 0.00 | 0.00 | 0.00 | 0.00 |
| 05/09/26 2:47:35 AM | 37 | 0.0 | 0.0 | 55 | 84 | 72.0 | 58.2 | 29.920 | 7.26 | 0.0 | 0 | 0.00 | 0.00 | 0.00 | 0.00 |
| 05/09/26 2:48:24 AM | 37 | 0.0 | 0.0 | 55 | 84 | 72.0 | 58.2 | 29.919 | 7.26 | 0.0 | 0 | 0.00 | 0.00 | 0.00 | 0.00 |
| 05/09/26 2:49:37 AM | 37 | 0.0 | 0.0 | 55 | 84 | 72.0 | 58.2 | 29.917 | 7.26 | 0.0 | 0 | 0.00 | 0.00 | 0.00 | 0.00 |
| 05/09/26 2:50:29 AM | 35 | 0.0 | 0.0 | 55 | 84 | 71.9 | 58.2 | 29.918 | 7.26 | 0.0 | 0 | 0.00 | 0.00 | 0.00 | 0.00 |
| 05/09/26 2:51:21 AM | 36 | 0.0 | 0.0 | 55 | 84 | 71.9 | 58.1 | 29.918 | 7.26 | 0.0 | 0 | 0.00 | 0.00 | 0.00 | 0.00 |
| 05/09/26 2:52:34 AM | 38 | 0.0 | 0.0 | 55 | 84 | 71.9 | 58.2 | 29.919 | 7.26 | 0.0 | 0 | 0.00 | 0.00 | 0.00 | 0.00 |
| 05/09/26 2:53:26 AM | 37 | 0.0 | 0.0 | 55 | 84 | 71.9 | 58.2 | 29.917 | 7.26 | 0.0 | 0 | 0.00 | 0.00 | 0.00 | 0.00 |
| 05/09/26 2:54:36 AM | 38 | 0.0 | 0.0 | 55 | 84 | 71.9 | 58.1 | 29.919 | 7.26 | 0.0 | 0 | 0.00 | 0.00 | 0.00 | 0.00 |
| 05/09/26 2:55:24 AM | 32 | 0.0 | 0.0 | 55 | 84 | 71.9 | 58.1 | 29.918 | 7.26 | 0.0 | 0 | 0.00 | 0.00 | 0.00 | 0.00 |
| 05/09/26 2:56:16 AM | 38 | 0.0 | 0.0 | 55 | 84 | 71.9 | 58.1 | 29.917 | 7.26 | 0.0 | 0 | 0.00 | 0.00 | 0.00 | 0.00 |
| 05/09/26 2:57:29 AM | 35 | 0.0 | 0.0 | 55 | 84 | 71.9 | 58.0 | 29.919 | 7.26 | 0.0 | 0 | 0.00 | 0.00 | 0.00 | 0.00 |
| 05/09/26 2:58:21 AM | 38 | 0.0 | 0.0 | 55 | 84 | 71.9 | 58.1 | 29.916 | 7.26 | 0.0 | 0 | 0.00 | 0.00 | 0.00 | 0.00 |
| 05/09/26 2:59:28 AM | 36 | 0.0 | 0.0 | 55 | 85 | 71.9 | 58.1 | 29.919 | 7.26 | 0.0 | 0 | 0.00 | 0.00 | 0.00 | 0.00 |
| 05/09/26 3:00:41 AM | 37 | 0.0 | 0.0 | 55 | 85 | 71.9 | 58.1 | 29.917 | 7.26 | 0.0 | 0 | 0.00 | 0.00 | 0.00 | 0.00 |
| 05/09/26 3:01:33 AM | 37 | 0.0 | 0.0 | 55 | 85 | 71.9 | 58.1 | 29.918 | 7.26 | 0.0 | 0 | 0.00 | 0.00 | 0.00 | 0.00 |
| 05/09/26 3:02:25 AM | 34 | 0.0 | 0.0 | 55 | 85 | 71.9 | 58.1 | 29.918 | 7.26 | 0.0 | 0 | 0.00 | 0.00 | 0.00 | 0.00 |
| 05/09/26 3:03:17 AM | 38 | 0.0 | 0.0 | 55 | 85 | 71.9 | 58.1 | 29.917 | 7.26 | 0.0 | 0 | 0.00 | 0.00 | 0.00 | 0.00 |
| 05/09/26 3:04:30 AM | 35 | 0.0 | 0.0 | 55 | 85 | 71.9 | 58.1 | 29.918 | 7.26 | 0.0 | 0 | 0.00 | 0.00 | 0.00 | 0.00 |
| 05/09/26 3:05:16 AM | 38 | 0.0 | 0.0 | 55 | 85 | 71.9 | 58.0 | 29.917 | 7.26 | 0.0 | 0 | 0.00 | 0.00 | 0.00 | 0.00 |
| 05/09/26 3:06:29 AM | 38 | 0.0 | 0.0 | 55 | 85 | 71.8 | 58.0 | 29.917 | 7.26 | 0.0 | 0 | 0.00 | 0.00 | 0.00 | 0.00 |
| 05/09/26 3:07:21 AM | 38 | 0.0 | 0.0 | 55 | 85 | 71.9 | 58.0 | 29.917 | 7.26 | 0.0 | 0 | 0.00 | 0.00 | 0.00 | 0.00 |
| 05/09/26 3:08:34 AM | 35 | 0.0 | 0.0 | 55 | 85 | 71.9 | 58.0 | 29.915 | 7.26 | 0.0 | 0 | 0.00 | 0.00 | 0.00 | 0.00 |
| 05/09/26 3:09:26 AM | 40 | 0.0 | 0.0 | 55 | 85 | 71.9 | 58.0 | 29.917 | 7.26 | 0.0 | 0 | 0.00 | 0.00 | 0.00 | 0.00 |
| 05/09/26 3:10:33 AM | 32 | 0.0 | 0.0 | 55 | 85 | 71.9 | 58.0 | 29.916 | 7.26 | 0.0 | 0 | 0.00 | 0.00 | 0.00 | 0.00 |
| 05/09/26 3:11:25 AM | 37 | 0.0 | 0.0 | 55 | 85 | 71.9 | 58.0 | 29.918 | 7.26 | 0.0 | 0 | 0.00 | 0.00 | 0.00 | 0.00 |
| 05/09/26 3:12:17 AM | 37 | 0.0 | 0.0 | 55 | 85 | 71.9 | 57.9 | 29.915 | 7.26 | 0.0 | 0 | 0.00 | 0.00 | 0.00 | 0.00 |
| 05/09/26 3:13:30 AM | 38 | 0.0 | 0.0 | 55 | 85 | 71.9 | 57.9 | 29.917 | 7.26 | 0.0 | 0 | 0.00 | 0.00 | 0.00 | 0.00 |
| 05/09/26 3:14:22 AM | 38 | 0.0 | 0.0 | 55 | 85 | 71.8 | 57.9 | 29.918 | 7.26 | 0.0 | 0 | 0.00 | 0.00 | 0.00 | 0.00 |
| 05/09/26 3:15:32 AM | 38 | 0.0 | 0.0 | 55 | 85 | 71.8 | 57.8 | 29.917 | 7.26 | 0.0 | 0 | 0.00 | 0.00 | 0.00 | 0.00 |
| 05/09/26 3:16:21 AM | 34 | 0.0 | 0.0 | 55 | 85 | 71.8 | 57.8 | 29.919 | 7.26 | 0.0 | 0 | 0.00 | 0.00 | 0.00 | 0.00 |
| 05/09/26 3:17:34 AM | 37 | 0.0 | 0.0 | 55 | 85 | 71.8 | 57.8 | 29.916 | 7.26 | 0.0 | 0 | 0.00 | 0.00 | 0.00 | 0.00 |
| 05/09/26 3:18:26 AM | 38 | 0.0 | 0.0 | 55 | 85 | 71.8 | 57.8 | 29.917 | 7.26 | 0.0 | 0 | 0.00 | 0.00 | 0.00 | 0.00 |
| 05/09/26 3:19:18 AM | 34 | 0.0 | 0.0 | 55 | 85 | 71.9 | 57.7 | 29.918 | 7.26 | 0.0 | 0 | 0.00 | 0.00 | 0.00 | 0.00 |
| 05/09/26 3:20:31 AM | 35 | 0.0 | 0.0 | 55 | 85 | 71.8 | 57.7 | 29.918 | 7.26 | 0.0 | 0 | 0.00 | 0.00 | 0.00 | 0.00 |
| 05/09/26 3:21:20 AM | 38 | 0.0 | 0.0 | 55 | 85 | 71.8 | 57.7 | 29.916 | 7.26 | 0.0 | 0 | 0.00 | 0.00 | 0.00 | 0.00 |
| 05/09/26 3:22:30 AM | 32 | 0.0 | 0.0 | 55 | 85 | 71.9 | 57.6 | 29.916 | 7.26 | 0.0 | 0 | 0.00 | 0.00 | 0.00 | 0.00 |
| 05/09/26 3:23:22 AM | 36 | 0.0 | 0.0 | 55 | 85 | 71.8 | 57.6 | 29.916 | 7.26 | 0.0 | 0 | 0.00 | 0.00 | 0.00 | 0.00 |
| 05/09/26 3:24:35 AM | 38 | 0.0 | 0.0 | 55 | 85 | 71.8 | 57.6 | 29.916 | 7.26 | 0.0 | 0 | 0.00 | 0.00 | 0.00 | 0.00 |
| 05/09/26 3:25:27 AM | 36 | 0.0 | 0.0 | 55 | 85 | 71.8 | 57.6 | 29.913 | 7.26 | 0.0 | 0 | 0.00 | 0.00 | 0.00 | 0.00 |
| 05/09/26 3:26:34 AM | 37 | 0.0 | 0.0 | 55 | 85 | 71.8 | 57.5 | 29.916 | 7.26 | 0.0 | 0 | 0.00 | 0.00 | 0.00 | 0.00 |
| 05/09/26 3:27:29 AM | 35 | 0.0 | 0.0 | 55 | 85 | 71.8 | 57.5 | 29.913 | 7.26 | 0.0 | 0 | 0.00 | 0.00 | 0.00 | 0.00 |
| 05/09/26 3:28:18 AM | 38 | 0.0 | 0.0 | 55 | 85 | 71.8 | 57.5 | 29.913 | 7.26 | 0.0 | 0 | 0.00 | 0.00 | 0.00 | 0.00 |
| 05/09/26 3:29:31 AM | 37 | 0.0 | 0.0 | 55 | 85 | 71.8 | 57.4 | 29.915 | 7.26 | 0.0 | 0 | 0.00 | 0.00 | 0.00 | 0.00 |
| 05/09/26 3:30:23 AM | 38 | 0.0 | 0.0 | 55 | 85 | 71.8 | 57.4 | 29.915 | 7.26 | 0.0 | 0 | 0.00 | 0.00 | 0.00 | 0.00 |
| 05/09/26 3:31:30 AM | 32 | 0.0 | 0.0 | 55 | 85 | 71.8 | 57.3 | 29.916 | 7.26 | 0.0 | 0 | 0.00 | 0.00 | 0.00 | 0.00 |
| 05/09/26 3:32:22 AM | 36 | 0.0 | 0.0 | 55 | 85 | 71.8 | 57.3 | 29.913 | 7.26 | 0.0 | 0 | 0.00 | 0.00 | 0.00 | 0.00 |
| 05/09/26 3:33:35 AM | 36 | 0.0 | 0.0 | 55 | 85 | 71.8 | 57.3 | 29.915 | 7.26 | 0.0 | 0 | 0.00 | 0.00 | 0.00 | 0.00 |
| 05/09/26 3:34:27 AM | 32 | 0.0 | 0.0 | 55 | 85 | 71.7 | 57.2 | 29.913 | 7.26 | 0.0 | 0 | 0.00 | 0.00 | 0.00 | 0.00 |
| 05/09/26 3:35:19 AM | 36 | 0.0 | 0.0 | 55 | 85 | 71.8 | 57.2 | 29.911 | 7.26 | 0.0 | 0 | 0.00 | 0.00 | 0.00 | 0.00 |
| 05/09/26 3:36:32 AM | 31 | 0.0 | 0.0 | 55 | 85 | 71.7 | 57.2 | 29.911 | 7.26 | 0.0 | 0 | 0.00 | 0.00 | 0.00 | 0.00 |
| 05/09/26 3:37:21 AM | 34 | 0.0 | 0.0 | 55 | 85 | 71.7 | 57.2 | 29.912 | 7.26 | 0.0 | 0 | 0.00 | 0.00 | 0.00 | 0.00 |
| 05/09/26 3:38:31 AM | 38 | 0.0 | 0.0 | 55 | 85 | 71.7 | 57.1 | 29.911 | 7.26 | 0.0 | 0 | 0.00 | 0.00 | 0.00 | 0.00 |
| 05/09/26 3:39:23 AM | 34 | 0.0 | 0.0 | 55 | 85 | 71.7 | 57.1 | 29.911 | 7.26 | 0.0 | 0 | 0.00 | 0.00 | 0.00 | 0.00 |
| 05/09/26 3:40:33 AM | 38 | 0.0 | 0.0 | 55 | 85 | 71.7 | 57.1 | 29.912 | 7.26 | 0.0 | 0 | 0.00 | 0.00 | 0.00 | 0.00 |
| 05/09/26 3:41:28 AM | 36 | 0.0 | 0.0 | 55 | 85 | 71.7 | 57.1 | 29.908 | 7.26 | 0.0 | 0 | 0.00 | 0.00 | 0.00 | 0.00 |
| 05/09/26 3:42:35 AM | 36 | 0.0 | 0.0 | 55 | 85 | 71.7 | 57.0 | 29.913 | 7.26 | 0.0 | 0 | 0.00 | 0.00 | 0.00 | 0.00 |
| 05/09/26 3:43:27 AM | 34 | 0.0 | 0.0 | 55 | 85 | 71.7 | 57.1 | 29.912 | 7.26 | 0.0 | 0 | 0.00 | 0.00 | 0.00 | 0.00 |
| 05/09/26 3:44:16 AM | 35 | 0.0 | 0.0 | 55 | 85 | 71.7 | 57.0 | 29.912 | 7.26 | 0.0 | 0 | 0.00 | 0.00 | 0.00 | 0.00 |
| 05/09/26 3:45:29 AM | 36 | 0.0 | 0.0 | 55 | 85 | 71.7 | 57.0 | 29.913 | 7.26 | 0.0 | 0 | 0.00 | 0.00 | 0.00 | 0.00 |
| 05/09/26 3:46:21 AM | 31 | 0.0 | 0.0 | 55 | 85 | 71.7 | 56.9 | 29.910 | 7.26 | 0.0 | 0 | 0.00 | 0.00 | 0.00 | 0.00 |
| 05/09/26 3:47:31 AM | 35 | 0.0 | 0.0 | 55 | 85 | 71.7 | 56.9 | 29.912 | 7.26 | 0.0 | 0 | 0.00 | 0.00 | 0.00 | 0.00 |
| 05/09/26 3:48:20 AM | 37 | 0.0 | 0.0 | 55 | 85 | 71.7 | 56.9 | 29.911 | 7.26 | 0.0 | 0 | 0.00 | 0.00 | 0.00 | 0.00 |
| 05/09/26 3:49:33 AM | 38 | 0.0 | 0.0 | 55 | 85 | 71.7 | 56.9 | 29.912 | 7.26 | 0.0 | 0 | 0.00 | 0.00 | 0.00 | 0.00 |
| 05/09/26 3:50:25 AM | 38 | 0.0 | 0.0 | 55 | 85 | 71.7 | 56.9 | 29.910 | 7.26 | 0.0 | 0 | 0.00 | 0.00 | 0.00 | 0.00 |
| 05/09/26 3:51:20 AM | 37 | 0.0 | 0.0 | 55 | 85 | 71.7 | 56.9 | 29.912 | 7.26 | 0.0 | 0 | 0.00 | 0.00 | 0.00 | 0.00 |
| 05/09/26 3:52:30 AM | 37 | 0.0 | 0.0 | 55 | 86 | 71.7 | 56.9 | 29.911 | 7.26 | 0.0 | 0 | 0.00 | 0.00 | 0.00 | 0.00 |
| 05/09/26 3:53:19 AM | 37 | 0.0 | 0.0 | 55 | 86 | 71.7 | 56.9 | 29.910 | 7.26 | 0.0 | 0 | 0.00 | 0.00 | 0.00 | 0.00 |
| 05/09/26 3:54:32 AM | 34 | 0.0 | 0.0 | 55 | 86 | 71.7 | 56.9 | 29.912 | 7.26 | 0.0 | 0 | 0.00 | 0.00 | 0.00 | 0.00 |
| 05/09/26 3:55:21 AM | 32 | 0.0 | 0.0 | 55 | 86 | 71.7 | 57.0 | 29.912 | 7.26 | 0.0 | 0 | 0.00 | 0.00 | 0.00 | 0.00 |
| 05/09/26 3:56:31 AM | 37 | 0.0 | 0.0 | 55 | 86 | 71.7 | 57.0 | 29.911 | 7.26 | 0.0 | 0 | 0.00 | 0.00 | 0.00 | 0.00 |
| 05/09/26 3:57:26 AM | 36 | 0.0 | 0.0 | 55 | 86 | 71.7 | 57.0 | 29.911 | 7.26 | 0.0 | 0 | 0.00 | 0.00 | 0.00 | 0.00 |
| 05/09/26 3:58:30 AM | 34 | 0.0 | 0.0 | 55 | 86 | 71.7 | 57.0 | 29.911 | 7.26 | 0.0 | 0 | 0.00 | 0.00 | 0.00 | 0.00 |
| 05/09/26 3:59:22 AM | 36 | 0.0 | 0.0 | 55 | 86 | 71.6 | 57.0 | 29.911 | 7.26 | 0.0 | 0 | 0.00 | 0.00 | 0.00 | 0.00 |
| 05/09/26 4:00:17 AM | 38 | 0.0 | 0.0 | 55 | 86 | 71.7 | 57.1 | 29.912 | 7.26 | 0.0 | 0 | 0.00 | 0.00 | 0.00 | 0.00 |
| 05/09/26 4:01:30 AM | 38 | 0.0 | 0.0 | 55 | 86 | 71.7 | 57.1 | 29.912 | 7.26 | 0.0 | 0 | 0.00 | 0.00 | 0.00 | 0.00 |
| 05/09/26 4:02:22 AM | 37 | 0.0 | 0.0 | 55 | 86 | 71.7 | 57.1 | 29.912 | 7.26 | 0.0 | 0 | 0.00 | 0.00 | 0.00 | 0.00 |
| 05/09/26 4:03:29 AM | 36 | 0.0 | 0.0 | 55 | 86 | 71.7 | 57.1 | 29.914 | 7.26 | 0.0 | 0 | 0.00 | 0.00 | 0.00 | 0.00 |
| 05/09/26 4:04:21 AM | 38 | 0.0 | 0.0 | 55 | 86 | 71.7 | 57.1 | 29.911 | 7.26 | 0.0 | 0 | 0.00 | 0.00 | 0.00 | 0.00 |
| 05/09/26 4:05:34 AM | 32 | 0.0 | 0.0 | 55 | 86 | 71.7 | 57.1 | 29.911 | 7.26 | 0.0 | 0 | 0.00 | 0.00 | 0.00 | 0.00 |
| 05/09/26 4:06:23 AM | 36 | 0.0 | 0.0 | 55 | 86 | 71.7 | 57.1 | 29.911 | 7.26 | 0.0 | 0 | 0.00 | 0.00 | 0.00 | 0.00 |
| 05/09/26 4:07:36 AM | 38 | 0.0 | 0.0 | 55 | 86 | 71.7 | 57.1 | 29.911 | 7.26 | 0.0 | 0 | 0.00 | 0.00 | 0.00 | 0.00 |
| 05/09/26 4:08:31 AM | 37 | 0.0 | 0.0 | 55 | 86 | 71.7 | 57.1 | 29.910 | 7.26 | 0.0 | 0 | 0.00 | 0.00 | 0.00 | 0.00 |
| 05/09/26 4:09:20 AM | 35 | 0.0 | 0.0 | 55 | 86 | 71.7 | 57.1 | 29.912 | 7.26 | 0.0 | 0 | 0.00 | 0.00 | 0.00 | 0.00 |
| 05/09/26 4:10:33 AM | 32 | 0.0 | 0.0 | 55 | 86 | 71.7 | 57.1 | 29.911 | 7.26 | 0.0 | 0 | 0.00 | 0.00 | 0.00 | 0.00 |
| 05/09/26 4:11:25 AM | 35 | 0.0 | 0.0 | 55 | 86 | 71.7 | 57.1 | 29.910 | 7.26 | 0.0 | 0 | 0.00 | 0.00 | 0.00 | 0.00 |
| 05/09/26 4:12:17 AM | 37 | 0.0 | 0.0 | 55 | 86 | 71.7 | 57.0 | 29.908 | 7.26 | 0.0 | 0 | 0.00 | 0.00 | 0.00 | 0.00 |
| 05/09/26 4:13:30 AM | 38 | 0.0 | 0.0 | 55 | 86 | 71.7 | 57.0 | 29.911 | 7.26 | 0.0 | 0 | 0.00 | 0.00 | 0.00 | 0.00 |
| 05/09/26 4:14:19 AM | 32 | 0.0 | 0.0 | 55 | 86 | 71.7 | 57.0 | 29.908 | 7.26 | 0.0 | 0 | 0.00 | 0.00 | 0.00 | 0.00 |
| 05/09/26 4:15:53 AM | 34 | 0.0 | 0.0 | 55 | 86 | 71.7 | 57.0 | 29.911 | 7.26 | 0.0 | 0 | 0.00 | 0.00 | 0.00 | 0.00 |
| 05/09/26 4:16:21 AM | 34 | 0.0 | 0.0 | 55 | 86 | 71.6 | 57.0 | 29.911 | 7.26 | 0.0 | 0 | 0.00 | 0.00 | 0.00 | 0.00 |
| 05/09/26 4:17:34 AM | 37 | 0.0 | 0.0 | 55 | 86 | 71.7 | 56.9 | 29.912 | 7.26 | 0.0 | 0 | 0.00 | 0.00 | 0.00 | 0.00 |
| 05/09/26 4:18:29 AM | 36 | 0.0 | 0.0 | 55 | 86 | 71.7 | 56.9 | 29.912 | 7.26 | 0.0 | 0 | 0.00 | 0.00 | 0.00 | 0.00 |
| 05/09/26 4:19:18 AM | 38 | 0.0 | 0.0 | 55 | 86 | 71.7 | 56.9 | 29.910 | 7.26 | 0.0 | 0 | 0.00 | 0.00 | 0.00 | 0.00 |
| 05/09/26 4:20:28 AM | 36 | 0.0 | 0.0 | 55 | 86 | 71.6 | 56.9 | 29.912 | 7.26 | 0.0 | 0 | 0.00 | 0.00 | 0.00 | 0.00 |
| 05/09/26 4:21:20 AM | 35 | 0.0 | 0.0 | 55 | 86 | 71.6 | 56.9 | 29.911 | 7.26 | 0.0 | 0 | 0.00 | 0.00 | 0.00 | 0.00 |
| 05/09/26 4:22:33 AM | 32 | 0.0 | 0.0 | 55 | 86 | 71.6 | 56.9 | 29.908 | 7.26 | 0.0 | 0 | 0.00 | 0.00 | 0.00 | 0.00 |
| 05/09/26 4:23:25 AM | 38 | 0.0 | 0.0 | 55 | 86 | 71.6 | 56.9 | 29.908 | 7.26 | 0.0 | 0 | 0.00 | 0.00 | 0.00 | 0.00 |
| 05/09/26 4:24:17 AM | 38 | 0.0 | 0.0 | 55 | 86 | 71.6 | 56.9 | 29.906 | 7.26 | 0.0 | 0 | 0.00 | 0.00 | 0.00 | 0.00 |
| 05/09/26 4:25:24 AM | 38 | 0.0 | 0.0 | 55 | 86 | 71.6 | 56.8 | 29.910 | 7.26 | 0.0 | 0 | 0.00 | 0.00 | 0.00 | 0.00 |
| 05/09/26 4:26:19 AM | 38 | 0.0 | 0.0 | 55 | 86 | 71.6 | 56.8 | 29.907 | 7.26 | 0.0 | 0 | 0.00 | 0.00 | 0.00 | 0.00 |
| 05/09/26 4:27:29 AM | 37 | 0.0 | 0.0 | 55 | 86 | 71.6 | 56.8 | 29.906 | 7.26 | 0.0 | 0 | 0.00 | 0.00 | 0.00 | 0.00 |
| 05/09/26 4:28:21 AM | 34 | 0.0 | 0.0 | 55 | 86 | 71.7 | 56.8 | 29.907 | 7.26 | 0.0 | 0 | 0.00 | 0.00 | 0.00 | 0.00 |
| 05/09/26 4:29:34 AM | 37 | 0.0 | 0.0 | 55 | 86 | 71.6 | 56.7 | 29.907 | 7.26 | 0.0 | 0 | 0.00 | 0.00 | 0.00 | 0.00 |
| 05/09/26 4:30:47 AM | 36 | 0.0 | 0.0 | 55 | 86 | 71.6 | 56.7 | 29.906 | 7.26 | 0.0 | 0 | 0.00 | 0.00 | 0.00 | 0.00 |
| 05/09/26 4:31:33 AM | 37 | 0.0 | 0.0 | 55 | 86 | 71.6 | 56.7 | 29.906 | 7.26 | 0.0 | 0 | 0.00 | 0.00 | 0.00 | 0.00 |
| 05/09/26 4:32:25 AM | 37 | 0.0 | 0.0 | 55 | 86 | 71.6 | 56.7 | 29.905 | 7.26 | 0.0 | 0 | 0.00 | 0.00 | 0.00 | 0.00 |
| 05/09/26 4:33:17 AM | 35 | 0.0 | 0.0 | 55 | 86 | 71.6 | 56.7 | 29.905 | 7.26 | 0.0 | 0 | 0.00 | 0.00 | 0.00 | 0.00 |
| 05/09/26 4:34:27 AM | 32 | 0.0 | 0.0 | 55 | 86 | 71.6 | 56.6 | 29.906 | 7.26 | 0.0 | 0 | 0.00 | 0.00 | 0.00 | 0.00 |
| 05/09/26 4:35:19 AM | 35 | 0.0 | 0.0 | 55 | 86 | 71.6 | 56.6 | 29.907 | 7.26 | 0.0 | 0 | 0.00 | 0.00 | 0.00 | 0.00 |
| 05/09/26 4:36:26 AM | 36 | 0.0 | 0.0 | 55 | 86 | 71.6 | 56.6 | 29.905 | 7.26 | 0.0 | 0 | 0.00 | 0.00 | 0.00 | 0.00 |
| 05/09/26 4:37:21 AM | 38 | 0.0 | 0.0 | 55 | 86 | 71.6 | 56.6 | 29.907 | 7.26 | 0.0 | 0 | 0.00 | 0.00 | 0.00 | 0.00 |
| 05/09/26 4:38:31 AM | 38 | 0.0 | 0.0 | 55 | 86 | 71.5 | 56.6 | 29.907 | 7.26 | 0.0 | 0 | 0.00 | 0.00 | 0.00 | 0.00 |
| 05/09/26 4:39:23 AM | 34 | 0.0 | 0.0 | 55 | 87 | 71.6 | 56.6 | 29.906 | 7.26 | 0.0 | 0 | 0.00 | 0.00 | 0.00 | 0.00 |
| 05/09/26 4:40:36 AM | 32 | 0.0 | 0.0 | 55 | 87 | 71.5 | 56.6 | 29.906 | 7.26 | 0.0 | 0 | 0.00 | 0.00 | 0.00 | 0.00 |
| 05/09/26 4:41:28 AM | 38 | 0.0 | 0.0 | 55 | 87 | 71.6 | 56.6 | 29.907 | 7.26 | 0.0 | 0 | 0.00 | 0.00 | 0.00 | 0.00 |
| 05/09/26 4:42:35 AM | 38 | 0.0 | 0.0 | 55 | 87 | 71.5 | 56.6 | 29.908 | 7.26 | 0.0 | 0 | 0.00 | 0.00 | 0.00 | 0.00 |
| 05/09/26 4:43:27 AM | 30 | 0.0 | 0.0 | 55 | 87 | 71.6 | 56.6 | 29.908 | 7.26 | 0.0 | 0 | 0.00 | 0.00 | 0.00 | 0.00 |
| 05/09/26 4:44:19 AM | 38 | 0.0 | 0.0 | 55 | 87 | 71.6 | 56.6 | 29.906 | 7.26 | 0.0 | 0 | 0.00 | 0.00 | 0.00 | 0.00 |
| 05/09/26 4:45:32 AM | 32 | 0.0 | 0.0 | 55 | 87 | 71.5 | 56.5 | 29.906 | 7.26 | 0.0 | 0 | 0.00 | 0.00 | 0.00 | 0.00 |
| 05/09/26 4:46:24 AM | 38 | 0.0 | 0.0 | 55 | 87 | 71.6 | 56.6 | 29.907 | 7.26 | 0.0 | 0 | 0.00 | 0.00 | 0.00 | 0.00 |
| 05/09/26 4:47:31 AM | 38 | 0.0 | 0.0 | 55 | 87 | 71.5 | 56.6 | 29.905 | 7.26 | 0.0 | 0 | 0.00 | 0.00 | 0.00 | 0.00 |
| 05/09/26 4:48:23 AM | 36 | 0.0 | 0.0 | 55 | 87 | 71.5 | 56.6 | 29.905 | 7.26 | 0.0 | 0 | 0.00 | 0.00 | 0.00 | 0.00 |
| 05/09/26 4:49:36 AM | 38 | 0.0 | 0.0 | 55 | 87 | 71.5 | 56.6 | 29.905 | 7.26 | 0.0 | 0 | 0.00 | 0.00 | 0.00 | 0.00 |
| 05/09/26 4:50:28 AM | 38 | 0.0 | 0.0 | 55 | 87 | 71.5 | 56.5 | 29.907 | 7.26 | 0.0 | 0 | 0.00 | 0.00 | 0.00 | 0.00 |
| 05/09/26 4:51:20 AM | 38 | 0.0 | 0.0 | 55 | 87 | 71.5 | 56.5 | 29.905 | 7.26 | 0.0 | 0 | 0.00 | 0.00 | 0.00 | 0.00 |
| 05/09/26 4:52:27 AM | 38 | 0.0 | 0.0 | 55 | 87 | 71.5 | 56.5 | 29.908 | 7.26 | 0.0 | 0 | 0.00 | 0.00 | 0.00 | 0.00 |
| 05/09/26 4:53:19 AM | 31 | 0.0 | 0.0 | 55 | 87 | 71.5 | 56.5 | 29.908 | 7.26 | 0.0 | 0 | 0.00 | 0.00 | 0.00 | 0.00 |
| 05/09/26 4:54:32 AM | 38 | 0.0 | 0.0 | 55 | 87 | 71.5 | 56.5 | 29.904 | 7.26 | 0.0 | 0 | 0.00 | 0.00 | 0.00 | 0.00 |
| 05/09/26 4:55:27 AM | 38 | 0.0 | 0.0 | 55 | 87 | 71.5 | 56.5 | 29.904 | 7.26 | 0.0 | 0 | 0.00 | 0.00 | 0.00 | 0.00 |
| 05/09/26 4:56:16 AM | 38 | 0.0 | 0.0 | 55 | 87 | 71.5 | 56.5 | 29.904 | 7.26 | 0.0 | 0 | 0.00 | 0.00 | 0.00 | 0.00 |
| 05/09/26 4:57:29 AM | 32 | 0.0 | 0.0 | 55 | 87 | 71.5 | 56.5 | 29.904 | 7.26 | 0.0 | 0 | 0.00 | 0.00 | 0.00 | 0.00 |
| 05/09/26 4:58:19 AM | 37 | 0.0 | 0.0 | 55 | 87 | 71.5 | 56.5 | 29.907 | 7.26 | 0.0 | 0 | 0.00 | 0.00 | 0.00 | 0.00 |
| 05/09/26 4:59:29 AM | 38 | 0.0 | 0.0 | 55 | 87 | 71.5 | 56.5 | 29.905 | 7.26 | 0.0 | 0 | 0.00 | 0.00 | 0.00 | 0.00 |
| 05/09/26 5:00:45 AM | 35 | 0.0 | 0.0 | 55 | 87 | 71.5 | 56.4 | 29.905 | 7.26 | 0.0 | 0 | 0.00 | 0.00 | 0.00 | 0.00 |
| 05/09/26 5:01:37 AM | 38 | 0.0 | 0.0 | 55 | 87 | 71.5 | 56.4 | 29.905 | 7.26 | 0.0 | 0 | 0.00 | 0.00 | 0.00 | 0.00 |
| 05/09/26 5:02:29 AM | 37 | 0.0 | 0.0 | 55 | 87 | 71.5 | 56.4 | 29.904 | 7.26 | 0.0 | 0 | 0.00 | 0.00 | 0.00 | 0.00 |
| 05/09/26 5:03:21 AM | 34 | 0.0 | 0.0 | 55 | 87 | 71.5 | 56.3 | 29.906 | 7.26 | 0.0 | 0 | 0.00 | 0.00 | 0.00 | 0.00 |
| 05/09/26 5:04:28 AM | 32 | 0.0 | 0.0 | 55 | 87 | 71.4 | 56.2 | 29.906 | 7.26 | 0.0 | 0 | 0.00 | 0.00 | 0.00 | 0.00 |
| 05/09/26 5:05:20 AM | 34 | 0.0 | 0.0 | 55 | 87 | 71.3 | 56.2 | 29.905 | 7.26 | 0.0 | 0 | 0.00 | 0.00 | 0.00 | 0.00 |
| 05/09/26 5:06:33 AM | 36 | 0.0 | 0.0 | 55 | 87 | 71.3 | 56.2 | 29.906 | 7.26 | 0.0 | 0 | 0.00 | 0.00 | 0.00 | 0.00 |
| 05/09/26 5:07:25 AM | 38 | 0.0 | 0.0 | 55 | 87 | 71.2 | 56.2 | 29.907 | 7.26 | 0.0 | 0 | 0.00 | 0.00 | 0.00 | 0.00 |
| 05/09/26 5:08:17 AM | 37 | 0.0 | 0.0 | 55 | 87 | 71.0 | 56.2 | 29.906 | 7.26 | 0.0 | 0 | 0.00 | 0.00 | 0.00 | 0.00 |
| 05/09/26 5:09:24 AM | 37 | 0.0 | 0.0 | 55 | 87 | 70.9 | 56.1 | 29.907 | 7.26 | 0.0 | 0 | 0.00 | 0.00 | 0.00 | 0.00 |
| 05/09/26 5:10:16 AM | 35 | 0.0 | 0.0 | 55 | 87 | 70.8 | 56.2 | 29.906 | 7.26 | 0.0 | 0 | 0.00 | 0.00 | 0.00 | 0.00 |
| 05/09/26 5:11:26 AM | 38 | 0.0 | 0.0 | 55 | 87 | 70.7 | 56.1 | 29.905 | 7.26 | 0.0 | 0 | 0.00 | 0.00 | 0.00 | 0.00 |
| 05/09/26 5:12:18 AM | 36 | 0.0 | 0.0 | 55 | 87 | 70.5 | 56.2 | 29.909 | 7.26 | 0.0 | 0 | 0.00 | 0.00 | 0.00 | 0.00 |
| 05/09/26 5:13:29 AM | 36 | 0.0 | 0.0 | 55 | 87 | 70.4 | 56.1 | 29.906 | 7.26 | 0.0 | 0 | 0.00 | 0.00 | 0.00 | 0.00 |
| 05/09/26 5:14:18 AM | 38 | 0.0 | 0.0 | 55 | 87 | 70.3 | 56.2 | 29.905 | 7.26 | 0.0 | 0 | 0.00 | 0.00 | 0.00 | 0.00 |
| 05/09/26 5:15:34 AM | 34 | 0.0 | 0.0 | 55 | 87 | 70.2 | 56.2 | 29.904 | 7.26 | 0.0 | 0 | 0.00 | 0.00 | 0.00 | 0.00 |
| 05/09/26 5:16:23 AM | 38 | 0.0 | 0.0 | 55 | 87 | 70.1 | 56.1 | 29.906 | 7.26 | 0.0 | 0 | 0.00 | 0.00 | 0.00 | 0.00 |
| 05/09/26 5:17:33 AM | 36 | 0.0 | 0.0 | 55 | 87 | 70.0 | 56.1 | 29.910 | 7.26 | 0.0 | 0 | 0.00 | 0.00 | 0.00 | 0.00 |
| 05/09/26 5:18:28 AM | 40 | 0.0 | 0.0 | 55 | 87 | 69.9 | 56.1 | 29.906 | 7.26 | 0.0 | 0 | 0.00 | 0.00 | 0.00 | 0.00 |
| 05/09/26 5:19:17 AM | 29 | 0.0 | 0.0 | 55 | 87 | 69.8 | 56.1 | 29.907 | 7.26 | 0.0 | 0 | 0.00 | 0.00 | 0.00 | 0.00 |
| 05/09/26 5:20:24 AM | 38 | 0.0 | 0.0 | 55 | 87 | 69.7 | 56.1 | 29.902 | 7.26 | 0.0 | 0 | 0.00 | 0.00 | 0.00 | 0.00 |
| 05/09/26 5:21:16 AM | 37 | 0.0 | 0.0 | 55 | 87 | 69.7 | 56.1 | 29.904 | 7.26 | 0.0 | 0 | 0.00 | 0.00 | 0.00 | 0.00 |
| 05/09/26 5:22:29 AM | 35 | 0.0 | 0.0 | 55 | 87 | 69.5 | 56.0 | 29.904 | 7.26 | 0.0 | 0 | 0.00 | 0.00 | 0.00 | 0.00 |
| 05/09/26 5:23:21 AM | 34 | 0.0 | 0.0 | 55 | 87 | 69.4 | 56.0 | 29.904 | 7.26 | 0.0 | 0 | 0.00 | 0.00 | 0.00 | 0.00 |
| 05/09/26 5:24:35 AM | 37 | 0.0 | 0.0 | 55 | 87 | 69.4 | 56.0 | 29.906 | 7.26 | 0.0 | 0 | 0.00 | 0.00 | 0.00 | 0.00 |
| 05/09/26 5:25:20 AM | 35 | 0.0 | 0.0 | 56 | 87 | 69.3 | 56.0 | 29.908 | 7.26 | 0.0 | 0 | 0.00 | 0.00 | 0.00 | 0.00 |
| 05/09/26 5:26:34 AM | 37 | 0.0 | 0.0 | 56 | 87 | 69.2 | 55.9 | 29.907 | 7.26 | 0.0 | 0 | 0.00 | 0.00 | 0.00 | 0.00 |
| 05/09/26 5:27:26 AM | 36 | 0.0 | 0.0 | 56 | 87 | 69.1 | 55.9 | 29.910 | 7.26 | 0.0 | 0 | 0.00 | 0.00 | 0.00 | 0.00 |
| 05/09/26 5:28:18 AM | 36 | 0.0 | 0.0 | 56 | 87 | 69.1 | 55.8 | 29.908 | 7.26 | 0.0 | 0 | 0.00 | 0.00 | 0.00 | 0.00 |
| 05/09/26 5:29:31 AM | 38 | 0.0 | 0.0 | 56 | 87 | 68.9 | 55.7 | 29.908 | 7.26 | 0.0 | 0 | 0.00 | 0.00 | 0.00 | 0.00 |
| 05/09/26 5:30:20 AM | 35 | 0.0 | 0.0 | 56 | 87 | 68.9 | 55.7 | 29.909 | 7.26 | 0.0 | 0 | 0.00 | 0.00 | 0.00 | 0.00 |
| 05/09/26 5:31:30 AM | 38 | 0.0 | 0.0 | 56 | 87 | 68.8 | 55.7 | 29.909 | 7.26 | 0.0 | 0 | 0.00 | 0.00 | 0.00 | 0.00 |
| 05/09/26 5:32:22 AM | 29 | 0.0 | 0.0 | 56 | 87 | 68.8 | 55.7 | 29.908 | 7.26 | 0.0 | 0 | 0.00 | 0.00 | 0.00 | 0.00 |
| 05/09/26 5:33:17 AM | 36 | 0.0 | 0.0 | 56 | 87 | 68.7 | 55.6 | 29.909 | 7.26 | 0.0 | 0 | 0.00 | 0.00 | 0.00 | 0.00 |
| 05/09/26 5:34:27 AM | 36 | 0.0 | 0.0 | 56 | 87 | 68.6 | 55.6 | 29.909 | 7.26 | 0.0 | 0 | 0.00 | 0.00 | 0.00 | 0.00 |
| 05/09/26 5:35:19 AM | 38 | 0.0 | 0.0 | 56 | 87 | 68.5 | 55.6 | 29.910 | 7.26 | 0.0 | 0 | 0.00 | 0.00 | 0.00 | 0.00 |
| 05/09/26 5:36:29 AM | 38 | 0.0 | 0.0 | 56 | 87 | 68.4 | 55.6 | 29.910 | 7.26 | 0.0 | 0 | 0.00 | 0.00 | 0.00 | 0.00 |
| 05/09/26 5:37:21 AM | 36 | 0.0 | 0.0 | 56 | 87 | 68.4 | 55.5 | 29.911 | 7.26 | 0.0 | 0 | 0.00 | 0.00 | 0.00 | 0.00 |
| 05/09/26 5:38:34 AM | 37 | 0.0 | 0.0 | 56 | 87 | 68.4 | 55.5 | 29.911 | 7.26 | 0.0 | 0 | 0.00 | 0.00 | 0.00 | 0.00 |
| 05/09/26 5:39:23 AM | 34 | 0.0 | 0.0 | 56 | 87 | 68.3 | 55.5 | 29.912 | 7.26 | 0.0 | 0 | 0.00 | 0.00 | 0.00 | 0.00 |
| 05/09/26 5:40:15 AM | 38 | 0.0 | 0.0 | 56 | 87 | 68.2 | 55.5 | 29.909 | 7.26 | 0.0 | 0 | 0.00 | 0.00 | 0.00 | 0.00 |
| 05/09/26 5:41:25 AM | 34 | 0.0 | 0.0 | 56 | 87 | 68.2 | 55.5 | 29.911 | 7.26 | 0.0 | 0 | 0.00 | 0.00 | 0.00 | 0.00 |
| 05/09/26 5:42:17 AM | 38 | 0.0 | 0.0 | 56 | 87 | 68.1 | 55.5 | 29.911 | 7.26 | 0.0 | 0 | 0.00 | 0.00 | 0.00 | 0.00 |
| 05/09/26 5:43:27 AM | 35 | 0.0 | 0.0 | 56 | 87 | 68.1 | 55.5 | 29.910 | 7.26 | 0.0 | 0 | 0.00 | 0.00 | 0.00 | 0.00 |
| 05/09/26 5:44:19 AM | 29 | 0.0 | 0.0 | 56 | 87 | 68.0 | 55.5 | 29.911 | 7.26 | 0.0 | 0 | 0.00 | 0.00 | 0.00 | 0.00 |
| 05/09/26 5:45:33 AM | 37 | 0.0 | 0.0 | 57 | 87 | 68.0 | 55.5 | 29.911 | 7.26 | 0.0 | 0 | 0.00 | 0.00 | 0.00 | 0.00 |
| 05/09/26 5:46:22 AM | 36 | 0.0 | 0.0 | 57 | 87 | 67.9 | 55.4 | 29.911 | 7.26 | 0.0 | 0 | 0.00 | 0.00 | 0.00 | 0.00 |
| 05/09/26 5:47:35 AM | 37 | 0.0 | 0.0 | 57 | 87 | 67.8 | 55.4 | 29.910 | 7.26 | 0.0 | 0 | 0.00 | 0.00 | 0.00 | 0.00 |
| 05/09/26 5:48:27 AM | 37 | 0.0 | 0.0 | 57 | 87 | 67.8 | 55.4 | 29.912 | 7.26 | 0.0 | 0 | 0.00 | 0.00 | 0.00 | 0.00 |
| 05/09/26 5:49:19 AM | 34 | 0.0 | 0.0 | 57 | 87 | 67.8 | 55.4 | 29.911 | 7.26 | 0.0 | 0 | 0.00 | 0.00 | 0.00 | 0.00 |
| 05/09/26 5:50:32 AM | 36 | 0.0 | 0.0 | 57 | 87 | 67.7 | 55.4 | 29.911 | 7.26 | 0.0 | 0 | 0.00 | 0.00 | 0.00 | 0.00 |
| 05/09/26 5:51:24 AM | 38 | 0.0 | 0.0 | 57 | 87 | 67.7 | 55.4 | 29.912 | 7.26 | 0.0 | 0 | 0.00 | 0.00 | 0.00 | 0.00 |
| 05/09/26 5:52:31 AM | 34 | 0.0 | 0.0 | 57 | 87 | 67.6 | 55.4 | 29.911 | 7.26 | 0.0 | 0 | 0.00 | 0.00 | 0.00 | 0.00 |
| 05/09/26 5:53:23 AM | 36 | 0.0 | 0.0 | 58 | 87 | 67.6 | 55.4 | 29.911 | 7.26 | 0.0 | 0 | 0.00 | 0.00 | 0.00 | 0.00 |
| 05/09/26 5:54:36 AM | 36 | 0.0 | 0.0 | 58 | 87 | 67.5 | 55.4 | 29.913 | 7.26 | 0.0 | 5 | 0.00 | 0.00 | 0.00 | 0.00 |
| 05/09/26 5:55:28 AM | 32 | 0.0 | 0.0 | 58 | 87 | 67.5 | 55.4 | 29.910 | 7.26 | 0.0 | 5 | 0.00 | 0.00 | 0.00 | 0.00 |
| 05/09/26 5:56:20 AM | 37 | 0.0 | 0.0 | 58 | 87 | 67.4 | 55.4 | 29.911 | 7.26 | 0.0 | 5 | 0.00 | 0.00 | 0.00 | 0.00 |
| 05/09/26 5:57:27 AM | 37 | 0.0 | 0.0 | 58 | 87 | 67.4 | 55.4 | 29.912 | 7.26 | 0.0 | 5 | 0.00 | 0.00 | 0.00 | 0.00 |
| 05/09/26 5:58:19 AM | 36 | 0.0 | 0.0 | 58 | 87 | 67.3 | 55.4 | 29.912 | 7.26 | 0.0 | 5 | 0.00 | 0.00 | 0.00 | 0.00 |
| 05/09/26 5:59:32 AM | 36 | 0.0 | 0.0 | 58 | 87 | 67.3 | 55.4 | 29.912 | 7.26 | 0.0 | 5 | 0.00 | 0.00 | 0.00 | 0.00 |
| 05/09/26 6:00:45 AM | 36 | 0.0 | 0.0 | 58 | 87 | 67.3 | 55.4 | 29.910 | 7.26 | 0.0 | 7 | 0.00 | 0.00 | 0.00 | 0.00 |
| 05/09/26 6:01:16 AM | 36 | 0.0 | 0.0 | 58 | 87 | 67.2 | 55.4 | 29.912 | 7.26 | 0.0 | 7 | 0.00 | 0.00 | 0.00 | 0.00 |
| 05/09/26 6:02:29 AM | 36 | 0.0 | 0.0 | 58 | 87 | 67.2 | 55.4 | 29.913 | 7.26 | 0.0 | 7 | 0.00 | 0.00 | 0.00 | 0.00 |
| 05/09/26 6:03:16 AM | 36 | 0.0 | 0.0 | 58 | 87 | 67.2 | 55.4 | 29.913 | 7.26 | 0.0 | 7 | 0.00 | 0.00 | 0.00 | 0.00 |
| 05/09/26 6:04:29 AM | 38 | 0.0 | 0.0 | 58 | 87 | 67.2 | 55.4 | 29.911 | 7.26 | 0.0 | 9 | 0.00 | 0.00 | 0.00 | 0.00 |
| 05/09/26 6:05:21 AM | 35 | 0.0 | 0.0 | 58 | 87 | 67.1 | 55.4 | 29.913 | 7.26 | 0.0 | 9 | 0.00 | 0.00 | 0.00 | 0.00 |
| 05/09/26 6:06:34 AM | 38 | 0.0 | 0.0 | 58 | 87 | 67.0 | 55.4 | 29.915 | 7.26 | 0.0 | 9 | 0.00 | 0.00 | 0.00 | 0.00 |
| 05/09/26 6:07:26 AM | 32 | 0.0 | 0.0 | 58 | 87 | 67.1 | 55.4 | 29.914 | 7.26 | 0.0 | 9 | 0.00 | 0.00 | 0.00 | 0.00 |
| 05/09/26 6:08:33 AM | 38 | 0.0 | 0.0 | 58 | 87 | 67.0 | 55.4 | 29.916 | 7.26 | 0.0 | 9 | 0.00 | 0.00 | 0.00 | 0.00 |
| 05/09/26 6:09:25 AM | 37 | 0.0 | 0.0 | 58 | 88 | 66.9 | 55.5 | 29.917 | 7.26 | 0.0 | 11 | 0.00 | 0.00 | 0.00 | 0.00 |
| 05/09/26 6:10:20 AM | 36 | 0.0 | 0.0 | 58 | 88 | 66.9 | 55.5 | 29.918 | 7.26 | 0.0 | 11 | 0.00 | 0.00 | 0.00 | 0.00 |
| 05/09/26 6:11:30 AM | 37 | 0.0 | 0.0 | 59 | 88 | 66.9 | 55.5 | 29.917 | 7.26 | 0.0 | 11 | 0.00 | 0.00 | 0.00 | 0.00 |
| 05/09/26 6:12:22 AM | 35 | 0.0 | 0.0 | 59 | 88 | 66.8 | 55.5 | 29.917 | 7.26 | 0.0 | 12 | 0.00 | 0.00 | 0.00 | 0.00 |
| 05/09/26 6:13:33 AM | 34 | 0.0 | 0.0 | 59 | 88 | 66.8 | 55.5 | 29.915 | 7.26 | 0.0 | 12 | 0.00 | 0.00 | 0.00 | 0.00 |
| 05/09/26 6:14:25 AM | 35 | 0.0 | 0.0 | 59 | 88 | 66.8 | 55.5 | 29.915 | 7.26 | 0.0 | 12 | 0.00 | 0.00 | 0.00 | 0.00 |
| 05/09/26 6:15:38 AM | 37 | 0.0 | 0.0 | 59 | 88 | 66.8 | 55.6 | 29.916 | 7.26 | 0.0 | 14 | 0.00 | 0.00 | 0.00 | 0.00 |
| 05/09/26 6:16:27 AM | 34 | 0.0 | 0.0 | 59 | 88 | 66.7 | 55.6 | 29.915 | 7.26 | 0.0 | 14 | 0.00 | 0.00 | 0.00 | 0.00 |
| 05/09/26 6:17:19 AM | 32 | 0.0 | 0.0 | 59 | 88 | 66.7 | 55.6 | 29.915 | 7.26 | 0.0 | 16 | 0.00 | 0.00 | 0.00 | 0.00 |
| 05/09/26 6:18:32 AM | 36 | 0.0 | 0.0 | 59 | 88 | 66.6 | 55.6 | 29.916 | 7.26 | 0.0 | 16 | 0.00 | 0.00 | 0.00 | 0.00 |
| 05/09/26 6:19:21 AM | 38 | 0.0 | 0.0 | 59 | 88 | 66.6 | 55.6 | 29.914 | 7.26 | 0.0 | 18 | 0.00 | 0.00 | 0.00 | 0.00 |
| 05/09/26 6:20:34 AM | 37 | 0.0 | 0.0 | 59 | 88 | 66.6 | 55.6 | 29.917 | 7.26 | 0.0 | 18 | 0.00 | 0.00 | 0.00 | 0.00 |
| 05/09/26 6:21:26 AM | 38 | 0.0 | 0.0 | 59 | 88 | 66.5 | 55.6 | 29.918 | 7.26 | 0.0 | 19 | 0.00 | 0.00 | 0.00 | 0.00 |
| 05/09/26 6:22:15 AM | 34 | 0.0 | 0.0 | 59 | 88 | 66.5 | 55.6 | 29.918 | 7.26 | 0.0 | 19 | 0.00 | 0.00 | 0.00 | 0.00 |
| 05/09/26 6:23:28 AM | 32 | 0.0 | 0.0 | 59 | 88 | 66.5 | 55.6 | 29.917 | 7.26 | 0.0 | 21 | 0.00 | 0.00 | 0.00 | 0.00 |
| 05/09/26 6:24:35 AM | 36 | 0.0 | 0.0 | 59 | 88 | 66.5 | 55.6 | 29.918 | 7.26 | 0.0 | 28 | 0.00 | 0.00 | 0.00 | 0.00 |
| 05/09/26 6:25:27 AM | 34 | 0.0 | 0.0 | 59 | 88 | 66.5 | 55.6 | 29.920 | 7.26 | 0.0 | 28 | 0.00 | 0.00 | 0.00 | 0.00 |
| 05/09/26 6:26:19 AM | 38 | 0.0 | 0.0 | 59 | 88 | 66.4 | 55.6 | 29.922 | 7.26 | 0.0 | 33 | 0.00 | 0.00 | 0.00 | 0.00 |
| 05/09/26 6:27:33 AM | 34 | 0.0 | 0.0 | 59 | 88 | 66.4 | 55.6 | 29.922 | 7.26 | 0.0 | 35 | 0.00 | 0.00 | 0.00 | 0.00 |
| 05/09/26 6:28:25 AM | 34 | 0.0 | 0.0 | 60 | 88 | 66.4 | 55.6 | 29.921 | 7.26 | 0.0 | 35 | 0.00 | 0.00 | 0.00 | 0.00 |
| 05/09/26 6:29:17 AM | 35 | 0.0 | 0.0 | 60 | 88 | 66.3 | 55.6 | 29.922 | 7.26 | 0.0 | 39 | 0.00 | 0.00 | 0.00 | 0.00 |
| 05/09/26 6:30:27 AM | 34 | 0.0 | 0.0 | 60 | 88 | 66.3 | 55.6 | 29.923 | 7.26 | 0.0 | 40 | 0.00 | 0.00 | 0.00 | 0.00 |
| 05/09/26 6:31:37 AM | 32 | 0.0 | 0.0 | 60 | 88 | 66.3 | 55.6 | 29.923 | 7.26 | 0.0 | 42 | 0.00 | 0.00 | 0.00 | 0.00 |
| 05/09/26 6:32:29 AM | 35 | 0.0 | 0.0 | 60 | 88 | 66.3 | 55.6 | 29.920 | 7.26 | 0.0 | 44 | 0.00 | 0.00 | 0.00 | 0.00 |
| 05/09/26 6:33:21 AM | 37 | 0.0 | 0.0 | 60 | 88 | 66.3 | 55.6 | 29.920 | 7.26 | 0.0 | 46 | 0.00 | 0.00 | 0.00 | 0.00 |
| 05/09/26 6:34:31 AM | 37 | 0.0 | 0.0 | 60 | 88 | 66.3 | 55.7 | 29.922 | 7.26 | 0.0 | 47 | 0.00 | 0.00 | 0.00 | 0.00 |
| 05/09/26 6:35:20 AM | 38 | 0.0 | 0.0 | 60 | 88 | 66.3 | 55.7 | 29.921 | 7.26 | 0.0 | 49 | 0.00 | 0.00 | 0.00 | 0.00 |
| 05/09/26 6:36:30 AM | 34 | 0.0 | 0.0 | 60 | 88 | 66.2 | 55.7 | 29.922 | 7.26 | 0.0 | 49 | 0.00 | 0.00 | 0.00 | 0.00 |
| 05/09/26 6:37:25 AM | 35 | 0.0 | 0.0 | 60 | 88 | 66.2 | 55.8 | 29.920 | 7.26 | 0.0 | 51 | 0.00 | 0.00 | 0.00 | 0.00 |
| 05/09/26 6:38:17 AM | 37 | 0.0 | 0.0 | 60 | 88 | 66.2 | 55.8 | 29.922 | 7.26 | 0.0 | 53 | 0.00 | 0.00 | 0.00 | 0.00 |
| 05/09/26 6:39:27 AM | 34 | 0.0 | 0.0 | 60 | 88 | 66.2 | 55.8 | 29.923 | 7.26 | 0.0 | 56 | 0.00 | 0.00 | 0.00 | 0.00 |
| 05/09/26 6:40:38 AM | 38 | 0.0 | 0.0 | 60 | 88 | 66.2 | 55.9 | 29.923 | 7.26 | 0.0 | 58 | 0.00 | 0.00 | 0.00 | 0.00 |
| 05/09/26 6:41:30 AM | 37 | 0.0 | 0.0 | 60 | 88 | 66.2 | 55.9 | 29.920 | 7.26 | 0.0 | 62 | 0.00 | 0.00 | 0.00 | 0.00 |
| 05/09/26 6:42:22 AM | 37 | 0.0 | 0.0 | 60 | 88 | 66.1 | 56.0 | 29.920 | 7.26 | 0.0 | 62 | 0.00 | 0.00 | 0.00 | 0.00 |
| 05/09/26 6:43:35 AM | 32 | 0.0 | 0.0 | 60 | 88 | 66.1 | 56.0 | 29.921 | 7.26 | 0.0 | 65 | 0.00 | 0.00 | 0.00 | 0.00 |
| 05/09/26 6:44:27 AM | 35 | 0.0 | 0.0 | 60 | 89 | 66.1 | 56.1 | 29.925 | 7.26 | 0.0 | 70 | 0.00 | 0.00 | 0.00 | 0.00 |
| 05/09/26 6:45:40 AM | 37 | 0.0 | 0.0 | 60 | 89 | 66.2 | 56.1 | 29.923 | 7.26 | 0.0 | 74 | 0.00 | 0.00 | 0.00 | 0.00 |
| 05/09/26 6:46:29 AM | 37 | 0.0 | 0.0 | 60 | 89 | 66.1 | 56.2 | 29.924 | 7.26 | 0.0 | 77 | 0.00 | 0.00 | 0.00 | 0.00 |
| 05/09/26 6:47:18 AM | 32 | 0.0 | 0.0 | 60 | 89 | 66.1 | 56.2 | 29.923 | 7.26 | 0.0 | 81 | 0.00 | 0.00 | 0.00 | 0.00 |
| 05/09/26 6:48:31 AM | 36 | 0.0 | 0.0 | 60 | 89 | 66.1 | 56.3 | 29.925 | 7.26 | 0.0 | 84 | 0.00 | 0.00 | 0.00 | 0.00 |
| 05/09/26 6:49:23 AM | 34 | 0.0 | 0.0 | 60 | 88 | 66.1 | 56.3 | 29.922 | 7.26 | 0.0 | 88 | 0.00 | 0.00 | 0.00 | 0.00 |
| 05/09/26 6:50:19 AM | 35 | 0.0 | 0.0 | 60 | 88 | 66.1 | 56.3 | 29.922 | 7.26 | 0.0 | 91 | 0.00 | 0.00 | 0.00 | 0.00 |
| 05/09/26 6:51:26 AM | 36 | 0.0 | 0.0 | 60 | 88 | 66.1 | 56.4 | 29.922 | 7.26 | 0.0 | 91 | 0.00 | 0.00 | 0.00 | 0.00 |
| 05/09/26 6:52:18 AM | 38 | 0.0 | 0.0 | 60 | 88 | 66.1 | 56.4 | 29.923 | 7.26 | 0.0 | 97 | 0.00 | 0.00 | 0.00 | 0.00 |
| 05/09/26 6:53:28 AM | 36 | 0.0 | 0.0 | 60 | 89 | 66.1 | 56.5 | 29.921 | 7.26 | 0.0 | 100 | 0.00 | 0.00 | 0.00 | 0.00 |
| 05/09/26 6:54:20 AM | 38 | 0.0 | 0.0 | 60 | 89 | 66.1 | 56.6 | 29.923 | 7.26 | 0.0 | 102 | 0.00 | 0.00 | 0.00 | 0.00 |
| 05/09/26 6:55:33 AM | 35 | 0.0 | 0.0 | 60 | 89 | 66.1 | 56.7 | 29.919 | 7.26 | 0.0 | 109 | 0.00 | 0.00 | 0.00 | 0.00 |
| 05/09/26 6:56:28 AM | 38 | 0.0 | 0.0 | 61 | 89 | 66.1 | 56.8 | 29.922 | 7.26 | 0.0 | 109 | 0.00 | 0.00 | 0.00 | 0.00 |
| 05/09/26 6:57:35 AM | 38 | 0.0 | 0.0 | 61 | 89 | 66.1 | 56.9 | 29.922 | 7.26 | 0.0 | 114 | 0.00 | 0.00 | 0.00 | 0.00 |
| 05/09/26 6:58:28 AM | 37 | 0.0 | 0.0 | 61 | 89 | 66.1 | 57.0 | 29.920 | 7.26 | 0.0 | 116 | 0.00 | 0.00 | 0.00 | 0.00 |
| 05/09/26 6:59:20 AM | 37 | 0.0 | 0.0 | 61 | 89 | 66.1 | 57.1 | 29.922 | 7.26 | 0.0 | 120 | 0.00 | 0.00 | 0.00 | 0.00 |
| 05/09/26 7:00:33 AM | 36 | 0.0 | 0.0 | 61 | 89 | 66.1 | 57.2 | 29.923 | 7.26 | 0.0 | 123 | 0.00 | 0.00 | 0.00 | 0.00 |
| 05/09/26 7:01:22 AM | 32 | 0.0 | 0.0 | 62 | 89 | 66.1 | 57.3 | 29.924 | 7.26 | 0.0 | 127 | 0.00 | 0.00 | 0.00 | 0.00 |
| 05/09/26 7:02:29 AM | 38 | 0.0 | 0.0 | 62 | 89 | 66.1 | 57.5 | 29.922 | 7.26 | 0.0 | 130 | 0.00 | 0.00 | 0.00 | 0.00 |
| 05/09/26 7:03:21 AM | 37 | 0.0 | 0.0 | 62 | 89 | 66.1 | 57.6 | 29.924 | 7.26 | 0.0 | 134 | 0.00 | 0.00 | 0.00 | 0.00 |
| 05/09/26 7:04:34 AM | 38 | 0.0 | 0.0 | 62 | 89 | 66.2 | 57.7 | 29.923 | 7.26 | 0.0 | 137 | 0.00 | 0.00 | 0.00 | 0.00 |
| 05/09/26 7:05:26 AM | 36 | 0.0 | 0.0 | 63 | 89 | 66.2 | 57.8 | 29.923 | 7.26 | 0.0 | 141 | 0.00 | 0.00 | 0.00 | 0.00 |
| 05/09/26 7:06:18 AM | 35 | 0.0 | 0.0 | 63 | 89 | 66.2 | 58.0 | 29.922 | 7.26 | 0.0 | 142 | 0.00 | 0.00 | 0.00 | 0.00 |
| 05/09/26 7:07:25 AM | 35 | 0.0 | 0.0 | 63 | 89 | 66.2 | 58.1 | 29.923 | 7.26 | 0.0 | 146 | 0.00 | 0.00 | 0.00 | 0.00 |
| 05/09/26 7:08:17 AM | 38 | 0.0 | 0.0 | 63 | 89 | 66.2 | 58.2 | 29.924 | 7.26 | 0.0 | 149 | 0.00 | 0.00 | 0.00 | 0.00 |
| 05/09/26 7:09:28 AM | 36 | 0.0 | 0.0 | 63 | 89 | 66.2 | 58.4 | 29.924 | 7.26 | 0.0 | 153 | 0.00 | 0.00 | 0.00 | 0.00 |
| 05/09/26 7:10:20 AM | 38 | 0.0 | 0.0 | 63 | 89 | 66.2 | 58.5 | 29.925 | 7.26 | 0.0 | 155 | 0.00 | 0.00 | 0.00 | 0.00 |
| 05/09/26 7:11:33 AM | 38 | 0.0 | 0.0 | 63 | 89 | 66.2 | 58.6 | 29.926 | 7.26 | 0.0 | 162 | 0.00 | 0.00 | 0.00 | 0.00 |
| 05/09/26 7:12:25 AM | 35 | 0.0 | 0.0 | 63 | 89 | 66.2 | 58.7 | 29.922 | 7.26 | 0.0 | 165 | 0.00 | 0.00 | 0.00 | 0.00 |
| 05/09/26 7:13:32 AM | 38 | 0.0 | 0.0 | 63 | 89 | 66.2 | 58.8 | 29.921 | 7.26 | 0.0 | 167 | 0.00 | 0.00 | 0.00 | 0.00 |
| 05/09/26 7:14:24 AM | 32 | 0.0 | 0.0 | 63 | 89 | 66.2 | 58.8 | 29.924 | 7.26 | 0.0 | 171 | 0.00 | 0.00 | 0.00 | 0.00 |
| 05/09/26 7:15:19 AM | 36 | 0.0 | 0.0 | 63 | 89 | 66.3 | 58.9 | 29.924 | 7.26 | 0.0 | 174 | 0.00 | 0.00 | 0.00 | 0.00 |
| 05/09/26 7:16:29 AM | 38 | 0.0 | 0.0 | 63 | 89 | 66.2 | 59.0 | 29.924 | 7.26 | 0.0 | 176 | 0.00 | 0.00 | 0.00 | 0.00 |
| 05/09/26 7:17:21 AM | 36 | 0.0 | 0.0 | 63 | 89 | 66.2 | 59.1 | 29.921 | 7.26 | 0.0 | 181 | 0.00 | 0.00 | 0.00 | 0.00 |
| 05/09/26 7:18:28 AM | 36 | 0.0 | 0.0 | 63 | 89 | 66.3 | 59.3 | 29.926 | 7.26 | 0.0 | 183 | 0.00 | 0.00 | 0.00 | 0.00 |
| 05/09/26 7:19:20 AM | 34 | 2.0 | 3.0 | 63 | 88 | 66.3 | 59.4 | 29.926 | 7.26 | 0.0 | 186 | 0.00 | 0.00 | 0.00 | 0.00 |
| 05/09/26 7:20:34 AM | 38 | 2.0 | 3.0 | 63 | 88 | 66.2 | 59.5 | 29.922 | 7.26 | 0.0 | 190 | 0.00 | 0.00 | 0.00 | 0.00 |
| 05/09/26 7:21:26 AM | 36 | 3.0 | 4.0 | 63 | 88 | 66.3 | 59.5 | 29.922 | 7.26 | 0.0 | 193 | 0.00 | 0.00 | 0.00 | 0.00 |
| 05/09/26 7:22:18 AM | 38 | 3.0 | 4.0 | 63 | 88 | 66.3 | 59.6 | 29.925 | 7.26 | 0.0 | 197 | 0.00 | 0.00 | 0.00 | 0.00 |
| 05/09/26 7:23:25 AM | 32 | 2.0 | 4.0 | 64 | 88 | 66.3 | 59.7 | 29.925 | 7.26 | 0.0 | 202 | 0.00 | 0.00 | 0.00 | 0.00 |
| 05/09/26 7:24:17 AM | 37 | 1.0 | 4.0 | 64 | 88 | 66.3 | 59.7 | 29.926 | 7.26 | 0.0 | 207 | 0.00 | 0.00 | 0.00 | 0.00 |
| 05/09/26 7:25:30 AM | 38 | 1.0 | 4.0 | 64 | 87 | 66.3 | 59.8 | 29.926 | 7.26 | 0.0 | 211 | 0.00 | 0.00 | 0.00 | 0.00 |
| 05/09/26 7:26:22 AM | 32 | 1.0 | 4.0 | 64 | 87 | 66.4 | 59.8 | 29.923 | 7.26 | 0.0 | 214 | 0.00 | 0.00 | 0.00 | 0.00 |
| 05/09/26 7:27:35 AM | 35 | 1.0 | 4.0 | 64 | 87 | 66.4 | 59.9 | 29.926 | 7.26 | 0.0 | 221 | 0.00 | 0.00 | 0.00 | 0.00 |
| 05/09/26 7:28:28 AM | 38 | 1.0 | 4.0 | 64 | 87 | 66.4 | 60.0 | 29.926 | 7.26 | 0.0 | 221 | 0.00 | 0.00 | 0.00 | 0.00 |
| 05/09/26 7:29:35 AM | 30 | 2.0 | 4.0 | 64 | 87 | 66.4 | 60.0 | 29.927 | 7.26 | 0.0 | 221 | 0.00 | 0.00 | 0.00 | 0.00 |
| 05/09/26 7:30:30 AM | 36 | 2.0 | 4.0 | 64 | 87 | 66.4 | 60.1 | 29.924 | 7.26 | 0.0 | 230 | 0.00 | 0.00 | 0.00 | 0.00 |
| 05/09/26 7:31:19 AM | 38 | 1.0 | 4.0 | 64 | 87 | 66.5 | 60.1 | 29.924 | 7.26 | 0.0 | 234 | 0.00 | 0.00 | 0.00 | 0.00 |
| 05/09/26 7:32:32 AM | 38 | 0.0 | 4.0 | 64 | 87 | 66.4 | 60.2 | 29.924 | 7.26 | 0.0 | 236 | 0.00 | 0.00 | 0.00 | 0.00 |
| 05/09/26 7:33:27 AM | 38 | 0.0 | 4.0 | 64 | 87 | 66.4 | 60.3 | 29.924 | 7.26 | 0.0 | 239 | 0.00 | 0.00 | 0.00 | 0.00 |
| 05/09/26 7:34:34 AM | 35 | 0.0 | 4.0 | 64 | 86 | 66.5 | 60.4 | 29.923 | 7.26 | 0.5 | 243 | 0.00 | 0.00 | 0.00 | 0.00 |
| 05/09/26 7:35:26 AM | 38 | 0.0 | 4.0 | 64 | 86 | 66.5 | 60.4 | 29.922 | 7.26 | 0.5 | 246 | 0.00 | 0.00 | 0.00 | 0.00 |
| 05/09/26 7:36:15 AM | 35 | 0.0 | 4.0 | 64 | 87 | 66.5 | 60.5 | 29.923 | 7.26 | 0.5 | 248 | 0.00 | 0.00 | 0.00 | 0.00 |
| 05/09/26 7:37:29 AM | 32 | 0.0 | 4.0 | 64 | 86 | 66.5 | 60.7 | 29.922 | 7.26 | 0.5 | 251 | 0.00 | 0.00 | 0.00 | 0.00 |
| 05/09/26 7:38:21 AM | 38 | 0.0 | 4.0 | 64 | 86 | 66.5 | 60.8 | 29.923 | 7.26 | 0.5 | 251 | 0.00 | 0.00 | 0.00 | 0.00 |
| 05/09/26 7:39:31 AM | 39 | 0.0 | 4.0 | 64 | 86 | 66.5 | 60.9 | 29.924 | 7.26 | 0.5 | 258 | 0.00 | 0.00 | 0.00 | 0.00 |
| 05/09/26 7:40:23 AM | 38 | 0.0 | 4.0 | 64 | 86 | 66.5 | 61.0 | 29.921 | 7.26 | 0.5 | 262 | 0.00 | 0.00 | 0.00 | 0.00 |
| 05/09/26 7:41:33 AM | 36 | 0.0 | 4.0 | 64 | 86 | 66.5 | 61.1 | 29.924 | 7.26 | 0.5 | 267 | 0.00 | 0.00 | 0.00 | 0.00 |
| 05/09/26 7:42:28 AM | 39 | 0.0 | 4.0 | 64 | 86 | 66.5 | 61.2 | 29.927 | 7.26 | 0.5 | 271 | 0.00 | 0.00 | 0.00 | 0.00 |
| 05/09/26 7:43:20 AM | 32 | 0.0 | 4.0 | 64 | 85 | 66.5 | 61.3 | 29.924 | 7.26 | 0.6 | 274 | 0.00 | 0.00 | 0.00 | 0.00 |
| 05/09/26 7:44:33 AM | 35 | 0.0 | 4.0 | 64 | 85 | 66.5 | 61.4 | 29.926 | 7.26 | 0.6 | 276 | 0.00 | 0.00 | 0.00 | 0.00 |
| 05/09/26 7:45:22 AM | 38 | 0.0 | 4.0 | 64 | 85 | 66.5 | 61.5 | 29.924 | 7.26 | 0.6 | 279 | 0.00 | 0.00 | 0.00 | 0.00 |
| 05/09/26 7:46:32 AM | 38 | 0.0 | 4.0 | 64 | 85 | 66.6 | 61.6 | 29.925 | 7.26 | 0.6 | 281 | 0.00 | 0.00 | 0.00 | 0.00 |
| 05/09/26 7:47:24 AM | 37 | 0.0 | 4.0 | 64 | 85 | 66.6 | 61.7 | 29.926 | 7.26 | 0.6 | 283 | 0.00 | 0.00 | 0.00 | 0.00 |
| 05/09/26 7:48:16 AM | 36 | 0.0 | 4.0 | 64 | 85 | 66.6 | 61.8 | 29.923 | 7.26 | 0.6 | 287 | 0.00 | 0.00 | 0.00 | 0.00 |
| 05/09/26 7:49:30 AM | 36 | 0.0 | 4.0 | 64 | 84 | 66.6 | 61.9 | 29.927 | 7.26 | 0.6 | 292 | 0.00 | 0.00 | 0.00 | 0.00 |
| 05/09/26 7:50:16 AM | 31 | 0.0 | 4.0 | 64 | 84 | 66.6 | 62.0 | 29.927 | 7.26 | 0.7 | 295 | 0.00 | 0.00 | 0.00 | 0.00 |
| 05/09/26 7:51:29 AM | 35 | 0.0 | 4.0 | 64 | 84 | 66.6 | 62.1 | 29.927 | 7.26 | 0.7 | 299 | 0.00 | 0.00 | 0.00 | 0.00 |
| 05/09/26 7:52:21 AM | 38 | 3.0 | 4.0 | 64 | 84 | 66.7 | 62.2 | 29.925 | 7.26 | 0.7 | 302 | 0.00 | 0.00 | 0.00 | 0.00 |
| 05/09/26 7:53:31 AM | 36 | 1.0 | 4.0 | 64 | 83 | 66.7 | 62.3 | 29.928 | 7.26 | 0.7 | 306 | 0.00 | 0.00 | 0.00 | 0.00 |
| 05/09/26 7:54:23 AM | 31 | 1.0 | 4.0 | 64 | 83 | 66.7 | 62.4 | 29.927 | 7.26 | 0.7 | 306 | 0.00 | 0.00 | 0.00 | 0.00 |
| 05/09/26 7:55:33 AM | 36 | 0.0 | 4.0 | 64 | 83 | 66.8 | 62.5 | 29.928 | 7.26 | 0.7 | 315 | 0.00 | 0.00 | 0.00 | 0.00 |
| 05/09/26 7:56:25 AM | 38 | 2.0 | 4.0 | 64 | 82 | 66.8 | 62.5 | 29.929 | 7.26 | 0.7 | 315 | 0.00 | 0.00 | 0.00 | 0.00 |
| 05/09/26 7:57:18 AM | 38 | 1.0 | 4.0 | 64 | 82 | 66.8 | 62.6 | 29.927 | 7.26 | 0.7 | 318 | 0.00 | 0.00 | 0.00 | 0.00 |
| 05/09/26 7:58:28 AM | 38 | 1.0 | 4.0 | 64 | 82 | 66.8 | 62.7 | 29.931 | 7.26 | 0.8 | 325 | 0.00 | 0.00 | 0.00 | 0.00 |
| 05/09/26 7:59:23 AM | 37 | 2.0 | 4.0 | 64 | 82 | 66.8 | 62.9 | 29.928 | 7.26 | 0.8 | 329 | 0.00 | 0.00 | 0.00 | 0.00 |
| 05/09/26 8:00:36 AM | 36 | 2.0 | 4.0 | 64 | 82 | 66.9 | 63.0 | 29.929 | 7.26 | 0.8 | 330 | 0.00 | 0.00 | 0.00 | 0.00 |
| 05/09/26 8:01:22 AM | 32 | 1.0 | 4.0 | 64 | 81 | 66.9 | 63.1 | 29.930 | 7.26 | 0.8 | 336 | 0.00 | 0.00 | 0.00 | 0.00 |
| 05/09/26 8:02:32 AM | 35 | 1.0 | 4.0 | 64 | 81 | 66.8 | 63.2 | 29.930 | 7.26 | 0.8 | 339 | 0.00 | 0.00 | 0.00 | 0.00 |
| 05/09/26 8:03:27 AM | 35 | 2.0 | 4.0 | 64 | 81 | 66.9 | 63.2 | 29.929 | 7.26 | 0.8 | 343 | 0.00 | 0.00 | 0.00 | 0.00 |
| 05/09/26 8:04:19 AM | 38 | 2.0 | 4.0 | 64 | 81 | 66.9 | 63.4 | 29.930 | 7.26 | 0.9 | 346 | 0.00 | 0.00 | 0.00 | 0.00 |
| 05/09/26 8:05:29 AM | 36 | 2.0 | 4.0 | 64 | 80 | 66.9 | 63.4 | 29.930 | 7.26 | 0.9 | 350 | 0.00 | 0.00 | 0.00 | 0.00 |
| 05/09/26 8:06:18 AM | 37 | 2.0 | 4.0 | 64 | 80 | 67.0 | 63.5 | 29.929 | 7.26 | 0.9 | 353 | 0.00 | 0.00 | 0.00 | 0.00 |
| 05/09/26 8:07:29 AM | 34 | 0.0 | 4.0 | 64 | 79 | 67.0 | 63.6 | 29.930 | 7.26 | 0.9 | 355 | 0.00 | 0.00 | 0.00 | 0.00 |
| 05/09/26 8:08:21 AM | 38 | 0.0 | 4.0 | 64 | 79 | 67.0 | 63.6 | 29.931 | 7.26 | 0.9 | 359 | 0.00 | 0.00 | 0.00 | 0.00 |
| 05/09/26 8:09:34 AM | 38 | 0.0 | 4.0 | 64 | 79 | 67.0 | 63.7 | 29.931 | 7.26 | 0.9 | 367 | 0.00 | 0.00 | 0.00 | 0.00 |
| 05/09/26 8:10:26 AM | 35 | 0.0 | 4.0 | 64 | 79 | 67.0 | 63.8 | 29.930 | 7.26 | 0.9 | 367 | 0.00 | 0.00 | 0.00 | 0.00 |
| 05/09/26 8:11:21 AM | 37 | 1.0 | 4.0 | 64 | 79 | 67.1 | 63.8 | 29.930 | 7.26 | 1.0 | 369 | 0.00 | 0.00 | 0.00 | 0.00 |
| 05/09/26 8:12:28 AM | 38 | 1.0 | 4.0 | 64 | 78 | 67.0 | 63.9 | 29.930 | 7.26 | 1.0 | 378 | 0.00 | 0.00 | 0.00 | 0.00 |
| 05/09/26 8:13:20 AM | 32 | 1.0 | 4.0 | 64 | 78 | 67.0 | 64.0 | 29.931 | 7.26 | 1.0 | 381 | 0.00 | 0.00 | 0.00 | 0.00 |
| 05/09/26 8:14:33 AM | 34 | 0.0 | 4.0 | 64 | 78 | 67.0 | 64.2 | 29.933 | 7.26 | 1.0 | 385 | 0.00 | 0.00 | 0.00 | 0.00 |
| 05/09/26 8:15:28 AM | 34 | 0.0 | 4.0 | 64 | 78 | 67.1 | 64.3 | 29.930 | 7.26 | 1.0 | 387 | 0.00 | 0.00 | 0.00 | 0.00 |
| 05/09/26 8:16:17 AM | 37 | 0.0 | 4.0 | 64 | 78 | 67.1 | 64.3 | 29.931 | 7.26 | 1.0 | 387 | 0.00 | 0.00 | 0.00 | 0.00 |
| 05/09/26 8:17:24 AM | 36 | 2.0 | 4.0 | 64 | 78 | 67.1 | 64.5 | 29.931 | 7.26 | 1.1 | 394 | 0.00 | 0.00 | 0.00 | 0.00 |
| 05/09/26 8:18:17 AM | 32 | 2.0 | 4.0 | 64 | 77 | 67.1 | 64.6 | 29.930 | 7.26 | 1.1 | 397 | 0.00 | 0.00 | 0.00 | 0.00 |
| 05/09/26 8:19:27 AM | 37 | 1.0 | 4.0 | 64 | 76 | 67.2 | 64.7 | 29.930 | 7.26 | 1.1 | 401 | 0.00 | 0.00 | 0.00 | 0.00 |
| 05/09/26 8:20:19 AM | 38 | 1.0 | 4.0 | 64 | 76 | 67.2 | 64.8 | 29.929 | 7.26 | 1.1 | 406 | 0.00 | 0.00 | 0.00 | 0.00 |
| 05/09/26 8:21:32 AM | 38 | 1.0 | 4.0 | 64 | 75 | 67.2 | 65.0 | 29.929 | 7.26 | 1.1 | 408 | 0.00 | 0.00 | 0.00 | 0.00 |
| 05/09/26 8:22:21 AM | 36 | 2.0 | 4.0 | 64 | 75 | 67.2 | 65.1 | 29.930 | 7.26 | 1.2 | 408 | 0.00 | 0.00 | 0.00 | 0.00 |
| 05/09/26 8:23:34 AM | 36 | 2.0 | 4.0 | 64 | 75 | 67.2 | 65.2 | 29.930 | 7.26 | 1.2 | 413 | 0.00 | 0.00 | 0.00 | 0.00 |
| 05/09/26 8:24:26 AM | 38 | 1.0 | 4.0 | 64 | 75 | 67.2 | 65.3 | 29.930 | 7.26 | 1.2 | 413 | 0.00 | 0.00 | 0.00 | 0.00 |
| 05/09/26 8:25:18 AM | 34 | 1.0 | 4.0 | 64 | 75 | 67.3 | 65.4 | 29.928 | 7.26 | 1.2 | 420 | 0.00 | 0.00 | 0.00 | 0.00 |
| 05/09/26 8:26:28 AM | 34 | 2.0 | 4.0 | 64 | 74 | 67.3 | 65.6 | 29.925 | 7.26 | 1.2 | 425 | 0.00 | 0.00 | 0.00 | 0.00 |
| 05/09/26 8:27:21 AM | 35 | 0.0 | 4.0 | 64 | 74 | 67.3 | 65.7 | 29.929 | 7.26 | 1.2 | 425 | 0.00 | 0.00 | 0.00 | 0.00 |
| 05/09/26 8:28:28 AM | 32 | 2.0 | 4.0 | 64 | 73 | 67.4 | 65.8 | 29.928 | 7.26 | 1.3 | 434 | 0.00 | 0.00 | 0.00 | 0.00 |
| 05/09/26 8:29:20 AM | 36 | 1.0 | 4.0 | 64 | 73 | 67.4 | 65.9 | 29.926 | 7.26 | 1.3 | 438 | 0.00 | 0.00 | 0.00 | 0.00 |
| 05/09/26 8:30:33 AM | 35 | 1.0 | 4.0 | 64 | 73 | 67.4 | 66.1 | 29.926 | 7.26 | 1.3 | 441 | 0.00 | 0.00 | 0.00 | 0.00 |
| 05/09/26 8:31:25 AM | 38 | 1.0 | 4.0 | 64 | 72 | 67.4 | 66.2 | 29.926 | 7.26 | 1.3 | 443 | 0.00 | 0.00 | 0.00 | 0.00 |
| 05/09/26 8:32:17 AM | 38 | 1.0 | 4.0 | 64 | 72 | 67.5 | 66.4 | 29.926 | 7.26 | 1.3 | 446 | 0.00 | 0.00 | 0.00 | 0.00 |
| 05/09/26 8:33:24 AM | 37 | 2.0 | 4.0 | 64 | 72 | 67.5 | 66.5 | 29.922 | 7.26 | 1.3 | 450 | 0.00 | 0.00 | 0.00 | 0.00 |
| 05/09/26 8:34:16 AM | 35 | 2.0 | 4.0 | 64 | 71 | 67.5 | 66.7 | 29.926 | 7.26 | 1.4 | 452 | 0.00 | 0.00 | 0.00 | 0.00 |
| 05/09/26 8:35:30 AM | 36 | 0.0 | 4.0 | 64 | 70 | 67.5 | 66.8 | 29.922 | 7.26 | 1.4 | 455 | 0.00 | 0.00 | 0.00 | 0.00 |
| 05/09/26 8:36:22 AM | 38 | 0.0 | 4.0 | 64 | 70 | 67.5 | 66.9 | 29.923 | 7.26 | 1.4 | 455 | 0.00 | 0.00 | 0.00 | 0.00 |
| 05/09/26 8:37:35 AM | 38 | 2.0 | 4.0 | 64 | 70 | 67.6 | 67.0 | 29.925 | 7.26 | 1.4 | 462 | 0.00 | 0.00 | 0.00 | 0.00 |
| 05/09/26 8:38:24 AM | 35 | 1.0 | 4.0 | 64 | 70 | 67.6 | 67.1 | 29.923 | 7.26 | 1.4 | 462 | 0.00 | 0.00 | 0.00 | 0.00 |
| 05/09/26 8:39:34 AM | 38 | 1.0 | 4.0 | 64 | 70 | 67.6 | 67.2 | 29.923 | 7.26 | 1.4 | 473 | 0.00 | 0.00 | 0.00 | 0.00 |
| 05/09/26 8:40:26 AM | 31 | 0.0 | 4.0 | 64 | 69 | 67.7 | 67.3 | 29.923 | 7.26 | 1.5 | 473 | 0.00 | 0.00 | 0.00 | 0.00 |
| 05/09/26 8:41:18 AM | 35 | 0.0 | 4.0 | 64 | 70 | 67.7 | 67.3 | 29.923 | 7.26 | 1.5 | 476 | 0.00 | 0.00 | 0.00 | 0.00 |
| 05/09/26 8:42:31 AM | 38 | 0.0 | 4.0 | 64 | 69 | 67.7 | 67.4 | 29.923 | 7.26 | 1.5 | 483 | 0.00 | 0.00 | 0.00 | 0.00 |
| 05/09/26 8:43:24 AM | 36 | 0.0 | 4.0 | 64 | 70 | 67.7 | 67.5 | 29.926 | 7.26 | 1.5 | 485 | 0.00 | 0.00 | 0.00 | 0.00 |
| 05/09/26 8:44:31 AM | 37 | 1.0 | 4.0 | 64 | 70 | 67.7 | 67.8 | 29.923 | 7.26 | 1.6 | 487 | 0.00 | 0.00 | 0.00 | 0.00 |
| 05/09/26 8:45:26 AM | 34 | 1.0 | 4.0 | 64 | 69 | 67.8 | 67.9 | 29.923 | 7.26 | 1.6 | 490 | 0.00 | 0.00 | 0.00 | 0.00 |
| 05/09/26 8:46:36 AM | 38 | 1.0 | 4.0 | 64 | 68 | 67.8 | 68.1 | 29.923 | 7.26 | 1.6 | 494 | 0.00 | 0.00 | 0.00 | 0.00 |
| 05/09/26 8:47:28 AM | 36 | 0.0 | 4.0 | 64 | 68 | 67.8 | 68.2 | 29.924 | 7.26 | 1.6 | 497 | 0.00 | 0.00 | 0.00 | 0.00 |
| 05/09/26 8:48:20 AM | 38 | 0.0 | 4.0 | 64 | 68 | 67.8 | 68.3 | 29.922 | 7.26 | 1.7 | 503 | 0.00 | 0.00 | 0.00 | 0.00 |
| 05/09/26 8:49:27 AM | 38 | 1.0 | 4.0 | 64 | 68 | 67.9 | 68.4 | 29.924 | 7.26 | 1.7 | 504 | 0.00 | 0.00 | 0.00 | 0.00 |
| 05/09/26 8:50:20 AM | 35 | 3.0 | 4.0 | 64 | 67 | 67.9 | 68.6 | 29.924 | 7.26 | 1.7 | 508 | 0.00 | 0.00 | 0.00 | 0.00 |
| 05/09/26 8:51:30 AM | 35 | 2.0 | 4.0 | 64 | 66 | 68.0 | 68.7 | 29.923 | 7.26 | 1.7 | 510 | 0.00 | 0.00 | 0.00 | 0.00 |
| 05/09/26 8:52:22 AM | 37 | 2.0 | 4.0 | 64 | 66 | 68.0 | 68.7 | 29.927 | 7.26 | 1.7 | 512 | 0.00 | 0.00 | 0.00 | 0.00 |
| 05/09/26 8:53:35 AM | 37 | 1.0 | 4.0 | 64 | 66 | 68.0 | 68.7 | 29.923 | 7.26 | 1.7 | 513 | 0.00 | 0.00 | 0.00 | 0.00 |
| 05/09/26 8:54:24 AM | 36 | 2.0 | 4.0 | 64 | 66 | 68.1 | 68.8 | 29.926 | 7.26 | 1.8 | 517 | 0.00 | 0.00 | 0.00 | 0.00 |
| 05/09/26 8:55:34 AM | 35 | 2.0 | 4.0 | 64 | 66 | 68.1 | 68.8 | 29.925 | 7.26 | 1.8 | 522 | 0.00 | 0.00 | 0.00 | 0.00 |
| 05/09/26 8:56:26 AM | 36 | 1.0 | 4.0 | 64 | 66 | 68.1 | 68.9 | 29.926 | 7.26 | 1.8 | 522 | 0.00 | 0.00 | 0.00 | 0.00 |
| 05/09/26 8:57:19 AM | 37 | 2.0 | 4.0 | 64 | 65 | 68.1 | 68.9 | 29.925 | 7.26 | 1.8 | 524 | 0.00 | 0.00 | 0.00 | 0.00 |
| 05/09/26 8:58:32 AM | 32 | 2.0 | 4.0 | 64 | 65 | 68.2 | 69.0 | 29.925 | 7.26 | 1.9 | 527 | 0.00 | 0.00 | 0.00 | 0.00 |
| 05/09/26 8:59:24 AM | 35 | 1.0 | 4.0 | 64 | 65 | 68.2 | 69.0 | 29.924 | 7.26 | 1.9 | 527 | 0.00 | 0.00 | 0.00 | 0.00 |
| 05/09/26 9:00:52 AM | 36 | 3.0 | 4.0 | 64 | 65 | 68.2 | 69.1 | 29.925 | 7.26 | 1.9 | 529 | 0.00 | 0.00 | 0.00 | 0.00 |
| 05/09/26 9:01:26 AM | 32 | 1.0 | 4.0 | 64 | 65 | 68.3 | 69.2 | 29.923 | 7.26 | 1.9 | 529 | 0.00 | 0.00 | 0.00 | 0.00 |
| 05/09/26 9:02:15 AM | 34 | 2.0 | 4.0 | 64 | 64 | 68.3 | 69.2 | 29.923 | 7.26 | 2.0 | 531 | 0.00 | 0.00 | 0.00 | 0.00 |
| 05/09/26 9:03:29 AM | 36 | 2.0 | 4.0 | 64 | 64 | 68.3 | 69.3 | 29.924 | 7.26 | 2.0 | 531 | 0.00 | 0.00 | 0.00 | 0.00 |
| 05/09/26 9:04:18 AM | 35 | 0.0 | 4.0 | 64 | 64 | 68.4 | 69.4 | 29.923 | 7.26 | 2.0 | 531 | 0.00 | 0.00 | 0.00 | 0.00 |
| 05/09/26 9:05:28 AM | 34 | 2.0 | 4.0 | 64 | 64 | 68.4 | 69.5 | 29.922 | 7.26 | 2.0 | 536 | 0.00 | 0.00 | 0.00 | 0.00 |
| 05/09/26 9:06:20 AM | 36 | 3.0 | 4.0 | 64 | 64 | 68.4 | 69.7 | 29.922 | 7.26 | 2.0 | 536 | 0.00 | 0.00 | 0.00 | 0.00 |
| 05/09/26 9:07:33 AM | 36 | 3.0 | 4.0 | 64 | 63 | 68.4 | 69.8 | 29.922 | 7.26 | 2.1 | 536 | 0.00 | 0.00 | 0.00 | 0.00 |
| 05/09/26 9:08:22 AM | 36 | 3.0 | 4.0 | 64 | 63 | 68.5 | 69.8 | 29.923 | 7.26 | 2.1 | 534 | 0.00 | 0.00 | 0.00 | 0.00 |
| 05/09/26 9:09:36 AM | 36 | 2.0 | 4.0 | 64 | 63 | 68.5 | 69.8 | 29.926 | 7.26 | 2.1 | 533 | 0.00 | 0.00 | 0.00 | 0.00 |
| 05/09/26 9:10:28 AM | 37 | 2.0 | 4.0 | 64 | 63 | 68.5 | 69.9 | 29.922 | 7.26 | 2.1 | 533 | 0.00 | 0.00 | 0.00 | 0.00 |
| 05/09/26 9:11:17 AM | 38 | 3.0 | 4.0 | 64 | 63 | 68.5 | 69.9 | 29.924 | 7.26 | 2.1 | 534 | 0.00 | 0.00 | 0.00 | 0.00 |
| 05/09/26 9:12:27 AM | 35 | 3.0 | 4.0 | 64 | 63 | 68.6 | 69.9 | 29.923 | 7.26 | 2.2 | 534 | 0.00 | 0.00 | 0.00 | 0.00 |
| 05/09/26 9:13:19 AM | 32 | 3.0 | 4.0 | 64 | 62 | 68.6 | 69.9 | 29.922 | 7.26 | 2.2 | 534 | 0.00 | 0.00 | 0.00 | 0.00 |
| 05/09/26 9:14:32 AM | 35 | 2.0 | 4.0 | 64 | 63 | 68.7 | 69.9 | 29.922 | 7.26 | 2.2 | 534 | 0.00 | 0.00 | 0.00 | 0.00 |
| 05/09/26 9:15:27 AM | 36 | 2.0 | 4.0 | 64 | 63 | 68.6 | 69.9 | 29.921 | 7.26 | 2.2 | 533 | 0.00 | 0.00 | 0.00 | 0.00 |
| 05/09/26 9:16:32 AM | 38 | 2.0 | 4.0 | 64 | 63 | 68.7 | 70.0 | 29.921 | 7.26 | 2.3 | 534 | 0.00 | 0.00 | 0.00 | 0.00 |
| 05/09/26 9:17:27 AM | 35 | 1.0 | 4.0 | 64 | 63 | 68.7 | 70.0 | 29.920 | 7.26 | 2.3 | 534 | 0.00 | 0.00 | 0.00 | 0.00 |
| 05/09/26 9:18:16 AM | 36 | 1.0 | 4.0 | 64 | 63 | 68.8 | 70.1 | 29.920 | 7.26 | 2.3 | 536 | 0.00 | 0.00 | 0.00 | 0.00 |
| 05/09/26 9:19:29 AM | 36 | 2.0 | 4.0 | 64 | 62 | 68.8 | 70.2 | 29.921 | 7.26 | 2.3 | 534 | 0.00 | 0.00 | 0.00 | 0.00 |
| 05/09/26 9:20:21 AM | 36 | 0.0 | 4.0 | 64 | 62 | 68.8 | 70.3 | 29.919 | 7.26 | 2.4 | 534 | 0.00 | 0.00 | 0.00 | 0.00 |
| 05/09/26 9:21:28 AM | 32 | 0.0 | 4.0 | 64 | 62 | 68.8 | 70.5 | 29.921 | 7.26 | 2.4 | 536 | 0.00 | 0.00 | 0.00 | 0.00 |
| 05/09/26 9:22:20 AM | 35 | 1.0 | 4.0 | 64 | 62 | 68.8 | 70.8 | 29.921 | 7.26 | 2.4 | 534 | 0.00 | 0.00 | 0.00 | 0.00 |
| 05/09/26 9:23:34 AM | 34 | 0.0 | 4.0 | 64 | 62 | 68.9 | 71.1 | 29.921 | 7.26 | 2.4 | 533 | 0.00 | 0.00 | 0.00 | 0.00 |
| 05/09/26 9:24:23 AM | 36 | 1.0 | 4.0 | 64 | 61 | 68.9 | 71.2 | 29.920 | 7.26 | 2.4 | 533 | 0.00 | 0.00 | 0.00 | 0.00 |
| 05/09/26 9:25:36 AM | 38 | 1.0 | 4.0 | 64 | 61 | 69.0 | 71.5 | 29.919 | 7.26 | 2.5 | 533 | 0.00 | 0.00 | 0.00 | 0.00 |
| 05/09/26 9:26:28 AM | 36 | 1.0 | 4.0 | 64 | 61 | 69.0 | 71.6 | 29.921 | 7.26 | 2.5 | 533 | 0.00 | 0.00 | 0.00 | 0.00 |
| 05/09/26 9:27:17 AM | 34 | 2.0 | 4.0 | 64 | 60 | 69.0 | 71.7 | 29.922 | 7.26 | 2.5 | 533 | 0.00 | 0.00 | 0.00 | 0.00 |
| 05/09/26 9:28:27 AM | 37 | 2.0 | 4.0 | 64 | 60 | 69.0 | 71.9 | 29.920 | 7.26 | 2.6 | 527 | 0.00 | 0.00 | 0.00 | 0.00 |
| 05/09/26 9:29:19 AM | 34 | 2.0 | 4.0 | 64 | 60 | 69.1 | 71.9 | 29.919 | 7.26 | 2.6 | 526 | 0.00 | 0.00 | 0.00 | 0.00 |
| 05/09/26 9:30:54 AM | 36 | 2.0 | 4.0 | 64 | 59 | 69.1 | 72.0 | 29.922 | 7.26 | 2.6 | 522 | 0.00 | 0.00 | 0.00 | 0.00 |
| 05/09/26 9:31:25 AM | 36 | 3.0 | 4.0 | 64 | 59 | 69.1 | 72.0 | 29.921 | 7.26 | 2.6 | 524 | 0.00 | 0.00 | 0.00 | 0.00 |
| 05/09/26 9:32:17 AM | 37 | 0.0 | 4.0 | 64 | 59 | 69.1 | 72.1 | 29.921 | 7.26 | 2.7 | 527 | 0.00 | 0.00 | 0.00 | 0.00 |
| 05/09/26 9:33:24 AM | 34 | 1.0 | 5.0 | 64 | 59 | 69.1 | 72.1 | 29.919 | 7.26 | 2.7 | 531 | 0.00 | 0.00 | 0.00 | 0.00 |
| 05/09/26 9:34:16 AM | 35 | 3.0 | 5.0 | 64 | 59 | 69.2 | 72.2 | 29.920 | 7.26 | 2.7 | 529 | 0.00 | 0.00 | 0.00 | 0.00 |
| 05/09/26 9:35:30 AM | 32 | 0.0 | 5.0 | 64 | 59 | 69.2 | 72.4 | 29.919 | 7.26 | 2.7 | 527 | 0.00 | 0.00 | 0.00 | 0.00 |
| 05/09/26 9:36:22 AM | 36 | 1.0 | 5.0 | 64 | 59 | 69.2 | 72.5 | 29.921 | 7.26 | 2.8 | 529 | 0.00 | 0.00 | 0.00 | 0.00 |
| 05/09/26 9:37:32 AM | 38 | 4.0 | 5.0 | 64 | 58 | 69.3 | 72.6 | 29.919 | 7.26 | 2.8 | 529 | 0.00 | 0.00 | 0.00 | 0.00 |
| 05/09/26 9:38:18 AM | 34 | 3.0 | 5.0 | 64 | 58 | 69.3 | 72.7 | 29.920 | 7.26 | 2.8 | 531 | 0.00 | 0.00 | 0.00 | 0.00 |
| 05/09/26 9:39:31 AM | 37 | 3.0 | 5.0 | 64 | 58 | 69.4 | 72.8 | 29.919 | 7.26 | 2.9 | 531 | 0.00 | 0.00 | 0.00 | 0.00 |
| 05/09/26 9:40:23 AM | 34 | 1.0 | 5.0 | 64 | 57 | 69.4 | 72.8 | 29.919 | 7.26 | 2.9 | 531 | 0.00 | 0.00 | 0.00 | 0.00 |
| 05/09/26 9:41:34 AM | 37 | 4.0 | 5.0 | 64 | 58 | 69.4 | 72.9 | 29.921 | 7.26 | 2.9 | 534 | 0.00 | 0.00 | 0.00 | 0.00 |
| 05/09/26 9:42:29 AM | 38 | 3.0 | 5.0 | 64 | 57 | 69.4 | 73.0 | 29.918 | 7.26 | 2.9 | 536 | 0.00 | 0.00 | 0.00 | 0.00 |
| 05/09/26 9:43:36 AM | 34 | 2.0 | 5.0 | 64 | 57 | 69.4 | 73.0 | 29.917 | 7.26 | 3.0 | 540 | 0.00 | 0.00 | 0.00 | 0.00 |
| 05/09/26 9:44:28 AM | 34 | 3.0 | 5.0 | 64 | 57 | 69.4 | 73.1 | 29.917 | 7.26 | 3.0 | 538 | 0.00 | 0.00 | 0.00 | 0.00 |
| 05/09/26 9:45:20 AM | 35 | 2.0 | 5.0 | 64 | 56 | 69.4 | 73.1 | 29.918 | 7.26 | 3.0 | 534 | 0.00 | 0.00 | 0.00 | 0.00 |
| 05/09/26 9:46:30 AM | 38 | 2.0 | 5.0 | 64 | 56 | 69.5 | 73.2 | 29.917 | 7.26 | 3.0 | 536 | 0.00 | 0.00 | 0.00 | 0.00 |
| 05/09/26 9:47:22 AM | 32 | 2.0 | 5.0 | 64 | 56 | 69.5 | 73.2 | 29.917 | 7.26 | 3.0 | 540 | 0.00 | 0.00 | 0.00 | 0.00 |
| 05/09/26 9:48:30 AM | 34 | 1.0 | 5.0 | 64 | 57 | 69.5 | 73.3 | 29.917 | 7.26 | 3.1 | 547 | 0.00 | 0.00 | 0.00 | 0.00 |
| 05/09/26 9:49:22 AM | 36 | 1.0 | 5.0 | 64 | 57 | 69.6 | 73.3 | 29.915 | 7.26 | 3.1 | 548 | 0.00 | 0.00 | 0.00 | 0.00 |
| 05/09/26 9:50:32 AM | 37 | 1.0 | 5.0 | 64 | 56 | 69.6 | 73.4 | 29.918 | 7.26 | 3.1 | 548 | 0.00 | 0.00 | 0.00 | 0.00 |
| 05/09/26 9:51:24 AM | 36 | 0.0 | 5.0 | 64 | 57 | 69.6 | 73.5 | 29.915 | 7.26 | 3.1 | 554 | 0.00 | 0.00 | 0.00 | 0.00 |
| 05/09/26 9:52:16 AM | 36 | 1.0 | 5.0 | 64 | 57 | 69.6 | 73.6 | 29.919 | 7.26 | 3.2 | 559 | 0.00 | 0.00 | 0.00 | 0.00 |
| 05/09/26 9:53:30 AM | 38 | 1.0 | 5.0 | 64 | 56 | 69.6 | 73.7 | 29.914 | 7.26 | 3.2 | 564 | 0.00 | 0.00 | 0.00 | 0.00 |
| 05/09/26 9:54:16 AM | 36 | 1.0 | 5.0 | 64 | 56 | 69.7 | 73.7 | 29.917 | 7.26 | 3.2 | 570 | 0.00 | 0.00 | 0.00 | 0.00 |
| 05/09/26 9:55:29 AM | 34 | 3.0 | 5.0 | 64 | 57 | 69.7 | 73.8 | 29.917 | 7.26 | 3.3 | 577 | 0.00 | 0.00 | 0.00 | 0.00 |
| 05/09/26 9:56:21 AM | 31 | 2.0 | 5.0 | 64 | 56 | 69.7 | 73.8 | 29.917 | 7.26 | 3.3 | 577 | 0.00 | 0.00 | 0.00 | 0.00 |
| 05/09/26 9:57:34 AM | 30 | 2.0 | 5.0 | 64 | 56 | 69.7 | 73.9 | 29.914 | 7.26 | 3.4 | 596 | 0.00 | 0.00 | 0.00 | 0.00 |
| 05/09/26 9:58:27 AM | 35 | 3.0 | 5.0 | 64 | 57 | 69.8 | 73.9 | 29.912 | 7.26 | 3.4 | 596 | 0.00 | 0.00 | 0.00 | 0.00 |
| 05/09/26 9:59:34 AM | 32 | 3.0 | 6.0 | 64 | 57 | 69.8 | 73.9 | 29.915 | 7.26 | 3.4 | 596 | 0.00 | 0.00 | 0.00 | 0.00 |
| 05/09/26 10:00:50 AM | 34 | 1.0 | 6.0 | 64 | 57 | 69.9 | 74.0 | 29.914 | 7.26 | 3.5 | 615 | 0.00 | 0.00 | 0.00 | 0.00 |
| 05/09/26 10:01:21 AM | 35 | 1.0 | 6.0 | 64 | 57 | 69.9 | 74.0 | 29.915 | 7.26 | 3.5 | 617 | 0.00 | 0.00 | 0.00 | 0.00 |
| 05/09/26 10:02:31 AM | 31 | 0.0 | 6.0 | 64 | 57 | 69.9 | 74.2 | 29.915 | 7.26 | 3.5 | 617 | 0.00 | 0.00 | 0.00 | 0.00 |
| 05/09/26 10:03:23 AM | 37 | 2.0 | 6.0 | 64 | 57 | 69.9 | 74.4 | 29.916 | 7.26 | 3.5 | 631 | 0.00 | 0.00 | 0.00 | 0.00 |
| 05/09/26 10:04:36 AM | 32 | 2.0 | 6.0 | 64 | 57 | 69.9 | 74.7 | 29.915 | 7.26 | 3.6 | 645 | 0.00 | 0.00 | 0.00 | 0.00 |
| 05/09/26 10:05:23 AM | 32 | 2.0 | 6.0 | 64 | 57 | 70.0 | 74.8 | 29.915 | 7.26 | 3.6 | 650 | 0.00 | 0.00 | 0.00 | 0.00 |
| 05/09/26 10:06:36 AM | 38 | 1.0 | 6.0 | 64 | 55 | 70.0 | 74.9 | 29.915 | 7.26 | 3.6 | 652 | 0.00 | 0.00 | 0.00 | 0.00 |
| 05/09/26 10:07:28 AM | 34 | 1.0 | 6.0 | 64 | 55 | 70.0 | 75.2 | 29.914 | 7.26 | 3.7 | 654 | 0.00 | 0.00 | 0.00 | 0.00 |
| 05/09/26 10:08:20 AM | 38 | 2.0 | 6.0 | 64 | 54 | 70.1 | 75.4 | 29.914 | 7.26 | 3.7 | 659 | 0.00 | 0.00 | 0.00 | 0.00 |
| 05/09/26 10:09:30 AM | 31 | 2.0 | 6.0 | 64 | 54 | 70.1 | 75.5 | 29.918 | 7.26 | 3.7 | 666 | 0.00 | 0.00 | 0.00 | 0.00 |
| 05/09/26 10:10:19 AM | 34 | 3.0 | 6.0 | 64 | 53 | 70.1 | 75.7 | 29.917 | 7.26 | 3.7 | 675 | 0.00 | 0.00 | 0.00 | 0.00 |
| 05/09/26 10:11:30 AM | 38 | 1.0 | 6.0 | 64 | 53 | 70.1 | 75.7 | 29.914 | 7.26 | 3.7 | 694 | 0.00 | 0.00 | 0.00 | 0.00 |
| 05/09/26 10:12:22 AM | 38 | 2.0 | 6.0 | 64 | 53 | 70.2 | 75.8 | 29.917 | 7.26 | 3.7 | 694 | 0.00 | 0.00 | 0.00 | 0.00 |
| 05/09/26 10:13:35 AM | 37 | 1.0 | 6.0 | 64 | 52 | 70.2 | 76.1 | 29.919 | 7.26 | 3.8 | 698 | 0.00 | 0.00 | 0.00 | 0.00 |
| 05/09/26 10:14:27 AM | 36 | 2.0 | 6.0 | 64 | 53 | 70.2 | 76.2 | 29.918 | 7.26 | 3.8 | 719 | 0.00 | 0.00 | 0.00 | 0.00 |
| 05/09/26 10:15:19 AM | 35 | 3.0 | 6.0 | 64 | 52 | 70.2 | 76.4 | 29.918 | 7.26 | 3.8 | 731 | 0.00 | 0.00 | 0.00 | 0.00 |
| 05/09/26 10:16:27 AM | 37 | 3.0 | 6.0 | 64 | 52 | 70.2 | 76.4 | 29.918 | 7.26 | 3.9 | 747 | 0.00 | 0.00 | 0.00 | 0.00 |
| 05/09/26 10:17:19 AM | 35 | 3.0 | 6.0 | 64 | 51 | 70.3 | 76.3 | 29.916 | 7.26 | 3.9 | 756 | 0.00 | 0.00 | 0.00 | 0.00 |
| 05/09/26 10:18:29 AM | 32 | 2.0 | 6.0 | 64 | 50 | 70.3 | 76.2 | 29.918 | 7.26 | 4.0 | 763 | 0.00 | 0.00 | 0.00 | 0.00 |
| 05/09/26 10:19:24 AM | 36 | 3.0 | 6.0 | 64 | 51 | 70.3 | 76.3 | 29.916 | 7.26 | 4.0 | 759 | 0.00 | 0.00 | 0.00 | 0.00 |
| 05/09/26 10:20:37 AM | 35 | 2.0 | 6.0 | 64 | 51 | 70.4 | 76.4 | 29.916 | 7.26 | 4.0 | 759 | 0.00 | 0.00 | 0.00 | 0.00 |
| 05/09/26 10:21:24 AM | 36 | 1.0 | 6.0 | 64 | 51 | 70.4 | 76.5 | 29.919 | 7.26 | 4.0 | 765 | 0.00 | 0.00 | 0.00 | 0.00 |
| 05/09/26 10:22:37 AM | 32 | 2.0 | 6.0 | 64 | 51 | 70.4 | 76.7 | 29.916 | 7.26 | 4.0 | 766 | 0.00 | 0.00 | 0.00 | 0.00 |
| 05/09/26 10:23:29 AM | 38 | 2.0 | 6.0 | 64 | 51 | 70.5 | 76.7 | 29.917 | 7.26 | 4.0 | 770 | 0.00 | 0.00 | 0.00 | 0.00 |
| 05/09/26 10:24:21 AM | 38 | 1.0 | 6.0 | 64 | 51 | 70.5 | 76.8 | 29.917 | 7.26 | 4.1 | 779 | 0.00 | 0.00 | 0.00 | 0.00 |
| 05/09/26 10:25:31 AM | 36 | 2.0 | 6.0 | 64 | 51 | 70.5 | 77.0 | 29.916 | 7.26 | 4.1 | 795 | 0.00 | 0.00 | 0.00 | 0.00 |
| 05/09/26 10:26:20 AM | 38 | 3.0 | 6.0 | 64 | 50 | 70.5 | 77.2 | 29.916 | 7.26 | 4.2 | 795 | 0.00 | 0.00 | 0.00 | 0.00 |
| 05/09/26 10:27:30 AM | 38 | 2.0 | 6.0 | 64 | 50 | 70.5 | 77.3 | 29.916 | 7.26 | 4.2 | 805 | 0.00 | 0.00 | 0.00 | 0.00 |
| 05/09/26 10:28:22 AM | 34 | 2.0 | 6.0 | 64 | 50 | 70.6 | 77.3 | 29.912 | 7.26 | 4.2 | 809 | 0.00 | 0.00 | 0.00 | 0.00 |
| 05/09/26 10:29:18 AM | 34 | 2.0 | 6.0 | 64 | 49 | 70.6 | 77.2 | 29.912 | 7.26 | 4.2 | 810 | 0.00 | 0.00 | 0.00 | 0.00 |
| 05/09/26 10:30:28 AM | 34 | 2.0 | 6.0 | 64 | 51 | 70.7 | 77.3 | 29.913 | 7.26 | 4.3 | 812 | 0.00 | 0.00 | 0.00 | 0.00 |
| 05/09/26 10:31:20 AM | 36 | 3.0 | 6.0 | 64 | 51 | 70.7 | 77.4 | 29.912 | 7.26 | 4.3 | 812 | 0.00 | 0.00 | 0.00 | 0.00 |
| 05/09/26 10:32:27 AM | 31 | 1.0 | 6.0 | 64 | 51 | 70.7 | 77.5 | 29.913 | 7.26 | 4.3 | 816 | 0.00 | 0.00 | 0.00 | 0.00 |
| 05/09/26 10:33:19 AM | 34 | 3.0 | 6.0 | 64 | 50 | 70.7 | 77.6 | 29.915 | 7.26 | 4.3 | 817 | 0.00 | 0.00 | 0.00 | 0.00 |
| 05/09/26 10:34:30 AM | 38 | 3.0 | 6.0 | 64 | 51 | 70.8 | 77.7 | 29.913 | 7.26 | 4.4 | 823 | 0.00 | 0.00 | 0.00 | 0.00 |
| 05/09/26 10:35:22 AM | 35 | 0.0 | 6.0 | 64 | 51 | 70.8 | 77.8 | 29.914 | 7.26 | 4.4 | 823 | 0.00 | 0.00 | 0.00 | 0.00 |
| 05/09/26 10:36:35 AM | 38 | 1.0 | 6.0 | 64 | 50 | 70.8 | 78.0 | 29.912 | 7.26 | 4.4 | 824 | 0.00 | 0.00 | 0.00 | 0.00 |
| 05/09/26 10:37:22 AM | 36 | 1.0 | 6.0 | 64 | 50 | 70.8 | 78.0 | 29.915 | 7.26 | 4.4 | 821 | 0.00 | 0.00 | 0.00 | 0.00 |
| 05/09/26 10:38:32 AM | 32 | 2.0 | 6.0 | 64 | 49 | 70.9 | 78.1 | 29.914 | 7.26 | 4.4 | 826 | 0.00 | 0.00 | 0.00 | 0.00 |
| 05/09/26 10:39:24 AM | 32 | 1.0 | 6.0 | 64 | 48 | 70.9 | 78.2 | 29.915 | 7.26 | 4.5 | 828 | 0.00 | 0.00 | 0.00 | 0.00 |
| 05/09/26 10:40:34 AM | 35 | 4.0 | 6.0 | 64 | 48 | 70.9 | 78.3 | 29.915 | 7.26 | 4.5 | 838 | 0.00 | 0.00 | 0.00 | 0.00 |
| 05/09/26 10:41:29 AM | 36 | 3.0 | 6.0 | 64 | 48 | 71.0 | 78.4 | 29.913 | 7.26 | 4.6 | 838 | 0.00 | 0.00 | 0.00 | 0.00 |
| 05/09/26 10:42:19 AM | 38 | 2.0 | 6.0 | 64 | 48 | 71.0 | 78.5 | 29.914 | 7.26 | 4.5 | 838 | 0.00 | 0.00 | 0.00 | 0.00 |
| 05/09/26 10:43:29 AM | 34 | 4.0 | 6.0 | 64 | 48 | 71.0 | 78.7 | 29.914 | 7.26 | 4.5 | 835 | 0.00 | 0.00 | 0.00 | 0.00 |
| 05/09/26 10:44:21 AM | 35 | 2.0 | 6.0 | 64 | 48 | 71.0 | 78.7 | 29.915 | 7.26 | 4.5 | 833 | 0.00 | 0.00 | 0.00 | 0.00 |
| 05/09/26 10:45:34 AM | 36 | 3.0 | 6.0 | 64 | 47 | 71.1 | 78.8 | 29.913 | 7.26 | 4.5 | 831 | 0.00 | 0.00 | 0.00 | 0.00 |
| 05/09/26 10:46:26 AM | 38 | 2.0 | 6.0 | 64 | 49 | 71.1 | 78.9 | 29.912 | 7.26 | 4.6 | 837 | 0.00 | 0.00 | 0.00 | 0.00 |
| 05/09/26 10:47:19 AM | 34 | 2.0 | 6.0 | 64 | 49 | 71.1 | 79.0 | 29.912 | 7.26 | 4.7 | 846 | 0.00 | 0.00 | 0.00 | 0.00 |
| 05/09/26 10:48:26 AM | 32 | 1.0 | 6.0 | 64 | 48 | 71.1 | 79.0 | 29.914 | 7.26 | 4.7 | 851 | 0.00 | 0.00 | 0.00 | 0.00 |
| 05/09/26 10:49:18 AM | 36 | 2.0 | 6.0 | 64 | 47 | 71.2 | 79.0 | 29.914 | 7.26 | 4.7 | 851 | 0.00 | 0.00 | 0.00 | 0.00 |
| 05/09/26 10:50:31 AM | 34 | 2.0 | 6.0 | 64 | 47 | 71.3 | 79.0 | 29.913 | 7.26 | 4.7 | 853 | 0.00 | 0.00 | 0.00 | 0.00 |
| 05/09/26 10:51:23 AM | 32 | 3.0 | 6.0 | 64 | 47 | 71.2 | 78.9 | 29.912 | 7.26 | 4.7 | 846 | 0.00 | 0.00 | 0.00 | 0.00 |
| 05/09/26 10:52:34 AM | 32 | 2.0 | 6.0 | 64 | 46 | 71.3 | 78.8 | 29.911 | 7.26 | 4.7 | 846 | 0.00 | 0.00 | 0.00 | 0.00 |
| 05/09/26 10:53:20 AM | 38 | 1.0 | 6.0 | 64 | 47 | 71.3 | 78.8 | 29.913 | 7.26 | 4.8 | 854 | 0.00 | 0.00 | 0.00 | 0.00 |
| 05/09/26 10:54:33 AM | 38 | 4.0 | 6.0 | 64 | 48 | 71.4 | 78.9 | 29.915 | 7.26 | 4.8 | 854 | 0.00 | 0.00 | 0.00 | 0.00 |
| 05/09/26 10:55:25 AM | 34 | 3.0 | 6.0 | 64 | 48 | 71.4 | 79.1 | 29.911 | 7.26 | 4.9 | 860 | 0.00 | 0.00 | 0.00 | 0.00 |
| 05/09/26 10:56:17 AM | 36 | 4.0 | 6.0 | 64 | 47 | 71.4 | 79.2 | 29.914 | 7.26 | 4.9 | 865 | 0.00 | 0.00 | 0.00 | 0.00 |
| 05/09/26 10:57:31 AM | 36 | 4.0 | 6.0 | 64 | 47 | 71.5 | 79.4 | 29.910 | 7.26 | 4.9 | 874 | 0.00 | 0.00 | 0.00 | 0.00 |
| 05/09/26 10:58:17 AM | 31 | 2.0 | 6.0 | 64 | 46 | 71.5 | 79.4 | 29.914 | 7.26 | 4.9 | 874 | 0.00 | 0.00 | 0.00 | 0.00 |
| 05/09/26 10:59:30 AM | 32 | 1.0 | 6.0 | 64 | 46 | 71.5 | 79.4 | 29.909 | 7.26 | 4.9 | 872 | 0.00 | 0.00 | 0.00 | 0.00 |
| 05/09/26 11:00:22 AM | 34 | 1.0 | 6.0 | 64 | 47 | 71.5 | 79.5 | 29.911 | 7.26 | 4.9 | 872 | 0.00 | 0.00 | 0.00 | 0.00 |
| 05/09/26 11:01:33 AM | 38 | 4.0 | 6.0 | 64 | 46 | 71.6 | 79.5 | 29.910 | 7.26 | 5.0 | 872 | 0.00 | 0.00 | 0.00 | 0.00 |
| 05/09/26 11:02:25 AM | 36 | 4.0 | 6.0 | 64 | 46 | 71.6 | 79.4 | 29.908 | 7.26 | 5.0 | 879 | 0.00 | 0.00 | 0.00 | 0.00 |
| 05/09/26 11:03:17 AM | 32 | 3.0 | 6.0 | 64 | 46 | 71.6 | 79.3 | 29.911 | 7.26 | 5.0 | 877 | 0.00 | 0.00 | 0.00 | 0.00 |
| 05/09/26 11:04:24 AM | 34 | 6.0 | 6.0 | 64 | 47 | 71.7 | 79.3 | 29.908 | 7.26 | 5.0 | 877 | 0.00 | 0.00 | 0.00 | 0.00 |
| 05/09/26 11:05:20 AM | 38 | 3.0 | 6.0 | 64 | 47 | 71.7 | 79.3 | 29.908 | 7.26 | 5.0 | 879 | 0.00 | 0.00 | 0.00 | 0.00 |
| 05/09/26 11:06:30 AM | 38 | 3.0 | 6.0 | 64 | 47 | 71.7 | 79.4 | 29.906 | 7.26 | 5.0 | 881 | 0.00 | 0.00 | 0.00 | 0.00 |
| 05/09/26 11:07:22 AM | 36 | 3.0 | 7.0 | 64 | 47 | 71.7 | 79.4 | 29.907 | 7.26 | 5.1 | 882 | 0.00 | 0.00 | 0.00 | 0.00 |
| 05/09/26 11:08:32 AM | 38 | 4.0 | 7.0 | 64 | 47 | 71.8 | 79.6 | 29.909 | 7.26 | 5.1 | 884 | 0.00 | 0.00 | 0.00 | 0.00 |
| 05/09/26 11:09:21 AM | 38 | 3.0 | 7.0 | 64 | 46 | 71.8 | 79.7 | 29.907 | 7.26 | 5.1 | 886 | 0.00 | 0.00 | 0.00 | 0.00 |
| 05/09/26 11:10:32 AM | 31 | 2.0 | 7.0 | 64 | 46 | 71.8 | 79.9 | 29.907 | 7.26 | 5.2 | 888 | 0.00 | 0.00 | 0.00 | 0.00 |
| 05/09/26 11:11:24 AM | 35 | 4.0 | 7.0 | 64 | 46 | 71.9 | 80.0 | 29.907 | 7.26 | 5.2 | 888 | 0.00 | 0.00 | 0.00 | 0.00 |
| 05/09/26 11:12:37 AM | 38 | 3.0 | 8.0 | 64 | 45 | 71.9 | 80.1 | 29.908 | 7.26 | 5.2 | 889 | 0.00 | 0.00 | 0.00 | 0.00 |
| 05/09/26 11:13:29 AM | 31 | 5.0 | 8.0 | 64 | 44 | 71.9 | 80.1 | 29.908 | 7.26 | 5.2 | 889 | 0.00 | 0.00 | 0.00 | 0.00 |
| 05/09/26 11:14:37 AM | 37 | 1.0 | 8.0 | 64 | 44 | 71.9 | 80.1 | 29.908 | 7.26 | 5.2 | 893 | 0.00 | 0.00 | 0.00 | 0.00 |
| 05/09/26 11:15:29 AM | 36 | 5.0 | 8.0 | 64 | 44 | 71.9 | 80.2 | 29.905 | 7.26 | 5.3 | 900 | 0.00 | 0.00 | 0.00 | 0.00 |
| 05/09/26 11:16:21 AM | 34 | 5.0 | 8.0 | 64 | 44 | 72.0 | 80.2 | 29.907 | 7.26 | 5.3 | 904 | 0.00 | 0.00 | 0.00 | 0.00 |
| 05/09/26 11:17:34 AM | 36 | 6.0 | 8.0 | 64 | 44 | 72.0 | 80.3 | 29.907 | 7.26 | 5.3 | 905 | 0.00 | 0.00 | 0.00 | 0.00 |
| 05/09/26 11:18:23 AM | 32 | 5.0 | 8.0 | 64 | 44 | 72.1 | 80.4 | 29.906 | 7.26 | 5.3 | 905 | 0.00 | 0.00 | 0.00 | 0.00 |
| 05/09/26 11:19:31 AM | 32 | 2.0 | 8.0 | 64 | 43 | 72.1 | 80.4 | 29.905 | 7.26 | 5.3 | 905 | 0.00 | 0.00 | 0.00 | 0.00 |
| 05/09/26 11:20:23 AM | 36 | 1.0 | 8.0 | 64 | 43 | 72.1 | 80.5 | 29.906 | 7.26 | 5.3 | 907 | 0.00 | 0.00 | 0.00 | 0.00 |
| 05/09/26 11:21:36 AM | 34 | 3.0 | 8.0 | 64 | 44 | 72.1 | 80.5 | 29.904 | 7.26 | 5.4 | 907 | 0.00 | 0.00 | 0.00 | 0.00 |
| 05/09/26 11:22:25 AM | 32 | 3.0 | 8.0 | 64 | 45 | 72.2 | 80.6 | 29.905 | 7.26 | 5.4 | 907 | 0.00 | 0.00 | 0.00 | 0.00 |
| 05/09/26 11:23:18 AM | 35 | 3.0 | 8.0 | 64 | 45 | 72.2 | 80.9 | 29.901 | 7.26 | 5.4 | 912 | 0.00 | 0.00 | 0.00 | 0.00 |
| 05/09/26 11:24:31 AM | 36 | 5.0 | 8.0 | 64 | 44 | 72.2 | 81.0 | 29.901 | 7.26 | 5.5 | 912 | 0.00 | 0.00 | 0.00 | 0.00 |
| 05/09/26 11:25:17 AM | 35 | 6.0 | 8.0 | 64 | 44 | 72.3 | 81.2 | 29.904 | 7.26 | 5.5 | 912 | 0.00 | 0.00 | 0.00 | 0.00 |
| 05/09/26 11:26:30 AM | 34 | 5.0 | 8.0 | 64 | 44 | 72.3 | 81.4 | 29.901 | 7.26 | 5.5 | 916 | 0.00 | 0.00 | 0.00 | 0.00 |
| 05/09/26 11:27:23 AM | 36 | 4.0 | 8.0 | 64 | 43 | 72.3 | 81.4 | 29.899 | 7.26 | 5.5 | 916 | 0.00 | 0.00 | 0.00 | 0.00 |
| 05/09/26 11:28:36 AM | 36 | 4.0 | 8.0 | 64 | 42 | 72.3 | 81.5 | 29.903 | 7.26 | 5.6 | 926 | 0.00 | 0.00 | 0.00 | 0.00 |
| 05/09/26 11:29:28 AM | 38 | 3.0 | 8.0 | 64 | 42 | 72.4 | 81.6 | 29.904 | 7.26 | 5.6 | 925 | 0.00 | 0.00 | 0.00 | 0.00 |
| 05/09/26 11:30:17 AM | 36 | 1.0 | 8.0 | 64 | 42 | 72.4 | 81.6 | 29.901 | 7.26 | 5.6 | 914 | 0.00 | 0.00 | 0.00 | 0.00 |
| 05/09/26 11:31:31 AM | 32 | 4.0 | 8.0 | 64 | 42 | 72.5 | 81.7 | 29.903 | 7.26 | 5.5 | 916 | 0.00 | 0.00 | 0.00 | 0.00 |
| 05/09/26 11:32:23 AM | 35 | 2.0 | 8.0 | 64 | 42 | 72.5 | 81.8 | 29.904 | 7.26 | 5.6 | 918 | 0.00 | 0.00 | 0.00 | 0.00 |
| 05/09/26 11:33:36 AM | 35 | 1.0 | 8.0 | 64 | 41 | 72.5 | 81.7 | 29.903 | 7.26 | 5.6 | 919 | 0.00 | 0.00 | 0.00 | 0.00 |
| 05/09/26 11:34:26 AM | 38 | 2.0 | 8.0 | 64 | 41 | 72.6 | 81.7 | 29.903 | 7.26 | 5.7 | 925 | 0.00 | 0.00 | 0.00 | 0.00 |
| 05/09/26 11:35:18 AM | 35 | 2.0 | 8.0 | 64 | 42 | 72.6 | 81.8 | 29.905 | 7.26 | 5.6 | 919 | 0.00 | 0.00 | 0.00 | 0.00 |
| 05/09/26 11:36:25 AM | 35 | 1.0 | 8.0 | 64 | 41 | 72.7 | 81.9 | 29.903 | 7.26 | 5.7 | 921 | 0.00 | 0.00 | 0.00 | 0.00 |
| 05/09/26 11:37:20 AM | 32 | 2.0 | 8.0 | 64 | 41 | 72.7 | 81.9 | 29.903 | 7.26 | 5.7 | 921 | 0.00 | 0.00 | 0.00 | 0.00 |
| 05/09/26 11:38:30 AM | 34 | 2.0 | 8.0 | 64 | 42 | 72.7 | 81.8 | 29.901 | 7.26 | 5.8 | 921 | 0.00 | 0.00 | 0.00 | 0.00 |
| 05/09/26 11:39:23 AM | 35 | 3.0 | 8.0 | 64 | 44 | 72.7 | 81.9 | 29.904 | 7.26 | 5.8 | 930 | 0.00 | 0.00 | 0.00 | 0.00 |
| 05/09/26 11:40:33 AM | 31 | 2.0 | 8.0 | 64 | 42 | 72.8 | 82.0 | 29.903 | 7.26 | 5.8 | 933 | 0.00 | 0.00 | 0.00 | 0.00 |
| 05/09/26 11:41:22 AM | 38 | 3.0 | 8.0 | 64 | 43 | 72.8 | 82.2 | 29.903 | 7.26 | 5.8 | 933 | 0.00 | 0.00 | 0.00 | 0.00 |
| 05/09/26 11:42:35 AM | 36 | 5.0 | 8.0 | 64 | 43 | 72.8 | 82.4 | 29.902 | 7.26 | 5.8 | 933 | 0.00 | 0.00 | 0.00 | 0.00 |
| 05/09/26 11:43:28 AM | 38 | 3.0 | 8.0 | 64 | 42 | 72.9 | 82.5 | 29.901 | 7.26 | 5.8 | 933 | 0.00 | 0.00 | 0.00 | 0.00 |
| 05/09/26 11:44:20 AM | 34 | 5.0 | 9.0 | 64 | 41 | 72.9 | 82.6 | 29.901 | 7.26 | 5.8 | 933 | 0.00 | 0.00 | 0.00 | 0.00 |
| 05/09/26 11:45:33 AM | 36 | 5.0 | 10.0 | 64 | 41 | 73.0 | 82.6 | 29.901 | 7.26 | 5.9 | 937 | 0.00 | 0.00 | 0.00 | 0.00 |
| 05/09/26 11:46:19 AM | 38 | 3.0 | 10.0 | 64 | 41 | 73.0 | 82.7 | 29.900 | 7.26 | 5.9 | 937 | 0.00 | 0.00 | 0.00 | 0.00 |
| 05/09/26 11:47:32 AM | 34 | 4.0 | 10.0 | 64 | 41 | 73.0 | 82.7 | 29.900 | 7.26 | 5.9 | 939 | 0.00 | 0.00 | 0.00 | 0.00 |
| 05/09/26 11:48:25 AM | 36 | 5.0 | 10.0 | 64 | 41 | 73.0 | 82.6 | 29.902 | 7.26 | 5.9 | 940 | 0.00 | 0.00 | 0.00 | 0.00 |
| 05/09/26 11:49:17 AM | 35 | 4.0 | 10.0 | 64 | 41 | 73.1 | 82.6 | 29.902 | 7.26 | 5.9 | 940 | 0.00 | 0.00 | 0.00 | 0.00 |
| 05/09/26 11:50:30 AM | 39 | 4.0 | 10.0 | 64 | 40 | 73.1 | 82.6 | 29.900 | 7.26 | 5.9 | 949 | 0.00 | 0.00 | 0.00 | 0.00 |
| 05/09/26 11:51:22 AM | 35 | 3.0 | 10.0 | 64 | 40 | 73.2 | 82.6 | 29.901 | 7.26 | 5.9 | 944 | 0.00 | 0.00 | 0.00 | 0.00 |
| 05/09/26 11:52:30 AM | 36 | 2.0 | 10.0 | 64 | 41 | 73.3 | 82.7 | 29.901 | 7.26 | 5.9 | 946 | 0.00 | 0.00 | 0.00 | 0.00 |
| 05/09/26 11:53:22 AM | 38 | 6.0 | 10.0 | 64 | 40 | 73.2 | 82.7 | 29.899 | 7.26 | 6.0 | 946 | 0.00 | 0.00 | 0.00 | 0.00 |
| 05/09/26 11:54:32 AM | 36 | 5.0 | 10.0 | 64 | 40 | 73.3 | 82.8 | 29.900 | 7.26 | 6.0 | 947 | 0.00 | 0.00 | 0.00 | 0.00 |
| 05/09/26 11:55:27 AM | 36 | 4.0 | 10.0 | 64 | 41 | 73.3 | 82.7 | 29.901 | 7.26 | 6.0 | 946 | 0.00 | 0.00 | 0.00 | 0.00 |
| 05/09/26 11:56:19 AM | 36 | 4.0 | 10.0 | 64 | 41 | 73.3 | 82.8 | 29.898 | 7.26 | 6.0 | 953 | 0.00 | 0.00 | 0.00 | 0.00 |
| 05/09/26 11:57:27 AM | 34 | 2.0 | 10.0 | 64 | 41 | 73.3 | 82.8 | 29.900 | 7.26 | 6.0 | 953 | 0.00 | 0.00 | 0.00 | 0.00 |
| 05/09/26 11:58:19 AM | 32 | 2.0 | 10.0 | 64 | 40 | 73.4 | 82.8 | 29.898 | 7.26 | 6.1 | 954 | 0.00 | 0.00 | 0.00 | 0.00 |
| 05/09/26 11:59:32 AM | 37 | 1.0 | 10.0 | 64 | 40 | 73.5 | 82.7 | 29.895 | 7.26 | 6.1 | 954 | 0.00 | 0.00 | 0.00 | 0.00 |
| 05/09/26 12:00:27 PM | 38 | 3.0 | 10.0 | 64 | 41 | 73.5 | 82.8 | 29.891 | 7.26 | 6.1 | 953 | 0.00 | 0.00 | 0.00 | 0.00 |
| 05/09/26 12:01:17 PM | 32 | 2.0 | 10.0 | 64 | 41 | 73.5 | 82.9 | 29.893 | 7.26 | 6.1 | 951 | 0.00 | 0.00 | 0.00 | 0.00 |
| 05/09/26 12:02:24 PM | 36 | 1.0 | 10.0 | 64 | 40 | 73.6 | 82.9 | 29.893 | 7.26 | 6.1 | 954 | 0.00 | 0.00 | 0.00 | 0.00 |
| 05/09/26 12:03:34 PM | 36 | 4.0 | 10.0 | 64 | 40 | 73.6 | 82.9 | 29.894 | 7.26 | 6.1 | 951 | 0.00 | 0.00 | 0.00 | 0.00 |
| 05/09/26 12:04:26 PM | 31 | 4.0 | 10.0 | 64 | 40 | 73.6 | 83.0 | 29.896 | 7.26 | 6.1 | 951 | 0.00 | 0.00 | 0.00 | 0.00 |
| 05/09/26 12:05:19 PM | 38 | 5.0 | 10.0 | 64 | 40 | 73.7 | 83.1 | 29.889 | 7.26 | 6.1 | 954 | 0.00 | 0.00 | 0.00 | 0.00 |
| 05/09/26 12:06:32 PM | 32 | 3.0 | 10.0 | 64 | 40 | 73.7 | 83.1 | 29.890 | 7.26 | 6.2 | 958 | 0.00 | 0.00 | 0.00 | 0.00 |
| 05/09/26 12:07:24 PM | 32 | 2.0 | 10.0 | 64 | 39 | 73.7 | 83.1 | 29.891 | 7.26 | 6.2 | 956 | 0.00 | 0.00 | 0.00 | 0.00 |
| 05/09/26 12:08:31 PM | 38 | 2.0 | 10.0 | 64 | 40 | 73.7 | 83.3 | 29.892 | 7.26 | 6.2 | 956 | 0.00 | 0.00 | 0.00 | 0.00 |
| 05/09/26 12:09:23 PM | 36 | 3.0 | 10.0 | 64 | 40 | 73.8 | 83.4 | 29.889 | 7.26 | 6.2 | 954 | 0.00 | 0.00 | 0.00 | 0.00 |
| 05/09/26 12:10:34 PM | 36 | 2.0 | 10.0 | 64 | 39 | 73.8 | 83.4 | 29.891 | 7.26 | 6.2 | 965 | 0.00 | 0.00 | 0.00 | 0.00 |
| 05/09/26 12:11:26 PM | 32 | 3.0 | 10.0 | 64 | 39 | 73.8 | 83.3 | 29.892 | 7.26 | 6.2 | 967 | 0.00 | 0.00 | 0.00 | 0.00 |
| 05/09/26 12:12:18 PM | 36 | 2.0 | 10.0 | 64 | 38 | 73.8 | 83.2 | 29.891 | 7.26 | 6.3 | 967 | 0.00 | 0.00 | 0.00 | 0.00 |
| 05/09/26 12:13:28 PM | 38 | 3.0 | 10.0 | 64 | 39 | 73.9 | 83.1 | 29.890 | 7.26 | 6.2 | 967 | 0.00 | 0.00 | 0.00 | 0.00 |
| 05/09/26 12:14:20 PM | 34 | 3.0 | 10.0 | 64 | 39 | 73.9 | 83.0 | 29.893 | 7.26 | 6.2 | 969 | 0.00 | 0.00 | 0.00 | 0.00 |
| 05/09/26 12:15:34 PM | 35 | 0.0 | 10.0 | 64 | 39 | 73.9 | 83.0 | 29.892 | 7.26 | 6.3 | 974 | 0.00 | 0.00 | 0.00 | 0.00 |
| 05/09/26 12:16:23 PM | 35 | 4.0 | 10.0 | 64 | 40 | 73.9 | 83.1 | 29.893 | 7.26 | 6.3 | 972 | 0.00 | 0.00 | 0.00 | 0.00 |
| 05/09/26 12:17:15 PM | 37 | 2.0 | 10.0 | 64 | 39 | 74.0 | 83.2 | 29.893 | 7.26 | 6.3 | 969 | 0.00 | 0.00 | 0.00 | 0.00 |
| 05/09/26 12:18:26 PM | 34 | 2.0 | 10.0 | 64 | 38 | 74.0 | 83.3 | 29.892 | 7.26 | 6.3 | 965 | 0.00 | 0.00 | 0.00 | 0.00 |
| 05/09/26 12:19:18 PM | 38 | 4.0 | 10.0 | 64 | 39 | 74.0 | 83.5 | 29.892 | 7.26 | 6.3 | 969 | 0.00 | 0.00 | 0.00 | 0.00 |
| 05/09/26 12:20:31 PM | 36 | 2.0 | 10.0 | 64 | 38 | 74.1 | 83.6 | 29.893 | 7.26 | 6.3 | 969 | 0.00 | 0.00 | 0.00 | 0.00 |
| 05/09/26 12:21:20 PM | 34 | 2.0 | 10.0 | 64 | 38 | 74.1 | 83.7 | 29.890 | 7.26 | 6.3 | 967 | 0.00 | 0.00 | 0.00 | 0.00 |
| 05/09/26 12:22:31 PM | 36 | 3.0 | 10.0 | 64 | 38 | 74.2 | 83.9 | 29.890 | 7.26 | 6.3 | 967 | 0.00 | 0.00 | 0.00 | 0.00 |
| 05/09/26 12:23:23 PM | 35 | 5.0 | 10.0 | 64 | 38 | 74.2 | 84.1 | 29.888 | 7.26 | 6.3 | 969 | 0.00 | 0.00 | 0.00 | 0.00 |
| 05/09/26 12:24:31 PM | 36 | 3.0 | 10.0 | 64 | 37 | 74.2 | 84.1 | 29.891 | 7.26 | 6.3 | 976 | 0.00 | 0.00 | 0.00 | 0.00 |
| 05/09/26 12:25:23 PM | 38 | 4.0 | 10.0 | 64 | 37 | 74.2 | 84.2 | 29.891 | 7.26 | 6.4 | 981 | 0.00 | 0.00 | 0.00 | 0.00 |
| 05/09/26 12:26:33 PM | 35 | 9.0 | 10.0 | 64 | 38 | 74.2 | 84.3 | 29.891 | 7.26 | 6.4 | 1000 | 0.00 | 0.00 | 0.00 | 0.00 |
| 05/09/26 12:27:26 PM | 37 | 6.0 | 10.0 | 64 | 37 | 74.3 | 84.4 | 29.890 | 7.26 | 6.4 | 1000 | 0.00 | 0.00 | 0.00 | 0.00 |
| 05/09/26 12:28:21 PM | 37 | 4.0 | 10.0 | 64 | 38 | 74.3 | 84.4 | 29.890 | 7.26 | 6.4 | 1000 | 0.00 | 0.00 | 0.00 | 0.00 |
| 05/09/26 12:29:28 PM | 38 | 3.0 | 10.0 | 64 | 37 | 74.3 | 84.4 | 29.892 | 7.26 | 6.4 | 983 | 0.00 | 0.00 | 0.00 | 0.00 |
| 05/09/26 12:30:23 PM | 32 | 1.0 | 10.0 | 64 | 36 | 74.4 | 84.5 | 29.892 | 7.26 | 6.4 | 979 | 0.00 | 0.00 | 0.00 | 0.00 |
| 05/09/26 12:31:34 PM | 35 | 9.0 | 10.0 | 64 | 36 | 74.4 | 84.5 | 29.892 | 7.26 | 6.4 | 981 | 0.00 | 0.00 | 0.00 | 0.00 |
| 05/09/26 12:32:26 PM | 36 | 5.0 | 10.0 | 64 | 36 | 74.4 | 84.5 | 29.890 | 7.26 | 6.4 | 976 | 0.00 | 0.00 | 0.00 | 0.00 |
| 05/09/26 12:33:18 PM | 36 | 4.0 | 10.0 | 64 | 35 | 74.5 | 84.3 | 29.891 | 7.26 | 6.4 | 976 | 0.00 | 0.00 | 0.00 | 0.00 |
| 05/09/26 12:34:25 PM | 38 | 2.0 | 10.0 | 64 | 36 | 74.5 | 84.2 | 29.890 | 7.26 | 6.4 | 972 | 0.00 | 0.00 | 0.00 | 0.00 |
| 05/09/26 12:35:18 PM | 34 | 4.0 | 10.0 | 64 | 37 | 74.5 | 84.3 | 29.890 | 7.26 | 6.4 | 977 | 0.00 | 0.00 | 0.00 | 0.00 |
| 05/09/26 12:36:34 PM | 38 | 4.0 | 10.0 | 64 | 36 | 74.6 | 84.5 | 29.893 | 7.26 | 6.4 | 977 | 0.00 | 0.00 | 0.00 | 0.00 |
| 05/09/26 12:37:26 PM | 35 | 3.0 | 10.0 | 64 | 36 | 74.6 | 84.5 | 29.892 | 7.26 | 6.4 | 979 | 0.00 | 0.00 | 0.00 | 0.00 |
| 05/09/26 12:38:18 PM | 36 | 9.0 | 10.0 | 64 | 36 | 74.6 | 84.5 | 29.891 | 7.26 | 6.4 | 979 | 0.00 | 0.00 | 0.00 | 0.00 |
| 05/09/26 12:39:29 PM | 31 | 6.0 | 10.0 | 64 | 35 | 74.6 | 84.2 | 29.890 | 7.26 | 6.4 | 979 | 0.00 | 0.00 | 0.00 | 0.00 |
| 05/09/26 12:40:18 PM | 35 | 4.0 | 10.0 | 64 | 35 | 74.7 | 84.0 | 29.894 | 7.26 | 6.4 | 981 | 0.00 | 0.00 | 0.00 | 0.00 |
| 05/09/26 12:41:28 PM | 36 | 5.0 | 10.0 | 64 | 36 | 74.7 | 83.7 | 29.893 | 7.26 | 6.4 | 979 | 0.00 | 0.00 | 0.00 | 0.00 |
| 05/09/26 12:42:20 PM | 38 | 9.0 | 10.0 | 64 | 36 | 74.8 | 83.5 | 29.893 | 7.26 | 6.4 | 979 | 0.00 | 0.00 | 0.00 | 0.00 |
| 05/09/26 12:43:34 PM | 36 | 3.0 | 10.0 | 64 | 36 | 74.7 | 83.2 | 29.891 | 7.26 | 6.4 | 976 | 0.00 | 0.00 | 0.00 | 0.00 |
| 05/09/26 12:44:26 PM | 36 | 4.0 | 10.0 | 64 | 38 | 74.8 | 83.1 | 29.891 | 7.26 | 6.4 | 976 | 0.00 | 0.00 | 0.00 | 0.00 |
| 05/09/26 12:45:36 PM | 35 | 7.0 | 10.0 | 64 | 38 | 74.8 | 83.3 | 29.891 | 7.26 | 6.4 | 974 | 0.00 | 0.00 | 0.00 | 0.00 |
| 05/09/26 12:46:25 PM | 36 | 6.0 | 10.0 | 64 | 37 | 74.9 | 83.6 | 29.892 | 7.26 | 6.4 | 976 | 0.00 | 0.00 | 0.00 | 0.00 |
| 05/09/26 12:47:18 PM | 35 | 4.0 | 10.0 | 64 | 36 | 74.8 | 83.8 | 29.889 | 7.26 | 6.4 | 977 | 0.00 | 0.00 | 0.00 | 0.00 |
| 05/09/26 12:48:31 PM | 38 | 4.0 | 10.0 | 64 | 36 | 74.9 | 84.0 | 29.889 | 7.26 | 6.4 | 974 | 0.00 | 0.00 | 0.00 | 0.00 |
| 05/09/26 12:49:23 PM | 34 | 4.0 | 10.0 | 64 | 36 | 74.9 | 84.1 | 29.888 | 7.26 | 6.4 | 974 | 0.00 | 0.00 | 0.00 | 0.00 |
| 05/09/26 12:50:31 PM | 35 | 6.0 | 10.0 | 64 | 36 | 75.0 | 84.1 | 29.887 | 7.26 | 6.4 | 974 | 0.00 | 0.00 | 0.00 | 0.00 |
| 05/09/26 12:51:23 PM | 37 | 3.0 | 10.0 | 64 | 35 | 75.0 | 84.0 | 29.885 | 7.26 | 6.4 | 974 | 0.00 | 0.00 | 0.00 | 0.00 |
| 05/09/26 12:52:33 PM | 32 | 5.0 | 10.0 | 64 | 36 | 75.0 | 83.9 | 29.885 | 7.26 | 6.4 | 977 | 0.00 | 0.00 | 0.00 | 0.00 |
| 05/09/26 12:53:25 PM | 37 | 5.0 | 10.0 | 64 | 36 | 75.0 | 83.8 | 29.885 | 7.26 | 6.4 | 977 | 0.00 | 0.00 | 0.00 | 0.00 |
| 05/09/26 12:54:18 PM | 32 | 8.0 | 10.0 | 64 | 37 | 75.0 | 83.9 | 29.884 | 7.26 | 6.4 | 979 | 0.00 | 0.00 | 0.00 | 0.00 |
| 05/09/26 12:55:31 PM | 35 | 4.0 | 10.0 | 64 | 36 | 75.1 | 83.9 | 29.885 | 7.26 | 6.4 | 979 | 0.00 | 0.00 | 0.00 | 0.00 |
| 05/09/26 12:56:20 PM | 36 | 5.0 | 10.0 | 64 | 36 | 75.1 | 83.9 | 29.884 | 7.26 | 6.4 | 977 | 0.00 | 0.00 | 0.00 | 0.00 |
| 05/09/26 12:57:31 PM | 39 | 2.0 | 10.0 | 64 | 35 | 75.1 | 83.9 | 29.886 | 7.26 | 6.4 | 972 | 0.00 | 0.00 | 0.00 | 0.00 |
| 05/09/26 12:58:23 PM | 38 | 2.0 | 10.0 | 64 | 36 | 75.2 | 83.9 | 29.885 | 7.26 | 6.4 | 977 | 0.00 | 0.00 | 0.00 | 0.00 |
| 05/09/26 12:59:33 PM | 36 | 5.0 | 10.0 | 64 | 36 | 75.2 | 83.9 | 29.884 | 7.26 | 6.5 | 981 | 0.00 | 0.00 | 0.00 | 0.00 |
| 05/09/26 1:00:28 PM | 37 | 2.0 | 10.0 | 64 | 37 | 75.2 | 83.9 | 29.885 | 7.26 | 6.4 | 983 | 0.00 | 0.00 | 0.00 | 0.00 |
| 05/09/26 1:01:17 PM | 38 | 3.0 | 10.0 | 64 | 36 | 75.2 | 83.8 | 29.884 | 7.26 | 6.4 | 981 | 0.00 | 0.00 | 0.00 | 0.00 |
| 05/09/26 1:02:28 PM | 35 | 1.0 | 10.0 | 64 | 36 | 75.3 | 83.8 | 29.885 | 7.26 | 6.4 | 983 | 0.00 | 0.00 | 0.00 | 0.00 |
| 05/09/26 1:03:20 PM | 36 | 6.0 | 10.0 | 64 | 37 | 75.3 | 83.9 | 29.885 | 7.26 | 6.4 | 977 | 0.00 | 0.00 | 0.00 | 0.00 |
| 05/09/26 1:04:33 PM | 32 | 5.0 | 10.0 | 64 | 38 | 75.3 | 84.1 | 29.883 | 7.26 | 6.4 | 979 | 0.00 | 0.00 | 0.00 | 0.00 |
| 05/09/26 1:05:26 PM | 35 | 4.0 | 10.0 | 64 | 38 | 75.4 | 84.3 | 29.887 | 7.26 | 6.4 | 979 | 0.00 | 0.00 | 0.00 | 0.00 |
| 05/09/26 1:06:15 PM | 32 | 5.0 | 10.0 | 64 | 36 | 75.4 | 84.4 | 29.885 | 7.26 | 6.4 | 981 | 0.00 | 0.00 | 0.00 | 0.00 |
| 05/09/26 1:07:25 PM | 32 | 3.0 | 10.0 | 64 | 36 | 75.4 | 84.6 | 29.885 | 7.26 | 6.4 | 983 | 0.00 | 0.00 | 0.00 | 0.00 |
| 05/09/26 1:08:17 PM | 32 | 3.0 | 10.0 | 64 | 36 | 75.5 | 84.7 | 29.886 | 7.26 | 6.4 | 983 | 0.00 | 0.00 | 0.00 | 0.00 |
| 05/09/26 1:09:28 PM | 31 | 5.0 | 10.0 | 64 | 36 | 75.5 | 84.9 | 29.884 | 7.26 | 6.4 | 979 | 0.00 | 0.00 | 0.00 | 0.00 |
| 05/09/26 1:10:20 PM | 35 | 5.0 | 10.0 | 64 | 37 | 75.5 | 85.1 | 29.885 | 7.26 | 6.4 | 977 | 0.00 | 0.00 | 0.00 | 0.00 |
| 05/09/26 1:11:33 PM | 32 | 9.0 | 10.0 | 64 | 36 | 75.6 | 85.4 | 29.885 | 7.26 | 6.3 | 972 | 0.00 | 0.00 | 0.00 | 0.00 |
| 05/09/26 1:12:19 PM | 36 | 6.0 | 10.0 | 64 | 36 | 75.6 | 85.6 | 29.884 | 7.26 | 6.3 | 972 | 0.00 | 0.00 | 0.00 | 0.00 |
| 05/09/26 1:13:33 PM | 36 | 5.0 | 10.0 | 64 | 36 | 75.6 | 85.9 | 29.887 | 7.26 | 6.3 | 970 | 0.00 | 0.00 | 0.00 | 0.00 |
| 05/09/26 1:14:25 PM | 38 | 5.0 | 10.0 | 64 | 35 | 75.6 | 86.1 | 29.883 | 7.26 | 6.3 | 969 | 0.00 | 0.00 | 0.00 | 0.00 |
| 05/09/26 1:15:56 PM | 38 | 5.0 | 10.0 | 64 | 34 | 75.7 | 86.3 | 29.883 | 7.26 | 6.2 | 967 | 0.00 | 0.00 | 0.00 | 0.00 |
| 05/09/26 1:16:31 PM | 34 | 4.0 | 10.0 | 64 | 34 | 75.6 | 86.5 | 29.882 | 7.26 | 6.2 | 967 | 0.00 | 0.00 | 0.00 | 0.00 |
| 05/09/26 1:17:23 PM | 38 | 7.0 | 10.0 | 64 | 35 | 75.7 | 86.6 | 29.885 | 7.26 | 6.2 | 967 | 0.00 | 0.00 | 0.00 | 0.00 |
| 05/09/26 1:18:30 PM | 37 | 9.0 | 11.0 | 64 | 35 | 75.7 | 86.7 | 29.882 | 7.26 | 6.2 | 967 | 0.00 | 0.00 | 0.00 | 0.00 |
| 05/09/26 1:19:22 PM | 37 | 5.0 | 11.0 | 64 | 34 | 75.7 | 86.6 | 29.882 | 7.26 | 6.2 | 969 | 0.00 | 0.00 | 0.00 | 0.00 |
| 05/09/26 1:20:36 PM | 34 | 2.0 | 11.0 | 64 | 33 | 75.8 | 86.6 | 29.883 | 7.26 | 6.2 | 969 | 0.00 | 0.00 | 0.00 | 0.00 |
| 05/09/26 1:21:28 PM | 32 | 2.0 | 11.0 | 64 | 34 | 75.8 | 86.6 | 29.881 | 7.26 | 6.3 | 972 | 0.00 | 0.00 | 0.00 | 0.00 |
| 05/09/26 1:22:20 PM | 35 | 3.0 | 11.0 | 64 | 33 | 75.8 | 86.6 | 29.881 | 7.26 | 6.3 | 972 | 0.00 | 0.00 | 0.00 | 0.00 |
| 05/09/26 1:23:28 PM | 36 | 2.0 | 11.0 | 64 | 34 | 75.8 | 86.7 | 29.881 | 7.26 | 6.3 | 974 | 0.00 | 0.00 | 0.00 | 0.00 |
| 05/09/26 1:24:23 PM | 32 | 2.0 | 11.0 | 64 | 33 | 75.8 | 86.8 | 29.881 | 7.26 | 6.3 | 974 | 0.00 | 0.00 | 0.00 | 0.00 |
| 05/09/26 1:25:33 PM | 35 | 4.0 | 11.0 | 64 | 34 | 75.9 | 87.0 | 29.881 | 7.26 | 6.3 | 972 | 0.00 | 0.00 | 0.00 | 0.00 |
| 05/09/26 1:26:26 PM | 35 | 10.0 | 11.0 | 64 | 34 | 75.9 | 87.0 | 29.882 | 7.26 | 6.3 | 972 | 0.00 | 0.00 | 0.00 | 0.00 |
| 05/09/26 1:27:36 PM | 38 | 5.0 | 11.0 | 64 | 33 | 75.9 | 87.1 | 29.879 | 7.26 | 6.3 | 972 | 0.00 | 0.00 | 0.00 | 0.00 |
| 05/09/26 1:28:25 PM | 32 | 3.0 | 11.0 | 64 | 33 | 76.0 | 87.0 | 29.878 | 7.26 | 6.3 | 969 | 0.00 | 0.00 | 0.00 | 0.00 |
| 05/09/26 1:29:36 PM | 36 | 5.0 | 11.0 | 64 | 33 | 76.0 | 87.0 | 29.881 | 7.26 | 6.2 | 967 | 0.00 | 0.00 | 0.00 | 0.00 |
| 05/09/26 1:30:28 PM | 38 | 6.0 | 11.0 | 64 | 33 | 76.0 | 86.9 | 29.879 | 7.26 | 6.2 | 969 | 0.00 | 0.00 | 0.00 | 0.00 |
| 05/09/26 1:31:20 PM | 36 | 3.0 | 11.0 | 64 | 33 | 76.1 | 87.0 | 29.878 | 7.26 | 6.2 | 965 | 0.00 | 0.00 | 0.00 | 0.00 |
| 05/09/26 1:32:28 PM | 35 | 4.0 | 11.0 | 64 | 33 | 76.1 | 86.9 | 29.881 | 7.26 | 6.2 | 965 | 0.00 | 0.00 | 0.00 | 0.00 |
| 05/09/26 1:33:20 PM | 38 | 4.0 | 11.0 | 64 | 32 | 76.2 | 86.9 | 29.878 | 7.26 | 6.2 | 963 | 0.00 | 0.00 | 0.00 | 0.00 |
| 05/09/26 1:34:30 PM | 32 | 3.0 | 11.0 | 64 | 32 | 76.2 | 86.7 | 29.879 | 7.26 | 6.2 | 965 | 0.00 | 0.00 | 0.00 | 0.00 |
| 05/09/26 1:35:22 PM | 35 | 1.0 | 11.0 | 64 | 33 | 76.2 | 86.6 | 29.878 | 7.26 | 6.2 | 965 | 0.00 | 0.00 | 0.00 | 0.00 |
| 05/09/26 1:36:33 PM | 29 | 0.0 | 11.0 | 64 | 33 | 76.2 | 86.6 | 29.877 | 7.26 | 6.2 | 969 | 0.00 | 0.00 | 0.00 | 0.00 |
| 05/09/26 1:37:25 PM | 36 | 3.0 | 11.0 | 64 | 34 | 76.2 | 86.7 | 29.878 | 7.26 | 6.2 | 963 | 0.00 | 0.00 | 0.00 | 0.00 |
| 05/09/26 1:38:35 PM | 38 | 1.0 | 11.0 | 64 | 32 | 76.3 | 86.9 | 29.879 | 7.26 | 6.2 | 965 | 0.00 | 0.00 | 0.00 | 0.00 |
| 05/09/26 1:39:25 PM | 36 | 3.0 | 11.0 | 64 | 32 | 76.3 | 86.9 | 29.879 | 7.26 | 6.1 | 962 | 0.00 | 0.00 | 0.00 | 0.00 |
| 05/09/26 1:40:35 PM | 31 | 2.0 | 11.0 | 64 | 32 | 76.2 | 86.9 | 29.877 | 7.26 | 6.1 | 962 | 0.00 | 0.00 | 0.00 | 0.00 |
| 05/09/26 1:41:27 PM | 35 | 2.0 | 11.0 | 64 | 32 | 76.3 | 86.8 | 29.878 | 7.26 | 6.1 | 962 | 0.00 | 0.00 | 0.00 | 0.00 |
| 05/09/26 1:42:20 PM | 37 | 3.0 | 11.0 | 64 | 32 | 76.3 | 86.8 | 29.878 | 7.26 | 6.1 | 962 | 0.00 | 0.00 | 0.00 | 0.00 |
| 05/09/26 1:43:33 PM | 31 | 2.0 | 11.0 | 64 | 32 | 76.4 | 87.0 | 29.879 | 7.26 | 6.1 | 960 | 0.00 | 0.00 | 0.00 | 0.00 |
| 05/09/26 1:44:19 PM | 38 | 4.0 | 11.0 | 64 | 33 | 76.4 | 87.1 | 29.875 | 7.26 | 6.1 | 960 | 0.00 | 0.00 | 0.00 | 0.00 |
| 05/09/26 1:45:36 PM | 38 | 6.0 | 11.0 | 64 | 33 | 76.4 | 87.3 | 29.878 | 7.26 | 6.1 | 960 | 0.00 | 0.00 | 0.00 | 0.00 |
| 05/09/26 1:46:25 PM | 32 | 4.0 | 11.0 | 64 | 32 | 76.4 | 87.4 | 29.875 | 7.26 | 6.1 | 962 | 0.00 | 0.00 | 0.00 | 0.00 |
| 05/09/26 1:47:36 PM | 38 | 5.0 | 11.0 | 64 | 32 | 76.4 | 87.5 | 29.878 | 7.26 | 6.1 | 962 | 0.00 | 0.00 | 0.00 | 0.00 |
| 05/09/26 1:48:28 PM | 32 | 9.0 | 11.0 | 64 | 32 | 76.5 | 87.5 | 29.876 | 7.26 | 6.0 | 962 | 0.00 | 0.00 | 0.00 | 0.00 |
| 05/09/26 1:49:20 PM | 32 | 10.0 | 11.0 | 64 | 32 | 76.5 | 87.5 | 29.879 | 7.26 | 6.0 | 960 | 0.00 | 0.00 | 0.00 | 0.00 |
| 05/09/26 1:50:28 PM | 32 | 10.0 | 11.0 | 64 | 32 | 76.5 | 87.5 | 29.876 | 7.26 | 6.0 | 960 | 0.00 | 0.00 | 0.00 | 0.00 |
| 05/09/26 1:51:20 PM | 32 | 10.0 | 11.0 | 64 | 32 | 76.5 | 87.5 | 29.876 | 7.26 | 6.0 | 960 | 0.00 | 0.00 | 0.00 | 0.00 |
| 05/09/26 1:52:33 PM | 32 | 10.0 | 11.0 | 64 | 32 | 76.6 | 87.5 | 29.876 | 7.26 | 6.0 | 960 | 0.00 | 0.00 | 0.00 | 0.00 |
| 05/09/26 1:54:47 PM | 36 | 3.0 | 11.0 | 64 | 31 | 76.7 | 87.4 | 29.877 | 7.26 | 5.9 | 949 | 0.00 | 0.00 | 0.00 | 0.00 |
| 05/09/26 1:55:18 PM | 36 | 3.0 | 11.0 | 64 | 31 | 76.7 | 87.3 | 29.875 | 7.26 | 5.9 | 949 | 0.00 | 0.00 | 0.00 | 0.00 |
| 05/09/26 1:56:28 PM | 32 | 1.0 | 11.0 | 64 | 31 | 76.8 | 87.3 | 29.875 | 7.26 | 5.9 | 947 | 0.00 | 0.00 | 0.00 | 0.00 |
| 05/09/26 1:57:18 PM | 32 | 2.0 | 11.0 | 64 | 31 | 76.8 | 87.2 | 29.874 | 7.26 | 5.8 | 947 | 0.00 | 0.00 | 0.00 | 0.00 |
| 05/09/26 1:58:28 PM | 38 | 0.0 | 11.0 | 64 | 31 | 76.8 | 87.1 | 29.874 | 7.26 | 5.9 | 946 | 0.00 | 0.00 | 0.00 | 0.00 |
| 05/09/26 1:59:20 PM | 34 | 3.0 | 11.0 | 64 | 32 | 76.8 | 87.1 | 29.874 | 7.26 | 5.8 | 944 | 0.00 | 0.00 | 0.00 | 0.00 |
| 05/09/26 2:00:55 PM | 36 | 4.0 | 11.0 | 64 | 32 | 76.8 | 87.3 | 29.874 | 7.26 | 5.8 | 944 | 0.00 | 0.00 | 0.00 | 0.00 |
| 05/09/26 2:01:29 PM | 37 | 5.0 | 11.0 | 64 | 33 | 76.9 | 87.5 | 29.876 | 7.26 | 5.8 | 944 | 0.00 | 0.00 | 0.00 | 0.00 |
| 05/09/26 2:02:36 PM | 38 | 5.0 | 11.0 | 64 | 34 | 76.9 | 87.9 | 29.874 | 7.26 | 5.8 | 942 | 0.00 | 0.00 | 0.00 | 0.00 |
| 05/09/26 2:03:26 PM | 32 | 9.0 | 11.0 | 64 | 33 | 76.9 | 88.1 | 29.872 | 7.26 | 5.8 | 942 | 0.00 | 0.00 | 0.00 | 0.00 |
| 05/09/26 2:04:21 PM | 36 | 5.0 | 11.0 | 64 | 31 | 77.0 | 88.2 | 29.873 | 7.26 | 5.7 | 939 | 0.00 | 0.00 | 0.00 | 0.00 |
| 05/09/26 2:05:31 PM | 30 | 8.0 | 11.0 | 64 | 30 | 76.9 | 88.3 | 29.868 | 7.26 | 5.7 | 935 | 0.00 | 0.00 | 0.00 | 0.00 |
| 05/09/26 2:06:24 PM | 31 | 3.0 | 11.0 | 64 | 30 | 77.0 | 88.4 | 29.871 | 7.26 | 5.6 | 935 | 0.00 | 0.00 | 0.00 | 0.00 |
| 05/09/26 2:07:31 PM | 36 | 3.0 | 11.0 | 64 | 31 | 77.0 | 88.3 | 29.870 | 7.26 | 5.7 | 933 | 0.00 | 0.00 | 0.00 | 0.00 |
| 05/09/26 2:08:23 PM | 32 | 2.0 | 11.0 | 64 | 30 | 77.0 | 88.3 | 29.868 | 7.26 | 5.6 | 932 | 0.00 | 0.00 | 0.00 | 0.00 |
| 05/09/26 2:09:37 PM | 36 | 2.0 | 11.0 | 64 | 30 | 77.1 | 88.3 | 29.868 | 7.26 | 5.6 | 935 | 0.00 | 0.00 | 0.00 | 0.00 |
| 05/09/26 2:10:26 PM | 36 | 4.0 | 11.0 | 64 | 30 | 77.1 | 88.3 | 29.868 | 7.26 | 5.7 | 935 | 0.00 | 0.00 | 0.00 | 0.00 |
| 05/09/26 2:11:21 PM | 36 | 7.0 | 11.0 | 64 | 31 | 77.0 | 88.3 | 29.868 | 7.26 | 5.7 | 933 | 0.00 | 0.00 | 0.00 | 0.00 |
| 05/09/26 2:12:29 PM | 38 | 4.0 | 11.0 | 64 | 30 | 77.1 | 88.4 | 29.868 | 7.26 | 5.6 | 930 | 0.00 | 0.00 | 0.00 | 0.00 |
| 05/09/26 2:13:21 PM | 35 | 5.0 | 11.0 | 64 | 30 | 77.1 | 88.4 | 29.866 | 7.26 | 5.6 | 926 | 0.00 | 0.00 | 0.00 | 0.00 |
| 05/09/26 2:14:31 PM | 32 | 6.0 | 11.0 | 64 | 30 | 77.1 | 88.3 | 29.868 | 7.26 | 5.6 | 928 | 0.00 | 0.00 | 0.00 | 0.00 |
| 05/09/26 2:15:48 PM | 37 | 4.0 | 11.0 | 64 | 30 | 77.2 | 88.3 | 29.867 | 7.26 | 5.6 | 932 | 0.00 | 0.00 | 0.00 | 0.00 |
| 05/09/26 2:16:37 PM | 35 | 10.0 | 11.0 | 64 | 30 | 77.2 | 88.4 | 29.867 | 7.26 | 5.6 | 930 | 0.00 | 0.00 | 0.00 | 0.00 |
| 05/09/26 2:17:29 PM | 37 | 11.0 | 12.0 | 64 | 30 | 77.2 | 88.4 | 29.866 | 7.26 | 5.5 | 930 | 0.00 | 0.00 | 0.00 | 0.00 |
| 05/09/26 2:18:16 PM | 38 | 10.0 | 12.0 | 64 | 29 | 77.2 | 88.4 | 29.864 | 7.26 | 5.5 | 925 | 0.00 | 0.00 | 0.00 | 0.00 |
| 05/09/26 2:19:29 PM | 36 | 3.0 | 12.0 | 64 | 29 | 77.2 | 88.4 | 29.865 | 7.26 | 5.5 | 921 | 0.00 | 0.00 | 0.00 | 0.00 |
| 05/09/26 2:20:21 PM | 32 | 6.0 | 12.0 | 64 | 30 | 77.2 | 88.4 | 29.865 | 7.26 | 5.4 | 918 | 0.00 | 0.00 | 0.00 | 0.00 |
| 05/09/26 2:21:32 PM | 36 | 7.0 | 12.0 | 64 | 31 | 77.2 | 88.4 | 29.863 | 7.26 | 5.4 | 914 | 0.00 | 0.00 | 0.00 | 0.00 |
| 05/09/26 2:22:24 PM | 37 | 6.0 | 12.0 | 64 | 31 | 77.3 | 88.5 | 29.863 | 7.26 | 5.4 | 916 | 0.00 | 0.00 | 0.00 | 0.00 |
| 05/09/26 2:23:32 PM | 38 | 7.0 | 12.0 | 64 | 30 | 77.2 | 88.5 | 29.866 | 7.26 | 5.4 | 912 | 0.00 | 0.00 | 0.00 | 0.00 |
| 05/09/26 2:24:24 PM | 37 | 5.0 | 12.0 | 64 | 30 | 77.2 | 88.5 | 29.864 | 7.26 | 5.3 | 914 | 0.00 | 0.00 | 0.00 | 0.00 |
| 05/09/26 2:25:34 PM | 37 | 5.0 | 12.0 | 64 | 30 | 77.3 | 88.5 | 29.865 | 7.26 | 5.3 | 914 | 0.00 | 0.00 | 0.00 | 0.00 |
| 05/09/26 2:26:27 PM | 37 | 5.0 | 12.0 | 64 | 30 | 77.3 | 88.5 | 29.865 | 7.26 | 5.3 | 914 | 0.00 | 0.00 | 0.00 | 0.00 |
| 05/09/26 2:27:19 PM | 37 | 5.0 | 12.0 | 64 | 30 | 77.4 | 88.5 | 29.865 | 7.26 | 5.3 | 914 | 0.00 | 0.00 | 0.00 | 0.00 |
| 05/09/26 2:28:32 PM | 35 | 3.0 | 12.0 | 64 | 30 | 77.4 | 88.6 | 29.865 | 7.26 | 5.3 | 907 | 0.00 | 0.00 | 0.00 | 0.00 |
| 05/09/26 2:29:19 PM | 36 | 1.0 | 12.0 | 64 | 29 | 77.5 | 88.7 | 29.864 | 7.26 | 5.3 | 904 | 0.00 | 0.00 | 0.00 | 0.00 |
| 05/09/26 2:30:53 PM | 35 | 7.0 | 12.0 | 64 | 30 | 77.5 | 88.9 | 29.861 | 7.26 | 5.2 | 902 | 0.00 | 0.00 | 0.00 | 0.00 |
| 05/09/26 2:31:25 PM | 36 | 10.0 | 12.0 | 64 | 30 | 77.5 | 89.1 | 29.859 | 7.26 | 5.2 | 898 | 0.00 | 0.00 | 0.00 | 0.00 |
| 05/09/26 2:32:35 PM | 38 | 4.0 | 12.0 | 64 | 28 | 77.5 | 89.3 | 29.861 | 7.26 | 5.1 | 896 | 0.00 | 0.00 | 0.00 | 0.00 |
| 05/09/26 2:33:27 PM | 32 | 3.0 | 12.0 | 64 | 29 | 77.5 | 89.3 | 29.860 | 7.26 | 5.1 | 896 | 0.00 | 0.00 | 0.00 | 0.00 |
| 05/09/26 2:34:19 PM | 37 | 10.0 | 12.0 | 64 | 28 | 77.5 | 89.3 | 29.861 | 7.26 | 5.1 | 895 | 0.00 | 0.00 | 0.00 | 0.00 |
| 05/09/26 2:35:27 PM | 39 | 9.0 | 12.0 | 64 | 28 | 77.6 | 89.3 | 29.856 | 7.26 | 5.1 | 895 | 0.00 | 0.00 | 0.00 | 0.00 |
| 05/09/26 2:36:19 PM | 34 | 8.0 | 12.0 | 64 | 28 | 77.6 | 89.2 | 29.857 | 7.26 | 5.1 | 895 | 0.00 | 0.00 | 0.00 | 0.00 |
| 05/09/26 2:37:32 PM | 35 | 9.0 | 15.0 | 64 | 29 | 77.6 | 89.2 | 29.860 | 7.26 | 5.0 | 889 | 0.00 | 0.00 | 0.00 | 0.00 |
| 05/09/26 2:38:28 PM | 37 | 1.0 | 15.0 | 64 | 27 | 77.6 | 89.1 | 29.859 | 7.26 | 5.0 | 886 | 0.00 | 0.00 | 0.00 | 0.00 |
| 05/09/26 2:39:17 PM | 37 | 7.0 | 15.0 | 64 | 27 | 77.6 | 89.1 | 29.859 | 7.26 | 5.0 | 884 | 0.00 | 0.00 | 0.00 | 0.00 |
| 05/09/26 2:40:28 PM | 38 | 1.0 | 15.0 | 64 | 27 | 77.6 | 89.0 | 29.858 | 7.26 | 5.0 | 884 | 0.00 | 0.00 | 0.00 | 0.00 |
| 05/09/26 2:41:17 PM | 37 | 2.0 | 15.0 | 64 | 27 | 77.7 | 88.9 | 29.856 | 7.26 | 5.0 | 884 | 0.00 | 0.00 | 0.00 | 0.00 |
| 05/09/26 2:42:31 PM | 37 | 4.0 | 15.0 | 64 | 27 | 77.6 | 88.8 | 29.856 | 7.26 | 5.0 | 884 | 0.00 | 0.00 | 0.00 | 0.00 |
| 05/09/26 2:43:23 PM | 37 | 4.0 | 15.0 | 64 | 27 | 77.7 | 88.8 | 29.856 | 7.26 | 4.9 | 884 | 0.00 | 0.00 | 0.00 | 0.00 |
| 05/09/26 2:44:36 PM | 36 | 7.0 | 15.0 | 64 | 29 | 77.7 | 88.8 | 29.853 | 7.26 | 4.9 | 882 | 0.00 | 0.00 | 0.00 | 0.00 |
| 05/09/26 2:45:26 PM | 32 | 2.0 | 15.0 | 64 | 27 | 77.7 | 88.8 | 29.853 | 7.26 | 4.9 | 881 | 0.00 | 0.00 | 0.00 | 0.00 |
| 05/09/26 2:46:15 PM | 32 | 2.0 | 15.0 | 64 | 27 | 77.7 | 88.7 | 29.854 | 7.26 | 4.9 | 879 | 0.00 | 0.00 | 0.00 | 0.00 |
| 05/09/26 2:47:28 PM | 34 | 2.0 | 15.0 | 64 | 27 | 77.7 | 88.6 | 29.854 | 7.26 | 4.9 | 877 | 0.00 | 0.00 | 0.00 | 0.00 |
| 05/09/26 2:48:21 PM | 36 | 3.0 | 15.0 | 64 | 27 | 77.7 | 88.6 | 29.853 | 7.26 | 4.9 | 870 | 0.00 | 0.00 | 0.00 | 0.00 |
| 05/09/26 2:49:34 PM | 35 | 7.0 | 15.0 | 64 | 29 | 77.7 | 88.7 | 29.851 | 7.26 | 4.8 | 870 | 0.00 | 0.00 | 0.00 | 0.00 |
| 05/09/26 2:50:24 PM | 37 | 5.0 | 15.0 | 64 | 29 | 77.7 | 88.9 | 29.854 | 7.26 | 4.8 | 872 | 0.00 | 0.00 | 0.00 | 0.00 |
| 05/09/26 2:51:34 PM | 36 | 3.0 | 15.0 | 64 | 27 | 77.7 | 89.0 | 29.855 | 7.26 | 4.8 | 870 | 0.00 | 0.00 | 0.00 | 0.00 |
| 05/09/26 2:52:27 PM | 34 | 3.0 | 15.0 | 64 | 29 | 77.7 | 89.1 | 29.853 | 7.26 | 4.8 | 870 | 0.00 | 0.00 | 0.00 | 0.00 |
| 05/09/26 2:53:16 PM | 36 | 3.0 | 15.0 | 64 | 28 | 77.7 | 89.2 | 29.851 | 7.26 | 4.7 | 870 | 0.00 | 0.00 | 0.00 | 0.00 |
| 05/09/26 2:54:30 PM | 34 | 6.0 | 15.0 | 64 | 28 | 77.7 | 89.4 | 29.853 | 7.26 | 4.7 | 870 | 0.00 | 0.00 | 0.00 | 0.00 |
| 05/09/26 2:55:22 PM | 36 | 9.0 | 15.0 | 64 | 26 | 77.8 | 89.5 | 29.854 | 7.26 | 4.7 | 861 | 0.00 | 0.00 | 0.00 | 0.00 |
| 05/09/26 2:56:30 PM | 38 | 7.0 | 15.0 | 64 | 26 | 77.7 | 89.5 | 29.852 | 7.26 | 4.7 | 860 | 0.00 | 0.00 | 0.00 | 0.00 |
| 05/09/26 2:57:22 PM | 31 | 8.0 | 15.0 | 64 | 27 | 77.8 | 89.5 | 29.852 | 7.26 | 4.6 | 860 | 0.00 | 0.00 | 0.00 | 0.00 |
| 05/09/26 2:58:33 PM | 32 | 6.0 | 15.0 | 64 | 26 | 77.8 | 89.4 | 29.850 | 7.26 | 4.6 | 856 | 0.00 | 0.00 | 0.00 | 0.00 |
| 05/09/26 2:59:25 PM | 34 | 5.0 | 15.0 | 64 | 25 | 77.8 | 89.4 | 29.851 | 7.26 | 4.6 | 853 | 0.00 | 0.00 | 0.00 | 0.00 |
| 05/09/26 3:00:39 PM | 38 | 6.0 | 15.0 | 64 | 25 | 77.8 | 89.4 | 29.851 | 7.26 | 4.6 | 849 | 0.00 | 0.00 | 0.00 | 0.00 |
| 05/09/26 3:01:31 PM | 32 | 3.0 | 15.0 | 64 | 25 | 77.8 | 89.3 | 29.851 | 7.26 | 4.5 | 847 | 0.00 | 0.00 | 0.00 | 0.00 |
| 05/09/26 3:02:21 PM | 32 | 4.0 | 15.0 | 64 | 26 | 77.8 | 89.3 | 29.853 | 7.26 | 4.5 | 846 | 0.00 | 0.00 | 0.00 | 0.00 |
| 05/09/26 3:03:31 PM | 35 | 4.0 | 15.0 | 64 | 26 | 77.8 | 89.4 | 29.850 | 7.26 | 4.5 | 844 | 0.00 | 0.00 | 0.00 | 0.00 |
| 05/09/26 3:04:24 PM | 35 | 5.0 | 15.0 | 64 | 26 | 77.9 | 89.5 | 29.851 | 7.26 | 4.4 | 842 | 0.00 | 0.00 | 0.00 | 0.00 |
| 05/09/26 3:05:16 PM | 36 | 3.0 | 15.0 | 64 | 26 | 77.9 | 89.4 | 29.851 | 7.26 | 4.4 | 837 | 0.00 | 0.00 | 0.00 | 0.00 |
| 05/09/26 3:06:27 PM | 32 | 3.0 | 15.0 | 64 | 26 | 77.9 | 89.4 | 29.849 | 7.26 | 4.4 | 837 | 0.00 | 0.00 | 0.00 | 0.00 |
| 05/09/26 3:07:16 PM | 38 | 3.0 | 15.0 | 64 | 26 | 77.9 | 89.4 | 29.848 | 7.26 | 4.3 | 831 | 0.00 | 0.00 | 0.00 | 0.00 |
| 05/09/26 3:08:27 PM | 37 | 7.0 | 15.0 | 64 | 26 | 78.0 | 89.4 | 29.852 | 7.26 | 4.3 | 831 | 0.00 | 0.00 | 0.00 | 0.00 |
| 05/09/26 3:09:19 PM | 32 | 3.0 | 15.0 | 64 | 26 | 78.0 | 89.4 | 29.848 | 7.26 | 4.3 | 830 | 0.00 | 0.00 | 0.00 | 0.00 |
| 05/09/26 3:10:33 PM | 34 | 4.0 | 15.0 | 64 | 27 | 77.9 | 89.5 | 29.851 | 7.26 | 4.3 | 823 | 0.00 | 0.00 | 0.00 | 0.00 |
| 05/09/26 3:11:22 PM | 38 | 3.0 | 15.0 | 64 | 27 | 78.0 | 89.6 | 29.850 | 7.26 | 4.2 | 823 | 0.00 | 0.00 | 0.00 | 0.00 |
| 05/09/26 3:12:33 PM | 32 | 3.0 | 15.0 | 64 | 26 | 78.0 | 89.6 | 29.848 | 7.26 | 4.2 | 819 | 0.00 | 0.00 | 0.00 | 0.00 |
| 05/09/26 3:13:25 PM | 30 | 0.0 | 15.0 | 64 | 25 | 78.0 | 89.6 | 29.851 | 7.26 | 4.2 | 817 | 0.00 | 0.00 | 0.00 | 0.00 |
| 05/09/26 3:14:18 PM | 32 | 3.0 | 15.0 | 64 | 26 | 78.0 | 89.6 | 29.850 | 7.26 | 4.2 | 814 | 0.00 | 0.00 | 0.00 | 0.00 |
| 05/09/26 3:15:28 PM | 36 | 3.0 | 15.0 | 64 | 27 | 78.1 | 89.7 | 29.848 | 7.26 | 4.1 | 809 | 0.00 | 0.00 | 0.00 | 0.00 |
| 05/09/26 3:16:21 PM | 35 | 3.0 | 15.0 | 64 | 26 | 78.1 | 89.7 | 29.850 | 7.26 | 4.1 | 807 | 0.00 | 0.00 | 0.00 | 0.00 |
| 05/09/26 3:17:32 PM | 39 | 9.0 | 15.0 | 64 | 25 | 78.1 | 89.7 | 29.849 | 7.26 | 4.1 | 810 | 0.00 | 0.00 | 0.00 | 0.00 |
| 05/09/26 3:18:21 PM | 37 | 7.0 | 15.0 | 64 | 27 | 78.0 | 89.7 | 29.847 | 7.26 | 4.0 | 807 | 0.00 | 0.00 | 0.00 | 0.00 |
| 05/09/26 3:19:31 PM | 36 | 2.0 | 15.0 | 64 | 26 | 78.1 | 89.7 | 29.849 | 7.26 | 4.0 | 807 | 0.00 | 0.00 | 0.00 | 0.00 |
| 05/09/26 3:20:27 PM | 38 | 5.0 | 15.0 | 64 | 26 | 78.0 | 89.7 | 29.846 | 7.26 | 4.0 | 803 | 0.00 | 0.00 | 0.00 | 0.00 |
| 05/09/26 3:21:16 PM | 36 | 9.0 | 15.0 | 64 | 26 | 78.1 | 89.7 | 29.847 | 7.26 | 4.0 | 803 | 0.00 | 0.00 | 0.00 | 0.00 |
| 05/09/26 3:22:30 PM | 32 | 3.0 | 15.0 | 64 | 27 | 78.1 | 89.7 | 29.847 | 7.26 | 4.0 | 798 | 0.00 | 0.00 | 0.00 | 0.00 |
| 05/09/26 3:23:16 PM | 36 | 2.0 | 15.0 | 64 | 26 | 78.1 | 89.7 | 29.845 | 7.26 | 3.9 | 795 | 0.00 | 0.00 | 0.00 | 0.00 |
| 05/09/26 3:24:30 PM | 32 | 8.0 | 15.0 | 64 | 27 | 78.2 | 89.7 | 29.842 | 7.26 | 3.9 | 793 | 0.00 | 0.00 | 0.00 | 0.00 |
| 05/09/26 3:25:20 PM | 36 | 6.0 | 15.0 | 64 | 25 | 78.1 | 89.5 | 29.846 | 7.26 | 3.9 | 793 | 0.00 | 0.00 | 0.00 | 0.00 |
| 05/09/26 3:26:33 PM | 26 | 3.0 | 15.0 | 64 | 25 | 78.1 | 89.3 | 29.842 | 7.26 | 3.9 | 780 | 0.00 | 0.00 | 0.00 | 0.00 |
| 05/09/26 3:27:26 PM | 35 | 0.0 | 15.0 | 64 | 25 | 78.2 | 89.1 | 29.842 | 7.26 | 3.8 | 779 | 0.00 | 0.00 | 0.00 | 0.00 |
| 05/09/26 3:28:15 PM | 34 | 1.0 | 15.0 | 64 | 25 | 78.1 | 89.1 | 29.842 | 7.26 | 3.8 | 779 | 0.00 | 0.00 | 0.00 | 0.00 |
| 05/09/26 3:29:23 PM | 36 | 9.0 | 15.0 | 64 | 26 | 78.1 | 89.1 | 29.842 | 7.26 | 3.7 | 770 | 0.00 | 0.00 | 0.00 | 0.00 |
| 05/09/26 3:30:57 PM | 31 | 9.0 | 15.0 | 64 | 26 | 78.1 | 89.3 | 29.841 | 7.26 | 3.7 | 768 | 0.00 | 0.00 | 0.00 | 0.00 |
| 05/09/26 3:31:29 PM | 36 | 4.0 | 15.0 | 64 | 26 | 78.2 | 89.4 | 29.841 | 7.26 | 3.7 | 768 | 0.00 | 0.00 | 0.00 | 0.00 |
| 05/09/26 3:32:21 PM | 38 | 5.0 | 15.0 | 64 | 26 | 78.2 | 89.4 | 29.839 | 7.26 | 3.6 | 765 | 0.00 | 0.00 | 0.00 | 0.00 |
| 05/09/26 3:33:32 PM | 37 | 4.0 | 15.0 | 64 | 27 | 78.2 | 89.4 | 29.842 | 7.26 | 3.6 | 766 | 0.00 | 0.00 | 0.00 | 0.00 |
| 05/09/26 3:34:22 PM | 36 | 2.0 | 15.0 | 64 | 28 | 78.2 | 89.5 | 29.840 | 7.26 | 3.6 | 765 | 0.00 | 0.00 | 0.00 | 0.00 |
| 05/09/26 3:35:32 PM | 36 | 11.0 | 15.0 | 64 | 27 | 78.2 | 89.6 | 29.842 | 7.26 | 3.6 | 763 | 0.00 | 0.00 | 0.00 | 0.00 |
| 05/09/26 3:36:24 PM | 31 | 9.0 | 15.0 | 64 | 26 | 78.2 | 89.6 | 29.839 | 7.26 | 3.6 | 763 | 0.00 | 0.00 | 0.00 | 0.00 |
| 05/09/26 3:37:35 PM | 38 | 9.0 | 15.0 | 64 | 26 | 78.2 | 89.4 | 29.838 | 7.26 | 3.5 | 759 | 0.00 | 0.00 | 0.00 | 0.00 |
| 05/09/26 3:38:27 PM | 34 | 5.0 | 15.0 | 64 | 27 | 78.2 | 89.3 | 29.839 | 7.26 | 3.5 | 759 | 0.00 | 0.00 | 0.00 | 0.00 |
| 05/09/26 3:39:20 PM | 32 | 3.0 | 15.0 | 64 | 27 | 78.2 | 89.2 | 29.839 | 7.26 | 3.5 | 754 | 0.00 | 0.00 | 0.00 | 0.00 |
| 05/09/26 3:40:27 PM | 38 | 4.0 | 15.0 | 64 | 26 | 78.3 | 89.1 | 29.840 | 7.26 | 3.4 | 752 | 0.00 | 0.00 | 0.00 | 0.00 |
| 05/09/26 3:41:20 PM | 34 | 5.0 | 15.0 | 64 | 26 | 78.3 | 89.1 | 29.840 | 7.26 | 3.4 | 747 | 0.00 | 0.00 | 0.00 | 0.00 |
| 05/09/26 3:42:30 PM | 38 | 9.0 | 15.0 | 64 | 26 | 78.3 | 89.0 | 29.841 | 7.26 | 3.4 | 747 | 0.00 | 0.00 | 0.00 | 0.00 |
| 05/09/26 3:43:23 PM | 36 | 6.0 | 15.0 | 64 | 26 | 78.3 | 89.0 | 29.837 | 7.26 | 3.4 | 744 | 0.00 | 0.00 | 0.00 | 0.00 |
| 05/09/26 3:44:33 PM | 32 | 5.0 | 15.0 | 64 | 27 | 78.3 | 89.1 | 29.838 | 7.26 | 3.3 | 744 | 0.00 | 0.00 | 0.00 | 0.00 |
| 05/09/26 3:45:26 PM | 32 | 5.0 | 15.0 | 64 | 27 | 78.3 | 89.1 | 29.840 | 7.26 | 3.3 | 740 | 0.00 | 0.00 | 0.00 | 0.00 |
| 05/09/26 3:46:36 PM | 35 | 2.0 | 15.0 | 64 | 28 | 78.3 | 89.1 | 29.837 | 7.26 | 3.3 | 731 | 0.00 | 0.00 | 0.00 | 0.00 |
| 05/09/26 3:47:29 PM | 35 | 2.0 | 15.0 | 64 | 26 | 78.3 | 89.2 | 29.838 | 7.26 | 3.2 | 728 | 0.00 | 0.00 | 0.00 | 0.00 |
| 05/09/26 3:48:19 PM | 35 | 5.0 | 15.0 | 64 | 27 | 78.3 | 89.2 | 29.836 | 7.26 | 3.2 | 728 | 0.00 | 0.00 | 0.00 | 0.00 |
| 05/09/26 3:49:32 PM | 36 | 6.0 | 15.0 | 64 | 29 | 78.3 | 89.2 | 29.836 | 7.26 | 3.2 | 721 | 0.00 | 0.00 | 0.00 | 0.00 |
| 05/09/26 3:50:19 PM | 36 | 6.0 | 15.0 | 64 | 29 | 78.3 | 89.2 | 29.837 | 7.26 | 3.1 | 719 | 0.00 | 0.00 | 0.00 | 0.00 |
| 05/09/26 3:51:32 PM | 31 | 9.0 | 15.0 | 64 | 29 | 78.3 | 89.2 | 29.837 | 7.26 | 3.1 | 717 | 0.00 | 0.00 | 0.00 | 0.00 |
| 05/09/26 3:52:25 PM | 38 | 12.0 | 15.0 | 64 | 30 | 78.3 | 89.2 | 29.838 | 7.26 | 3.1 | 714 | 0.00 | 0.00 | 0.00 | 0.00 |
| 05/09/26 3:53:18 PM | 37 | 6.0 | 15.0 | 64 | 30 | 78.3 | 89.2 | 29.836 | 7.26 | 3.1 | 714 | 0.00 | 0.00 | 0.00 | 0.00 |
| 05/09/26 3:54:28 PM | 38 | 12.0 | 15.0 | 64 | 30 | 78.4 | 89.1 | 29.836 | 7.26 | 3.1 | 710 | 0.00 | 0.00 | 0.00 | 0.00 |
| 05/09/26 3:55:21 PM | 34 | 6.0 | 15.0 | 64 | 29 | 78.3 | 89.1 | 29.836 | 7.26 | 3.0 | 707 | 0.00 | 0.00 | 0.00 | 0.00 |
| 05/09/26 3:56:28 PM | 35 | 6.0 | 15.0 | 64 | 29 | 78.3 | 89.1 | 29.836 | 7.26 | 3.0 | 693 | 0.00 | 0.00 | 0.00 | 0.00 |
| 05/09/26 3:57:18 PM | 32 | 6.0 | 15.0 | 64 | 29 | 78.4 | 89.0 | 29.834 | 7.26 | 2.9 | 693 | 0.00 | 0.00 | 0.00 | 0.00 |
| 05/09/26 3:58:32 PM | 35 | 5.0 | 15.0 | 64 | 29 | 78.4 | 88.9 | 29.835 | 7.26 | 2.9 | 687 | 0.00 | 0.00 | 0.00 | 0.00 |
| 05/09/26 3:59:24 PM | 36 | 3.0 | 15.0 | 64 | 28 | 78.4 | 88.8 | 29.836 | 7.26 | 2.9 | 686 | 0.00 | 0.00 | 0.00 | 0.00 |
| 05/09/26 4:00:38 PM | 34 | 2.0 | 15.0 | 64 | 29 | 78.3 | 88.6 | 29.835 | 7.26 | 2.9 | 686 | 0.00 | 0.00 | 0.00 | 0.00 |
| 05/09/26 4:01:24 PM | 37 | 2.0 | 15.0 | 64 | 29 | 78.4 | 88.5 | 29.836 | 7.26 | 2.9 | 682 | 0.00 | 0.00 | 0.00 | 0.00 |
| 05/09/26 4:02:35 PM | 38 | 7.0 | 15.0 | 64 | 30 | 78.3 | 88.5 | 29.834 | 7.26 | 2.8 | 680 | 0.00 | 0.00 | 0.00 | 0.00 |
| 05/09/26 4:03:27 PM | 37 | 4.0 | 15.0 | 64 | 30 | 78.3 | 88.6 | 29.836 | 7.26 | 2.8 | 679 | 0.00 | 0.00 | 0.00 | 0.00 |
| 05/09/26 4:04:20 PM | 35 | 6.0 | 15.0 | 64 | 28 | 78.3 | 88.6 | 29.835 | 7.26 | 2.8 | 677 | 0.00 | 0.00 | 0.00 | 0.00 |
| 05/09/26 4:05:31 PM | 35 | 12.0 | 15.0 | 64 | 29 | 78.3 | 88.6 | 29.834 | 7.26 | 2.8 | 673 | 0.00 | 0.00 | 0.00 | 0.00 |
| 05/09/26 4:06:20 PM | 34 | 11.0 | 15.0 | 64 | 29 | 78.4 | 88.6 | 29.834 | 7.26 | 2.7 | 671 | 0.00 | 0.00 | 0.00 | 0.00 |
| 05/09/26 4:07:34 PM | 38 | 10.0 | 15.0 | 64 | 29 | 78.3 | 88.6 | 29.835 | 7.26 | 2.7 | 668 | 0.00 | 0.00 | 0.00 | 0.00 |
| 05/09/26 4:08:23 PM | 35 | 7.0 | 15.0 | 64 | 29 | 78.3 | 88.5 | 29.834 | 7.26 | 2.7 | 664 | 0.00 | 0.00 | 0.00 | 0.00 |
| 05/09/26 4:09:16 PM | 32 | 10.0 | 15.0 | 64 | 28 | 78.3 | 88.6 | 29.835 | 7.26 | 2.7 | 664 | 0.00 | 0.00 | 0.00 | 0.00 |
| 05/09/26 4:10:30 PM | 35 | 9.0 | 15.0 | 64 | 28 | 78.3 | 88.5 | 29.835 | 7.26 | 2.6 | 661 | 0.00 | 0.00 | 0.00 | 0.00 |
| 05/09/26 4:11:22 PM | 35 | 6.0 | 15.0 | 64 | 29 | 78.3 | 88.5 | 29.832 | 7.26 | 2.6 | 659 | 0.00 | 0.00 | 0.00 | 0.00 |
| 05/09/26 4:12:30 PM | 34 | 4.0 | 15.0 | 64 | 29 | 78.3 | 88.5 | 29.833 | 7.26 | 2.6 | 652 | 0.00 | 0.00 | 0.00 | 0.00 |
| 05/09/26 4:13:22 PM | 34 | 8.0 | 15.0 | 64 | 29 | 78.3 | 88.6 | 29.832 | 7.26 | 2.6 | 649 | 0.00 | 0.00 | 0.00 | 0.00 |
| 05/09/26 4:14:33 PM | 37 | 7.0 | 15.0 | 64 | 29 | 78.3 | 88.6 | 29.833 | 7.26 | 2.5 | 649 | 0.00 | 0.00 | 0.00 | 0.00 |
| 05/09/26 4:15:28 PM | 35 | 6.0 | 15.0 | 64 | 30 | 78.3 | 88.6 | 29.832 | 7.26 | 2.5 | 645 | 0.00 | 0.00 | 0.00 | 0.00 |
| 05/09/26 4:16:18 PM | 36 | 14.0 | 15.0 | 64 | 29 | 78.3 | 88.6 | 29.833 | 7.26 | 2.5 | 642 | 0.00 | 0.00 | 0.00 | 0.00 |
| 05/09/26 4:17:26 PM | 32 | 4.0 | 16.0 | 64 | 29 | 78.3 | 88.6 | 29.833 | 7.26 | 2.4 | 638 | 0.00 | 0.00 | 0.00 | 0.00 |
| 05/09/26 4:18:18 PM | 38 | 10.0 | 16.0 | 64 | 29 | 78.3 | 88.4 | 29.834 | 7.26 | 2.4 | 636 | 0.00 | 0.00 | 0.00 | 0.00 |
| 05/09/26 4:19:29 PM | 38 | 12.0 | 16.0 | 64 | 29 | 78.3 | 88.2 | 29.833 | 7.26 | 2.4 | 635 | 0.00 | 0.00 | 0.00 | 0.00 |
| 05/09/26 4:20:21 PM | 35 | 7.0 | 16.0 | 64 | 29 | 78.3 | 88.1 | 29.835 | 7.26 | 2.4 | 631 | 0.00 | 0.00 | 0.00 | 0.00 |
| 05/09/26 4:21:35 PM | 36 | 4.0 | 16.0 | 64 | 28 | 78.3 | 88.0 | 29.833 | 7.26 | 2.3 | 624 | 0.00 | 0.00 | 0.00 | 0.00 |
| 05/09/26 4:22:21 PM | 32 | 4.0 | 16.0 | 64 | 29 | 78.3 | 87.9 | 29.832 | 7.26 | 2.3 | 621 | 0.00 | 0.00 | 0.00 | 0.00 |
| 05/09/26 4:23:32 PM | 35 | 4.0 | 16.0 | 64 | 29 | 78.3 | 87.9 | 29.834 | 7.26 | 2.3 | 617 | 0.00 | 0.00 | 0.00 | 0.00 |
| 05/09/26 4:24:25 PM | 38 | 11.0 | 16.0 | 64 | 31 | 78.3 | 87.9 | 29.834 | 7.26 | 2.3 | 612 | 0.00 | 0.00 | 0.00 | 0.00 |
| 05/09/26 4:25:17 PM | 37 | 6.0 | 16.0 | 64 | 31 | 78.3 | 87.9 | 29.833 | 7.26 | 2.3 | 610 | 0.00 | 0.00 | 0.00 | 0.00 |
| 05/09/26 4:26:28 PM | 38 | 11.0 | 16.0 | 64 | 31 | 78.3 | 88.0 | 29.834 | 7.26 | 2.2 | 603 | 0.00 | 0.00 | 0.00 | 0.00 |
| 05/09/26 4:27:23 PM | 37 | 6.0 | 16.0 | 64 | 31 | 78.3 | 87.9 | 29.833 | 7.26 | 2.2 | 603 | 0.00 | 0.00 | 0.00 | 0.00 |
| 05/09/26 4:28:31 PM | 32 | 13.0 | 16.0 | 64 | 32 | 78.3 | 87.9 | 29.834 | 7.26 | 2.2 | 601 | 0.00 | 0.00 | 0.00 | 0.00 |
| 05/09/26 4:29:24 PM | 34 | 12.0 | 16.0 | 64 | 30 | 78.3 | 87.9 | 29.831 | 7.26 | 2.2 | 601 | 0.00 | 0.00 | 0.00 | 0.00 |
| 05/09/26 4:30:37 PM | 32 | 6.0 | 16.0 | 64 | 30 | 78.3 | 87.8 | 29.833 | 7.26 | 2.1 | 591 | 0.00 | 0.00 | 0.00 | 0.00 |
| 05/09/26 4:31:30 PM | 36 | 6.0 | 16.0 | 64 | 30 | 78.3 | 87.7 | 29.834 | 7.26 | 2.1 | 591 | 0.00 | 0.00 | 0.00 | 0.00 |
| 05/09/26 4:32:22 PM | 34 | 5.0 | 16.0 | 64 | 30 | 78.3 | 87.7 | 29.834 | 7.26 | 2.1 | 587 | 0.00 | 0.00 | 0.00 | 0.00 |
| 05/09/26 4:33:30 PM | 38 | 11.0 | 16.0 | 64 | 31 | 78.4 | 87.7 | 29.833 | 7.26 | 2.1 | 585 | 0.00 | 0.00 | 0.00 | 0.00 |
| 05/09/26 4:34:22 PM | 36 | 7.0 | 16.0 | 64 | 29 | 78.3 | 87.7 | 29.832 | 7.26 | 2.0 | 580 | 0.00 | 0.00 | 0.00 | 0.00 |
| 05/09/26 4:35:33 PM | 32 | 3.0 | 16.0 | 64 | 29 | 78.3 | 87.6 | 29.832 | 7.26 | 2.0 | 578 | 0.00 | 0.00 | 0.00 | 0.00 |
| 05/09/26 4:36:25 PM | 37 | 5.0 | 16.0 | 64 | 30 | 78.3 | 87.6 | 29.833 | 7.26 | 2.0 | 573 | 0.00 | 0.00 | 0.00 | 0.00 |
| 05/09/26 4:37:18 PM | 32 | 4.0 | 16.0 | 64 | 30 | 78.3 | 87.6 | 29.832 | 7.26 | 2.0 | 570 | 0.00 | 0.00 | 0.00 | 0.00 |
| 05/09/26 4:38:26 PM | 36 | 9.0 | 16.0 | 64 | 31 | 78.4 | 87.6 | 29.829 | 7.26 | 1.9 | 570 | 0.00 | 0.00 | 0.00 | 0.00 |
| 05/09/26 4:39:18 PM | 38 | 9.0 | 16.0 | 64 | 31 | 78.4 | 87.6 | 29.832 | 7.26 | 1.9 | 563 | 0.00 | 0.00 | 0.00 | 0.00 |
| 05/09/26 4:40:32 PM | 36 | 5.0 | 16.0 | 64 | 31 | 78.3 | 87.6 | 29.834 | 7.26 | 1.9 | 557 | 0.00 | 0.00 | 0.00 | 0.00 |
| 05/09/26 4:41:24 PM | 32 | 5.0 | 16.0 | 64 | 31 | 78.3 | 87.6 | 29.832 | 7.26 | 1.9 | 557 | 0.00 | 0.00 | 0.00 | 0.00 |
| 05/09/26 4:42:17 PM | 31 | 5.0 | 16.0 | 64 | 31 | 78.4 | 87.6 | 29.832 | 7.26 | 1.8 | 554 | 0.00 | 0.00 | 0.00 | 0.00 |
| 05/09/26 4:43:27 PM | 36 | 6.0 | 16.0 | 64 | 31 | 78.3 | 87.7 | 29.832 | 7.26 | 1.8 | 547 | 0.00 | 0.00 | 0.00 | 0.00 |
| 05/09/26 4:44:17 PM | 35 | 10.0 | 16.0 | 64 | 32 | 78.3 | 87.7 | 29.833 | 7.26 | 1.8 | 543 | 0.00 | 0.00 | 0.00 | 0.00 |
| 05/09/26 4:45:52 PM | 38 | 6.0 | 16.0 | 64 | 32 | 78.3 | 87.7 | 29.833 | 7.26 | 1.8 | 540 | 0.00 | 0.00 | 0.00 | 0.00 |
| 05/09/26 4:46:23 PM | 36 | 6.0 | 16.0 | 64 | 31 | 78.4 | 87.7 | 29.833 | 7.26 | 1.7 | 538 | 0.00 | 0.00 | 0.00 | 0.00 |
| 05/09/26 4:47:34 PM | 37 | 5.0 | 16.0 | 64 | 30 | 78.3 | 87.7 | 29.829 | 7.26 | 1.7 | 533 | 0.00 | 0.00 | 0.00 | 0.00 |
| 05/09/26 4:48:23 PM | 38 | 4.0 | 16.0 | 64 | 31 | 78.3 | 87.7 | 29.830 | 7.26 | 1.7 | 531 | 0.00 | 0.00 | 0.00 | 0.00 |
| 05/09/26 4:49:31 PM | 38 | 3.0 | 16.0 | 64 | 31 | 78.3 | 87.6 | 29.835 | 7.26 | 1.7 | 527 | 0.00 | 0.00 | 0.00 | 0.00 |
| 05/09/26 4:50:24 PM | 36 | 4.0 | 16.0 | 64 | 31 | 78.3 | 87.6 | 29.833 | 7.26 | 1.7 | 522 | 0.00 | 0.00 | 0.00 | 0.00 |
| 05/09/26 4:51:34 PM | 37 | 6.0 | 16.0 | 64 | 30 | 78.3 | 87.6 | 29.830 | 7.26 | 1.6 | 520 | 0.00 | 0.00 | 0.00 | 0.00 |
| 05/09/26 4:52:27 PM | 37 | 3.0 | 16.0 | 64 | 30 | 78.3 | 87.6 | 29.833 | 7.26 | 1.6 | 520 | 0.00 | 0.00 | 0.00 | 0.00 |
| 05/09/26 4:53:19 PM | 32 | 8.0 | 16.0 | 64 | 31 | 78.3 | 87.6 | 29.831 | 7.26 | 1.6 | 512 | 0.00 | 0.00 | 0.00 | 0.00 |
| 05/09/26 4:54:30 PM | 31 | 6.0 | 16.0 | 64 | 31 | 78.3 | 87.6 | 29.832 | 7.26 | 1.6 | 512 | 0.00 | 0.00 | 0.00 | 0.00 |
| 05/09/26 4:55:20 PM | 32 | 3.0 | 16.0 | 64 | 31 | 78.3 | 87.6 | 29.834 | 7.26 | 1.6 | 508 | 0.00 | 0.00 | 0.00 | 0.00 |
| 05/09/26 4:56:30 PM | 39 | 5.0 | 16.0 | 64 | 31 | 78.3 | 87.6 | 29.831 | 7.26 | 1.5 | 503 | 0.00 | 0.00 | 0.00 | 0.00 |
| 05/09/26 4:57:23 PM | 35 | 2.0 | 16.0 | 64 | 30 | 78.3 | 87.6 | 29.831 | 7.26 | 1.5 | 503 | 0.00 | 0.00 | 0.00 | 0.00 |
| 05/09/26 4:58:37 PM | 35 | 2.0 | 16.0 | 64 | 31 | 78.3 | 87.7 | 29.830 | 7.26 | 1.5 | 494 | 0.00 | 0.00 | 0.00 | 0.00 |
| 05/09/26 4:59:26 PM | 31 | 4.0 | 16.0 | 64 | 30 | 78.3 | 87.7 | 29.831 | 7.26 | 1.5 | 494 | 0.00 | 0.00 | 0.00 | 0.00 |
| 05/09/26 5:00:58 PM | 34 | 5.0 | 16.0 | 64 | 31 | 78.3 | 87.7 | 29.832 | 7.26 | 1.4 | 489 | 0.00 | 0.00 | 0.00 | 0.00 |
| 05/09/26 5:01:30 PM | 38 | 7.0 | 16.0 | 64 | 30 | 78.3 | 87.7 | 29.835 | 7.26 | 1.4 | 487 | 0.00 | 0.00 | 0.00 | 0.00 |
| 05/09/26 5:02:19 PM | 38 | 5.0 | 16.0 | 64 | 30 | 78.4 | 87.7 | 29.831 | 7.26 | 1.4 | 483 | 0.00 | 0.00 | 0.00 | 0.00 |
| 05/09/26 5:03:33 PM | 37 | 6.0 | 16.0 | 64 | 30 | 78.3 | 87.6 | 29.832 | 7.26 | 1.4 | 478 | 0.00 | 0.00 | 0.00 | 0.00 |
| 05/09/26 5:04:25 PM | 38 | 9.0 | 16.0 | 64 | 30 | 78.3 | 87.5 | 29.832 | 7.26 | 1.4 | 473 | 0.00 | 0.00 | 0.00 | 0.00 |
| 05/09/26 5:05:15 PM | 36 | 6.0 | 16.0 | 64 | 30 | 78.3 | 87.5 | 29.832 | 7.26 | 1.3 | 471 | 0.00 | 0.00 | 0.00 | 0.00 |
| 05/09/26 5:06:22 PM | 36 | 3.0 | 16.0 | 64 | 30 | 78.3 | 87.4 | 29.832 | 7.26 | 1.3 | 469 | 0.00 | 0.00 | 0.00 | 0.00 |
| 05/09/26 5:07:36 PM | 34 | 2.0 | 16.0 | 64 | 30 | 78.3 | 87.3 | 29.831 | 7.26 | 1.3 | 468 | 0.00 | 0.00 | 0.00 | 0.00 |
| 05/09/26 5:08:29 PM | 38 | 5.0 | 16.0 | 64 | 31 | 78.3 | 87.3 | 29.832 | 7.26 | 1.3 | 468 | 0.00 | 0.00 | 0.00 | 0.00 |
| 05/09/26 5:09:21 PM | 34 | 2.0 | 16.0 | 64 | 30 | 78.3 | 87.3 | 29.830 | 7.26 | 1.3 | 461 | 0.00 | 0.00 | 0.00 | 0.00 |
| 05/09/26 5:10:32 PM | 36 | 7.0 | 16.0 | 64 | 30 | 78.3 | 87.3 | 29.831 | 7.26 | 1.3 | 450 | 0.00 | 0.00 | 0.00 | 0.00 |
| 05/09/26 5:11:18 PM | 37 | 11.0 | 16.0 | 64 | 31 | 78.3 | 87.3 | 29.831 | 7.26 | 1.2 | 450 | 0.00 | 0.00 | 0.00 | 0.00 |
| 05/09/26 5:12:32 PM | 36 | 9.0 | 16.0 | 64 | 31 | 78.3 | 87.3 | 29.832 | 7.26 | 1.2 | 445 | 0.00 | 0.00 | 0.00 | 0.00 |
| 05/09/26 5:13:22 PM | 32 | 8.0 | 16.0 | 64 | 30 | 78.3 | 87.2 | 29.831 | 7.26 | 1.2 | 441 | 0.00 | 0.00 | 0.00 | 0.00 |
| 05/09/26 5:14:35 PM | 37 | 4.0 | 16.0 | 64 | 30 | 78.3 | 87.2 | 29.832 | 7.26 | 1.2 | 436 | 0.00 | 0.00 | 0.00 | 0.00 |
| 05/09/26 5:15:28 PM | 35 | 4.0 | 16.0 | 64 | 30 | 78.3 | 87.2 | 29.829 | 7.26 | 1.2 | 434 | 0.00 | 0.00 | 0.00 | 0.00 |
| 05/09/26 5:16:17 PM | 37 | 9.0 | 16.0 | 64 | 30 | 78.3 | 87.2 | 29.831 | 7.26 | 1.1 | 429 | 0.00 | 0.00 | 0.00 | 0.00 |
| 05/09/26 5:17:25 PM | 36 | 6.0 | 16.0 | 64 | 30 | 78.2 | 87.2 | 29.832 | 7.26 | 1.1 | 429 | 0.00 | 0.00 | 0.00 | 0.00 |
| 05/09/26 5:18:18 PM | 35 | 11.0 | 16.0 | 64 | 30 | 78.3 | 87.2 | 29.833 | 7.26 | 1.1 | 424 | 0.00 | 0.00 | 0.00 | 0.00 |
| 05/09/26 5:19:31 PM | 38 | 4.0 | 16.0 | 64 | 30 | 78.2 | 87.1 | 29.829 | 7.26 | 1.1 | 420 | 0.00 | 0.00 | 0.00 | 0.00 |
| 05/09/26 5:20:24 PM | 38 | 11.0 | 16.0 | 64 | 30 | 78.2 | 87.0 | 29.831 | 7.26 | 1.1 | 415 | 0.00 | 0.00 | 0.00 | 0.00 |
| 05/09/26 5:21:35 PM | 32 | 6.0 | 16.0 | 64 | 31 | 78.2 | 87.0 | 29.831 | 7.26 | 1.1 | 411 | 0.00 | 0.00 | 0.00 | 0.00 |
| 05/09/26 5:22:24 PM | 36 | 6.0 | 16.0 | 64 | 31 | 78.2 | 87.0 | 29.835 | 7.26 | 1.0 | 408 | 0.00 | 0.00 | 0.00 | 0.00 |
| 05/09/26 5:23:17 PM | 38 | 4.0 | 16.0 | 64 | 31 | 78.2 | 86.9 | 29.833 | 7.26 | 1.0 | 406 | 0.00 | 0.00 | 0.00 | 0.00 |
| 05/09/26 5:24:27 PM | 36 | 3.0 | 16.0 | 64 | 30 | 78.3 | 86.8 | 29.831 | 7.26 | 1.0 | 403 | 0.00 | 0.00 | 0.00 | 0.00 |
| 05/09/26 5:25:20 PM | 36 | 5.0 | 16.0 | 64 | 30 | 78.2 | 86.8 | 29.833 | 7.26 | 1.0 | 399 | 0.00 | 0.00 | 0.00 | 0.00 |
| 05/09/26 5:26:31 PM | 37 | 5.0 | 16.0 | 64 | 31 | 78.2 | 86.8 | 29.831 | 7.26 | 1.0 | 394 | 0.00 | 0.00 | 0.00 | 0.00 |
| 05/09/26 5:27:20 PM | 32 | 6.0 | 16.0 | 64 | 30 | 78.2 | 86.8 | 29.831 | 7.26 | 1.0 | 394 | 0.00 | 0.00 | 0.00 | 0.00 |
| 05/09/26 5:28:31 PM | 38 | 4.0 | 16.0 | 64 | 30 | 78.2 | 86.7 | 29.832 | 7.26 | 0.9 | 385 | 0.00 | 0.00 | 0.00 | 0.00 |
| 05/09/26 5:29:21 PM | 35 | 6.0 | 16.0 | 64 | 30 | 78.2 | 86.6 | 29.833 | 7.26 | 0.9 | 381 | 0.00 | 0.00 | 0.00 | 0.00 |
| 05/09/26 5:30:34 PM | 37 | 6.0 | 16.0 | 64 | 31 | 78.2 | 86.5 | 29.833 | 7.26 | 0.9 | 380 | 0.00 | 0.00 | 0.00 | 0.00 |
| 05/09/26 5:31:27 PM | 34 | 3.0 | 16.0 | 64 | 31 | 78.2 | 86.5 | 29.830 | 7.26 | 0.9 | 380 | 0.00 | 0.00 | 0.00 | 0.00 |
| 05/09/26 5:32:16 PM | 38 | 3.0 | 16.0 | 64 | 30 | 78.2 | 86.5 | 29.831 | 7.26 | 0.9 | 371 | 0.00 | 0.00 | 0.00 | 0.00 |
| 05/09/26 5:33:24 PM | 36 | 11.0 | 16.0 | 64 | 31 | 78.2 | 86.5 | 29.830 | 7.26 | 0.9 | 367 | 0.00 | 0.00 | 0.00 | 0.00 |
| 05/09/26 5:34:17 PM | 38 | 12.0 | 16.0 | 64 | 31 | 78.2 | 86.5 | 29.832 | 7.26 | 0.8 | 364 | 0.00 | 0.00 | 0.00 | 0.00 |
| 05/09/26 5:35:30 PM | 36 | 11.0 | 16.0 | 64 | 31 | 78.2 | 86.5 | 29.830 | 7.26 | 0.8 | 360 | 0.00 | 0.00 | 0.00 | 0.00 |
| 05/09/26 5:36:20 PM | 32 | 14.0 | 16.0 | 64 | 31 | 78.2 | 86.4 | 29.830 | 7.26 | 0.8 | 357 | 0.00 | 0.00 | 0.00 | 0.00 |
| 05/09/26 5:37:34 PM | 32 | 6.0 | 16.0 | 64 | 31 | 78.2 | 86.3 | 29.830 | 7.26 | 0.8 | 353 | 0.00 | 0.00 | 0.00 | 0.00 |
| 05/09/26 5:38:20 PM | 32 | 9.0 | 16.0 | 64 | 32 | 78.2 | 86.2 | 29.831 | 7.26 | 0.8 | 350 | 0.00 | 0.00 | 0.00 | 0.00 |
| 05/09/26 5:39:34 PM | 39 | 6.0 | 16.0 | 64 | 31 | 78.2 | 86.1 | 29.829 | 7.26 | 0.8 | 346 | 0.00 | 0.00 | 0.00 | 0.00 |
| 05/09/26 5:40:24 PM | 38 | 4.0 | 16.0 | 64 | 32 | 78.2 | 86.1 | 29.831 | 7.26 | 0.8 | 345 | 0.00 | 0.00 | 0.00 | 0.00 |
| 05/09/26 5:41:16 PM | 36 | 4.0 | 16.0 | 64 | 31 | 78.2 | 86.0 | 29.832 | 7.26 | 0.8 | 339 | 0.00 | 0.00 | 0.00 | 0.00 |
| 05/09/26 5:42:27 PM | 32 | 3.0 | 16.0 | 64 | 31 | 78.2 | 86.0 | 29.831 | 7.26 | 0.7 | 332 | 0.00 | 0.00 | 0.00 | 0.00 |
| 05/09/26 5:43:17 PM | 35 | 7.0 | 16.0 | 64 | 31 | 78.2 | 85.9 | 29.835 | 7.26 | 0.6 | 332 | 0.00 | 0.00 | 0.00 | 0.00 |
| 05/09/26 5:44:30 PM | 38 | 5.0 | 16.0 | 64 | 31 | 78.2 | 85.9 | 29.833 | 7.26 | 0.6 | 327 | 0.00 | 0.00 | 0.00 | 0.00 |
| 05/09/26 5:45:23 PM | 38 | 6.0 | 16.0 | 64 | 31 | 78.2 | 85.9 | 29.833 | 7.26 | 0.6 | 323 | 0.00 | 0.00 | 0.00 | 0.00 |
| 05/09/26 5:46:33 PM | 38 | 1.0 | 16.0 | 64 | 31 | 78.2 | 85.8 | 29.831 | 7.26 | 0.6 | 320 | 0.00 | 0.00 | 0.00 | 0.00 |
| 05/09/26 5:47:26 PM | 38 | 6.0 | 16.0 | 64 | 31 | 78.2 | 85.8 | 29.830 | 7.26 | 0.6 | 315 | 0.00 | 0.00 | 0.00 | 0.00 |
| 05/09/26 5:48:19 PM | 31 | 6.0 | 16.0 | 64 | 31 | 78.2 | 85.8 | 29.832 | 7.26 | 0.6 | 311 | 0.00 | 0.00 | 0.00 | 0.00 |
| 05/09/26 5:49:26 PM | 36 | 6.0 | 16.0 | 64 | 31 | 78.2 | 85.7 | 29.831 | 7.26 | 0.6 | 309 | 0.00 | 0.00 | 0.00 | 0.00 |
| 05/09/26 5:50:19 PM | 31 | 4.0 | 16.0 | 64 | 31 | 78.2 | 85.7 | 29.832 | 7.26 | 0.6 | 304 | 0.00 | 0.00 | 0.00 | 0.00 |
| 05/09/26 5:51:30 PM | 38 | 9.0 | 16.0 | 64 | 32 | 78.2 | 85.6 | 29.832 | 7.26 | 0.5 | 302 | 0.00 | 0.00 | 0.00 | 0.00 |
| 05/09/26 5:52:23 PM | 38 | 10.0 | 16.0 | 64 | 32 | 78.2 | 85.6 | 29.833 | 7.26 | 0.5 | 299 | 0.00 | 0.00 | 0.00 | 0.00 |
| 05/09/26 5:53:33 PM | 36 | 7.0 | 16.0 | 64 | 32 | 78.2 | 85.5 | 29.832 | 7.26 | 0.5 | 295 | 0.00 | 0.00 | 0.00 | 0.00 |
| 05/09/26 5:54:23 PM | 38 | 7.0 | 16.0 | 64 | 32 | 78.2 | 85.5 | 29.833 | 7.26 | 0.5 | 295 | 0.00 | 0.00 | 0.00 | 0.00 |
| 05/09/26 5:55:34 PM | 34 | 6.0 | 16.0 | 64 | 32 | 78.1 | 85.4 | 29.833 | 7.26 | 0.5 | 287 | 0.00 | 0.00 | 0.00 | 0.00 |
| 05/09/26 5:56:26 PM | 38 | 9.0 | 16.0 | 64 | 32 | 78.1 | 85.4 | 29.835 | 7.26 | 0.5 | 283 | 0.00 | 0.00 | 0.00 | 0.00 |
| 05/09/26 5:57:18 PM | 36 | 5.0 | 16.0 | 64 | 32 | 78.1 | 85.3 | 29.833 | 7.26 | 0.5 | 283 | 0.00 | 0.00 | 0.00 | 0.00 |
| 05/09/26 5:58:29 PM | 37 | 7.0 | 16.0 | 64 | 32 | 78.1 | 85.2 | 29.832 | 7.26 | 0.5 | 276 | 0.00 | 0.00 | 0.00 | 0.00 |
| 05/09/26 5:59:19 PM | 31 | 4.0 | 16.0 | 64 | 32 | 78.1 | 85.1 | 29.833 | 7.26 | 0.5 | 272 | 0.00 | 0.00 | 0.00 | 0.00 |
| 05/09/26 6:00:32 PM | 34 | 6.0 | 16.0 | 64 | 32 | 78.1 | 85.0 | 29.832 | 7.26 | 0.0 | 269 | 0.00 | 0.00 | 0.00 | 0.00 |
| 05/09/26 6:01:22 PM | 37 | 5.0 | 16.0 | 64 | 32 | 78.1 | 85.0 | 29.833 | 7.26 | 0.0 | 265 | 0.00 | 0.00 | 0.00 | 0.00 |
| 05/09/26 6:02:36 PM | 35 | 3.0 | 16.0 | 64 | 32 | 78.1 | 85.0 | 29.834 | 7.26 | 0.0 | 262 | 0.00 | 0.00 | 0.00 | 0.00 |
| 05/09/26 6:03:26 PM | 38 | 2.0 | 16.0 | 64 | 32 | 78.1 | 84.9 | 29.834 | 7.26 | 0.0 | 258 | 0.00 | 0.00 | 0.00 | 0.00 |
| 05/09/26 6:04:18 PM | 30 | 5.0 | 16.0 | 64 | 33 | 78.1 | 84.9 | 29.836 | 7.26 | 0.0 | 258 | 0.00 | 0.00 | 0.00 | 0.00 |
| 05/09/26 6:05:26 PM | 32 | 5.0 | 16.0 | 64 | 34 | 78.1 | 84.8 | 29.835 | 7.26 | 0.0 | 258 | 0.00 | 0.00 | 0.00 | 0.00 |
| 05/09/26 6:06:19 PM | 38 | 4.0 | 16.0 | 64 | 34 | 78.1 | 84.8 | 29.835 | 7.26 | 0.0 | 258 | 0.00 | 0.00 | 0.00 | 0.00 |
| 05/09/26 6:07:30 PM | 32 | 9.0 | 16.0 | 64 | 34 | 78.1 | 84.7 | 29.837 | 7.26 | 0.0 | 244 | 0.00 | 0.00 | 0.00 | 0.00 |
| 05/09/26 6:08:22 PM | 37 | 7.0 | 16.0 | 64 | 34 | 78.1 | 84.6 | 29.835 | 7.26 | 0.0 | 244 | 0.00 | 0.00 | 0.00 | 0.00 |
| 05/09/26 6:09:33 PM | 32 | 9.0 | 16.0 | 64 | 34 | 78.1 | 84.6 | 29.836 | 7.26 | 0.0 | 232 | 0.00 | 0.00 | 0.00 | 0.00 |
| 05/09/26 6:10:22 PM | 36 | 9.0 | 16.0 | 64 | 35 | 78.1 | 84.5 | 29.833 | 7.26 | 0.0 | 232 | 0.00 | 0.00 | 0.00 | 0.00 |
| 05/09/26 6:11:33 PM | 36 | 5.0 | 16.0 | 64 | 35 | 78.1 | 84.3 | 29.838 | 7.26 | 0.0 | 225 | 0.00 | 0.00 | 0.00 | 0.00 |
| 05/09/26 6:12:26 PM | 32 | 9.0 | 16.0 | 64 | 35 | 78.1 | 84.3 | 29.836 | 7.26 | 0.0 | 220 | 0.00 | 0.00 | 0.00 | 0.00 |
| 05/09/26 6:13:18 PM | 38 | 6.0 | 16.0 | 64 | 36 | 78.1 | 84.2 | 29.837 | 7.26 | 0.0 | 220 | 0.00 | 0.00 | 0.00 | 0.00 |
| 05/09/26 6:14:32 PM | 35 | 6.0 | 16.0 | 64 | 36 | 78.1 | 84.0 | 29.834 | 7.26 | 0.0 | 209 | 0.00 | 0.00 | 0.00 | 0.00 |
| 05/09/26 6:15:22 PM | 38 | 1.0 | 16.0 | 64 | 36 | 78.1 | 83.9 | 29.839 | 7.26 | 0.0 | 207 | 0.00 | 0.00 | 0.00 | 0.00 |
| 05/09/26 6:16:32 PM | 35 | 4.0 | 16.0 | 64 | 37 | 78.0 | 83.8 | 29.838 | 7.26 | 0.0 | 204 | 0.00 | 0.00 | 0.00 | 0.00 |
| 05/09/26 6:17:25 PM | 32 | 4.0 | 16.0 | 64 | 36 | 78.0 | 83.8 | 29.837 | 7.26 | 0.0 | 200 | 0.00 | 0.00 | 0.00 | 0.00 |
| 05/09/26 6:18:17 PM | 38 | 6.0 | 16.0 | 64 | 37 | 78.0 | 83.7 | 29.838 | 7.26 | 0.0 | 197 | 0.00 | 0.00 | 0.00 | 0.00 |
| 05/09/26 6:19:28 PM | 38 | 3.0 | 16.0 | 64 | 37 | 78.0 | 83.6 | 29.836 | 7.26 | 0.0 | 192 | 0.00 | 0.00 | 0.00 | 0.00 |
| 05/09/26 6:20:21 PM | 37 | 5.0 | 16.0 | 64 | 37 | 78.0 | 83.6 | 29.838 | 7.26 | 0.0 | 190 | 0.00 | 0.00 | 0.00 | 0.00 |
| 05/09/26 6:21:29 PM | 37 | 4.0 | 16.0 | 64 | 37 | 78.0 | 83.5 | 29.838 | 7.26 | 0.0 | 186 | 0.00 | 0.00 | 0.00 | 0.00 |
| 05/09/26 6:22:21 PM | 32 | 8.0 | 16.0 | 64 | 37 | 78.0 | 83.5 | 29.839 | 7.26 | 0.0 | 183 | 0.00 | 0.00 | 0.00 | 0.00 |
| 05/09/26 6:23:32 PM | 35 | 5.0 | 16.0 | 64 | 37 | 78.0 | 83.3 | 29.836 | 7.26 | 0.0 | 179 | 0.00 | 0.00 | 0.00 | 0.00 |
| 05/09/26 6:24:25 PM | 38 | 7.0 | 16.0 | 64 | 37 | 78.0 | 83.2 | 29.836 | 7.26 | 0.0 | 174 | 0.00 | 0.00 | 0.00 | 0.00 |
| 05/09/26 6:25:17 PM | 37 | 7.0 | 16.0 | 64 | 37 | 78.0 | 83.2 | 29.840 | 7.26 | 0.0 | 171 | 0.00 | 0.00 | 0.00 | 0.00 |
| 05/09/26 6:26:25 PM | 32 | 9.0 | 16.0 | 64 | 37 | 78.0 | 83.1 | 29.840 | 7.26 | 0.0 | 167 | 0.00 | 0.00 | 0.00 | 0.00 |
| 05/09/26 6:27:18 PM | 38 | 12.0 | 16.0 | 64 | 38 | 78.0 | 83.0 | 29.839 | 7.26 | 0.0 | 163 | 0.00 | 0.00 | 0.00 | 0.00 |
| 05/09/26 6:28:32 PM | 32 | 5.0 | 16.0 | 64 | 38 | 77.9 | 82.8 | 29.841 | 7.26 | 0.0 | 156 | 0.00 | 0.00 | 0.00 | 0.00 |
| 05/09/26 6:29:24 PM | 32 | 6.0 | 16.0 | 64 | 38 | 77.9 | 82.6 | 29.842 | 7.26 | 0.0 | 156 | 0.00 | 0.00 | 0.00 | 0.00 |
| 05/09/26 6:30:38 PM | 31 | 6.0 | 16.0 | 64 | 38 | 77.9 | 82.5 | 29.842 | 7.26 | 0.0 | 149 | 0.00 | 0.00 | 0.00 | 0.00 |
| 05/09/26 6:31:24 PM | 37 | 5.0 | 16.0 | 64 | 38 | 77.9 | 82.5 | 29.842 | 7.26 | 0.0 | 146 | 0.00 | 0.00 | 0.00 | 0.00 |
| 05/09/26 6:32:35 PM | 36 | 9.0 | 16.0 | 64 | 38 | 77.9 | 82.4 | 29.841 | 7.26 | 0.0 | 142 | 0.00 | 0.00 | 0.00 | 0.00 |
| 05/09/26 6:33:28 PM | 38 | 2.0 | 16.0 | 64 | 38 | 77.9 | 82.3 | 29.842 | 7.26 | 0.0 | 139 | 0.00 | 0.00 | 0.00 | 0.00 |
| 05/09/26 6:34:20 PM | 35 | 3.0 | 16.0 | 64 | 39 | 77.9 | 82.3 | 29.842 | 7.26 | 0.0 | 139 | 0.00 | 0.00 | 0.00 | 0.00 |
| 05/09/26 6:35:31 PM | 35 | 3.0 | 16.0 | 64 | 39 | 77.9 | 82.3 | 29.843 | 7.26 | 0.0 | 134 | 0.00 | 0.00 | 0.00 | 0.00 |
| 05/09/26 6:36:24 PM | 32 | 3.0 | 16.0 | 64 | 39 | 77.8 | 82.3 | 29.843 | 7.26 | 0.0 | 130 | 0.00 | 0.00 | 0.00 | 0.00 |
| 05/09/26 6:37:31 PM | 38 | 4.0 | 16.0 | 64 | 39 | 77.8 | 82.3 | 29.844 | 7.26 | 0.0 | 127 | 0.00 | 0.00 | 0.00 | 0.00 |
| 05/09/26 6:38:21 PM | 38 | 5.0 | 16.0 | 64 | 39 | 77.8 | 82.3 | 29.842 | 7.26 | 0.0 | 123 | 0.00 | 0.00 | 0.00 | 0.00 |
| 05/09/26 6:39:35 PM | 35 | 4.0 | 16.0 | 64 | 39 | 77.8 | 82.1 | 29.844 | 7.26 | 0.0 | 105 | 0.00 | 0.00 | 0.00 | 0.00 |
| 05/09/26 6:40:27 PM | 38 | 7.0 | 16.0 | 64 | 39 | 77.8 | 82.1 | 29.844 | 7.26 | 0.0 | 105 | 0.00 | 0.00 | 0.00 | 0.00 |
| 05/09/26 6:41:20 PM | 32 | 4.0 | 16.0 | 64 | 39 | 77.8 | 82.0 | 29.845 | 7.26 | 0.0 | 100 | 0.00 | 0.00 | 0.00 | 0.00 |
| 05/09/26 6:42:28 PM | 38 | 5.0 | 16.0 | 64 | 39 | 77.8 | 82.0 | 29.844 | 7.26 | 0.0 | 58 | 0.00 | 0.00 | 0.00 | 0.00 |
| 05/09/26 6:43:20 PM | 32 | 10.0 | 16.0 | 64 | 39 | 77.8 | 82.0 | 29.846 | 7.26 | 0.0 | 58 | 0.00 | 0.00 | 0.00 | 0.00 |
| 05/09/26 6:44:34 PM | 38 | 6.0 | 16.0 | 64 | 40 | 77.8 | 81.8 | 29.844 | 7.26 | 0.0 | 42 | 0.00 | 0.00 | 0.00 | 0.00 |
| 05/09/26 6:45:27 PM | 36 | 3.0 | 16.0 | 64 | 40 | 77.8 | 81.7 | 29.843 | 7.26 | 0.0 | 44 | 0.00 | 0.00 | 0.00 | 0.00 |
| 05/09/26 6:46:16 PM | 34 | 3.0 | 16.0 | 64 | 40 | 77.8 | 81.6 | 29.846 | 7.26 | 0.0 | 42 | 0.00 | 0.00 | 0.00 | 0.00 |
| 05/09/26 6:47:27 PM | 38 | 3.0 | 16.0 | 64 | 40 | 77.8 | 81.6 | 29.845 | 7.26 | 0.0 | 37 | 0.00 | 0.00 | 0.00 | 0.00 |
| 05/09/26 6:48:16 PM | 36 | 4.0 | 16.0 | 64 | 40 | 77.8 | 81.5 | 29.847 | 7.26 | 0.0 | 37 | 0.00 | 0.00 | 0.00 | 0.00 |
| 05/09/26 6:49:30 PM | 38 | 6.0 | 16.0 | 64 | 40 | 77.7 | 81.5 | 29.847 | 7.26 | 0.0 | 39 | 0.00 | 0.00 | 0.00 | 0.00 |
| 05/09/26 6:50:20 PM | 38 | 4.0 | 16.0 | 64 | 40 | 77.7 | 81.4 | 29.847 | 7.26 | 0.0 | 39 | 0.00 | 0.00 | 0.00 | 0.00 |
| 05/09/26 6:51:34 PM | 35 | 2.0 | 16.0 | 64 | 41 | 77.8 | 81.4 | 29.846 | 7.26 | 0.0 | 37 | 0.00 | 0.00 | 0.00 | 0.00 |
| 05/09/26 6:52:26 PM | 35 | 1.0 | 16.0 | 64 | 41 | 77.6 | 81.4 | 29.845 | 7.26 | 0.0 | 37 | 0.00 | 0.00 | 0.00 | 0.00 |
| 05/09/26 6:53:34 PM | 34 | 3.0 | 16.0 | 64 | 41 | 77.7 | 81.3 | 29.847 | 7.26 | 0.0 | 37 | 0.00 | 0.00 | 0.00 | 0.00 |
| 05/09/26 6:54:26 PM | 37 | 5.0 | 16.0 | 64 | 41 | 77.7 | 81.2 | 29.847 | 7.26 | 0.0 | 33 | 0.00 | 0.00 | 0.00 | 0.00 |
| 05/09/26 6:55:16 PM | 34 | 3.0 | 16.0 | 64 | 41 | 77.6 | 81.2 | 29.845 | 7.26 | 0.0 | 33 | 0.00 | 0.00 | 0.00 | 0.00 |
| 05/09/26 6:56:30 PM | 36 | 2.0 | 16.0 | 64 | 41 | 77.6 | 81.1 | 29.848 | 7.26 | 0.0 | 37 | 0.00 | 0.00 | 0.00 | 0.00 |
| 05/09/26 6:57:19 PM | 38 | 2.0 | 16.0 | 64 | 41 | 77.6 | 81.0 | 29.847 | 7.26 | 0.0 | 37 | 0.00 | 0.00 | 0.00 | 0.00 |
| 05/09/26 6:58:30 PM | 35 | 6.0 | 16.0 | 64 | 41 | 77.6 | 81.0 | 29.848 | 7.26 | 0.0 | 32 | 0.00 | 0.00 | 0.00 | 0.00 |
| 05/09/26 6:59:20 PM | 39 | 3.0 | 16.0 | 64 | 41 | 77.6 | 80.9 | 29.848 | 7.26 | 0.0 | 32 | 0.00 | 0.00 | 0.00 | 0.00 |
| 05/09/26 7:00:34 PM | 36 | 5.0 | 16.0 | 64 | 41 | 77.6 | 80.8 | 29.847 | 7.26 | 0.0 | 30 | 0.00 | 0.00 | 0.00 | 0.00 |
| 05/09/26 7:01:26 PM | 34 | 3.0 | 16.0 | 64 | 41 | 77.6 | 80.7 | 29.847 | 7.26 | 0.0 | 30 | 0.00 | 0.00 | 0.00 | 0.00 |
| 05/09/26 7:02:19 PM | 38 | 4.0 | 16.0 | 64 | 42 | 77.6 | 80.7 | 29.848 | 7.26 | 0.0 | 28 | 0.00 | 0.00 | 0.00 | 0.00 |
| 05/09/26 7:03:27 PM | 38 | 4.0 | 16.0 | 64 | 42 | 77.5 | 80.6 | 29.850 | 7.26 | 0.0 | 28 | 0.00 | 0.00 | 0.00 | 0.00 |
| 05/09/26 7:04:19 PM | 38 | 4.0 | 16.0 | 64 | 42 | 77.5 | 80.5 | 29.848 | 7.26 | 0.0 | 28 | 0.00 | 0.00 | 0.00 | 0.00 |
| 05/09/26 7:05:30 PM | 38 | 4.0 | 16.0 | 64 | 42 | 77.5 | 80.4 | 29.849 | 7.26 | 0.0 | 26 | 0.00 | 0.00 | 0.00 | 0.00 |
| 05/09/26 7:06:23 PM | 38 | 2.0 | 16.0 | 64 | 42 | 77.5 | 80.3 | 29.850 | 7.26 | 0.0 | 26 | 0.00 | 0.00 | 0.00 | 0.00 |
| 05/09/26 7:07:33 PM | 36 | 1.0 | 16.0 | 64 | 43 | 77.5 | 80.3 | 29.851 | 7.26 | 0.0 | 25 | 0.00 | 0.00 | 0.00 | 0.00 |
| 05/09/26 7:08:26 PM | 36 | 1.0 | 16.0 | 64 | 43 | 77.5 | 80.2 | 29.848 | 7.26 | 0.0 | 25 | 0.00 | 0.00 | 0.00 | 0.00 |
| 05/09/26 7:09:34 PM | 36 | 3.0 | 16.0 | 64 | 43 | 77.5 | 80.2 | 29.852 | 7.26 | 0.0 | 25 | 0.00 | 0.00 | 0.00 | 0.00 |
| 05/09/26 7:10:27 PM | 38 | 4.0 | 16.0 | 64 | 43 | 77.5 | 80.2 | 29.852 | 7.26 | 0.0 | 25 | 0.00 | 0.00 | 0.00 | 0.00 |
| 05/09/26 7:11:17 PM | 38 | 1.0 | 16.0 | 64 | 43 | 77.4 | 80.1 | 29.853 | 7.26 | 0.0 | 25 | 0.00 | 0.00 | 0.00 | 0.00 |
| 05/09/26 7:12:27 PM | 35 | 2.0 | 16.0 | 64 | 43 | 77.4 | 80.0 | 29.852 | 7.26 | 0.0 | 23 | 0.00 | 0.00 | 0.00 | 0.00 |
| 05/09/26 7:13:20 PM | 32 | 3.0 | 16.0 | 64 | 43 | 77.4 | 80.0 | 29.851 | 7.26 | 0.0 | 21 | 0.00 | 0.00 | 0.00 | 0.00 |
| 05/09/26 7:14:28 PM | 34 | 3.0 | 16.0 | 64 | 43 | 77.4 | 79.9 | 29.854 | 7.26 | 0.0 | 19 | 0.00 | 0.00 | 0.00 | 0.00 |
| 05/09/26 7:15:21 PM | 38 | 1.0 | 16.0 | 64 | 44 | 77.4 | 79.9 | 29.853 | 7.26 | 0.0 | 19 | 0.00 | 0.00 | 0.00 | 0.00 |
| 05/09/26 7:16:31 PM | 34 | 3.0 | 16.0 | 64 | 44 | 77.4 | 79.8 | 29.851 | 7.26 | 0.0 | 19 | 0.00 | 0.00 | 0.00 | 0.00 |
| 05/09/26 7:17:24 PM | 36 | 3.0 | 16.0 | 64 | 44 | 77.4 | 79.7 | 29.852 | 7.26 | 0.0 | 18 | 0.00 | 0.00 | 0.00 | 0.00 |
| 05/09/26 7:18:17 PM | 37 | 4.0 | 16.0 | 64 | 44 | 77.3 | 79.6 | 29.852 | 7.26 | 0.0 | 16 | 0.00 | 0.00 | 0.00 | 0.00 |
| 05/09/26 7:19:25 PM | 32 | 3.0 | 16.0 | 64 | 44 | 77.3 | 79.5 | 29.852 | 7.26 | 0.0 | 16 | 0.00 | 0.00 | 0.00 | 0.00 |
| 05/09/26 7:20:17 PM | 38 | 2.0 | 16.0 | 64 | 44 | 77.3 | 79.4 | 29.855 | 7.26 | 0.0 | 14 | 0.00 | 0.00 | 0.00 | 0.00 |
| 05/09/26 7:21:31 PM | 37 | 2.0 | 16.0 | 64 | 44 | 77.3 | 79.4 | 29.853 | 7.26 | 0.0 | 14 | 0.00 | 0.00 | 0.00 | 0.00 |
| 05/09/26 7:22:24 PM | 38 | 2.0 | 16.0 | 64 | 45 | 77.3 | 79.2 | 29.854 | 7.26 | 0.0 | 12 | 0.00 | 0.00 | 0.00 | 0.00 |
| 05/09/26 7:23:35 PM | 32 | 3.0 | 16.0 | 64 | 45 | 77.3 | 79.2 | 29.852 | 7.26 | 0.0 | 12 | 0.00 | 0.00 | 0.00 | 0.00 |
| 05/09/26 7:24:27 PM | 36 | 3.0 | 16.0 | 64 | 45 | 77.3 | 79.1 | 29.853 | 7.26 | 0.0 | 12 | 0.00 | 0.00 | 0.00 | 0.00 |
| 05/09/26 7:25:35 PM | 35 | 7.0 | 16.0 | 64 | 45 | 77.3 | 79.0 | 29.854 | 7.26 | 0.0 | 11 | 0.00 | 0.00 | 0.00 | 0.00 |
| 05/09/26 7:26:25 PM | 38 | 3.0 | 16.0 | 64 | 45 | 77.3 | 78.9 | 29.855 | 7.26 | 0.0 | 11 | 0.00 | 0.00 | 0.00 | 0.00 |
| 05/09/26 7:27:17 PM | 38 | 4.0 | 16.0 | 64 | 45 | 77.2 | 78.8 | 29.855 | 7.26 | 0.0 | 11 | 0.00 | 0.00 | 0.00 | 0.00 |
| 05/09/26 7:28:31 PM | 35 | 1.0 | 16.0 | 64 | 46 | 77.2 | 78.7 | 29.854 | 7.26 | 0.0 | 9 | 0.00 | 0.00 | 0.00 | 0.00 |
| 05/09/26 7:29:21 PM | 38 | 2.0 | 16.0 | 64 | 46 | 77.2 | 78.7 | 29.855 | 7.26 | 0.0 | 9 | 0.00 | 0.00 | 0.00 | 0.00 |
| 05/09/26 7:30:53 PM | 36 | 4.0 | 16.0 | 64 | 46 | 77.2 | 78.6 | 29.857 | 7.26 | 0.0 | 9 | 0.00 | 0.00 | 0.00 | 0.00 |
| 05/09/26 7:31:24 PM | 38 | 4.0 | 16.0 | 64 | 46 | 77.2 | 78.5 | 29.856 | 7.26 | 0.0 | 7 | 0.00 | 0.00 | 0.00 | 0.00 |
| 05/09/26 7:32:35 PM | 38 | 4.0 | 16.0 | 64 | 46 | 77.2 | 78.5 | 29.854 | 7.26 | 0.0 | 7 | 0.00 | 0.00 | 0.00 | 0.00 |
| 05/09/26 7:33:28 PM | 34 | 2.0 | 16.0 | 64 | 46 | 77.1 | 78.4 | 29.857 | 7.26 | 0.0 | 7 | 0.00 | 0.00 | 0.00 | 0.00 |
| 05/09/26 7:34:20 PM | 38 | 1.0 | 16.0 | 64 | 46 | 77.2 | 78.4 | 29.857 | 7.26 | 0.0 | 7 | 0.00 | 0.00 | 0.00 | 0.00 |
| 05/09/26 7:35:31 PM | 32 | 0.0 | 16.0 | 64 | 46 | 77.1 | 78.3 | 29.856 | 7.26 | 0.0 | 5 | 0.00 | 0.00 | 0.00 | 0.00 |
| 05/09/26 7:36:21 PM | 36 | 1.0 | 16.0 | 64 | 46 | 77.1 | 78.3 | 29.856 | 7.26 | 0.0 | 5 | 0.00 | 0.00 | 0.00 | 0.00 |
| 05/09/26 7:37:32 PM | 31 | 2.0 | 16.0 | 64 | 46 | 77.1 | 78.2 | 29.858 | 7.26 | 0.0 | 5 | 0.00 | 0.00 | 0.00 | 0.00 |
| 05/09/26 7:38:25 PM | 37 | 3.0 | 16.0 | 64 | 46 | 77.1 | 78.2 | 29.856 | 7.26 | 0.0 | 5 | 0.00 | 0.00 | 0.00 | 0.00 |
| 05/09/26 7:39:35 PM | 38 | 3.0 | 16.0 | 64 | 47 | 77.1 | 78.0 | 29.860 | 7.26 | 0.0 | 0 | 0.00 | 0.00 | 0.00 | 0.00 |
| 05/09/26 7:40:28 PM | 38 | 3.0 | 16.0 | 64 | 47 | 77.1 | 78.0 | 29.861 | 7.26 | 0.0 | 0 | 0.00 | 0.00 | 0.00 | 0.00 |
| 05/09/26 7:41:36 PM | 34 | 3.0 | 16.0 | 64 | 47 | 77.0 | 77.9 | 29.858 | 7.26 | 0.0 | 0 | 0.00 | 0.00 | 0.00 | 0.00 |
| 05/09/26 7:42:29 PM | 38 | 1.0 | 16.0 | 64 | 47 | 77.0 | 77.8 | 29.858 | 7.26 | 0.0 | 0 | 0.00 | 0.00 | 0.00 | 0.00 |
| 05/09/26 7:43:18 PM | 38 | 1.0 | 16.0 | 64 | 47 | 77.0 | 77.8 | 29.857 | 7.26 | 0.0 | 0 | 0.00 | 0.00 | 0.00 | 0.00 |
| 05/09/26 7:44:32 PM | 31 | 1.0 | 16.0 | 64 | 47 | 77.0 | 77.7 | 29.862 | 7.26 | 0.0 | 0 | 0.00 | 0.00 | 0.00 | 0.00 |
| 05/09/26 7:45:25 PM | 36 | 1.0 | 16.0 | 64 | 47 | 77.0 | 77.6 | 29.859 | 7.26 | 0.0 | 0 | 0.00 | 0.00 | 0.00 | 0.00 |
| 05/09/26 7:46:30 PM | 36 | 3.0 | 16.0 | 64 | 47 | 76.9 | 77.5 | 29.857 | 7.26 | 0.0 | 0 | 0.00 | 0.00 | 0.00 | 0.00 |
| 05/09/26 7:47:22 PM | 36 | 3.0 | 16.0 | 64 | 47 | 77.0 | 77.5 | 29.863 | 7.26 | 0.0 | 0 | 0.00 | 0.00 | 0.00 | 0.00 |
| 05/09/26 7:48:36 PM | 38 | 3.0 | 16.0 | 64 | 48 | 76.9 | 77.4 | 29.862 | 7.26 | 0.0 | 0 | 0.00 | 0.00 | 0.00 | 0.00 |
| 05/09/26 7:49:26 PM | 31 | 3.0 | 16.0 | 64 | 48 | 76.9 | 77.3 | 29.861 | 7.26 | 0.0 | 0 | 0.00 | 0.00 | 0.00 | 0.00 |
| 05/09/26 7:50:19 PM | 32 | 2.0 | 16.0 | 64 | 48 | 76.9 | 77.3 | 29.863 | 7.26 | 0.0 | 0 | 0.00 | 0.00 | 0.00 | 0.00 |
| 05/09/26 7:51:32 PM | 36 | 1.0 | 16.0 | 64 | 48 | 76.9 | 77.2 | 29.863 | 7.26 | 0.0 | 0 | 0.00 | 0.00 | 0.00 | 0.00 |
| 05/09/26 7:52:19 PM | 37 | 1.0 | 16.0 | 64 | 48 | 76.9 | 77.1 | 29.865 | 7.26 | 0.0 | 0 | 0.00 | 0.00 | 0.00 | 0.00 |
| 05/09/26 7:53:33 PM | 38 | 1.0 | 16.0 | 64 | 48 | 76.8 | 77.0 | 29.863 | 7.26 | 0.0 | 0 | 0.00 | 0.00 | 0.00 | 0.00 |
| 05/09/26 7:54:25 PM | 36 | 2.0 | 16.0 | 64 | 48 | 76.8 | 77.0 | 29.864 | 7.26 | 0.0 | 0 | 0.00 | 0.00 | 0.00 | 0.00 |
| 05/09/26 7:55:15 PM | 38 | 2.0 | 16.0 | 64 | 49 | 76.8 | 76.9 | 29.862 | 7.26 | 0.0 | 0 | 0.00 | 0.00 | 0.00 | 0.00 |
| 05/09/26 7:56:29 PM | 38 | 2.0 | 16.0 | 64 | 49 | 76.8 | 76.8 | 29.864 | 7.26 | 0.0 | 0 | 0.00 | 0.00 | 0.00 | 0.00 |
| 05/09/26 7:57:19 PM | 35 | 3.0 | 16.0 | 64 | 49 | 76.8 | 76.8 | 29.865 | 7.26 | 0.0 | 0 | 0.00 | 0.00 | 0.00 | 0.00 |
| 05/09/26 7:58:30 PM | 38 | 1.0 | 16.0 | 64 | 49 | 76.8 | 76.7 | 29.864 | 7.26 | 0.0 | 0 | 0.00 | 0.00 | 0.00 | 0.00 |
| 05/09/26 7:59:22 PM | 32 | 2.0 | 16.0 | 64 | 49 | 76.7 | 76.7 | 29.866 | 7.26 | 0.0 | 0 | 0.00 | 0.00 | 0.00 | 0.00 |
| 05/09/26 8:00:57 PM | 40 | 1.0 | 16.0 | 64 | 49 | 76.7 | 76.6 | 29.864 | 7.26 | 0.0 | 0 | 0.00 | 0.00 | 0.00 | 0.00 |
| 05/09/26 8:01:29 PM | 38 | 0.0 | 16.0 | 64 | 49 | 76.7 | 76.5 | 29.866 | 7.26 | 0.0 | 0 | 0.00 | 0.00 | 0.00 | 0.00 |
| 05/09/26 8:02:22 PM | 36 | 0.0 | 16.0 | 64 | 49 | 76.7 | 76.5 | 29.864 | 7.26 | 0.0 | 0 | 0.00 | 0.00 | 0.00 | 0.00 |
| 05/09/26 8:03:30 PM | 36 | 0.0 | 16.0 | 64 | 49 | 76.7 | 76.5 | 29.867 | 7.26 | 0.0 | 0 | 0.00 | 0.00 | 0.00 | 0.00 |
| 05/09/26 8:04:23 PM | 37 | 0.0 | 16.0 | 64 | 49 | 76.7 | 76.4 | 29.868 | 7.26 | 0.0 | 0 | 0.00 | 0.00 | 0.00 | 0.00 |
| 05/09/26 8:05:34 PM | 38 | 1.0 | 16.0 | 64 | 49 | 76.7 | 76.4 | 29.866 | 7.26 | 0.0 | 0 | 0.00 | 0.00 | 0.00 | 0.00 |
| 05/09/26 8:06:26 PM | 37 | 1.0 | 16.0 | 64 | 49 | 76.7 | 76.4 | 29.869 | 7.26 | 0.0 | 0 | 0.00 | 0.00 | 0.00 | 0.00 |
| 05/09/26 8:07:19 PM | 38 | 1.0 | 16.0 | 64 | 49 | 76.6 | 76.3 | 29.867 | 7.26 | 0.0 | 0 | 0.00 | 0.00 | 0.00 | 0.00 |
| 05/09/26 8:08:27 PM | 38 | 2.0 | 16.0 | 64 | 49 | 76.6 | 76.3 | 29.869 | 7.26 | 0.0 | 0 | 0.00 | 0.00 | 0.00 | 0.00 |
| 05/09/26 8:09:17 PM | 38 | 2.0 | 16.0 | 64 | 50 | 76.6 | 76.2 | 29.869 | 7.26 | 0.0 | 0 | 0.00 | 0.00 | 0.00 | 0.00 |
| 05/09/26 8:10:31 PM | 32 | 1.0 | 16.0 | 64 | 50 | 76.6 | 76.1 | 29.868 | 7.26 | 0.0 | 0 | 0.00 | 0.00 | 0.00 | 0.00 |
| 05/09/26 8:11:23 PM | 32 | 0.0 | 16.0 | 64 | 50 | 76.5 | 76.0 | 29.870 | 7.26 | 0.0 | 0 | 0.00 | 0.00 | 0.00 | 0.00 |
| 05/09/26 8:12:34 PM | 39 | 0.0 | 16.0 | 64 | 50 | 76.5 | 75.9 | 29.869 | 7.26 | 0.0 | 0 | 0.00 | 0.00 | 0.00 | 0.00 |
| 05/09/26 8:13:27 PM | 38 | 0.0 | 16.0 | 64 | 50 | 76.5 | 75.9 | 29.870 | 7.26 | 0.0 | 0 | 0.00 | 0.00 | 0.00 | 0.00 |
| 05/09/26 8:14:34 PM | 31 | 0.0 | 16.0 | 64 | 50 | 76.5 | 75.8 | 29.869 | 7.26 | 0.0 | 0 | 0.00 | 0.00 | 0.00 | 0.00 |
| 05/09/26 8:15:48 PM | 36 | 0.0 | 16.0 | 64 | 50 | 76.5 | 75.7 | 29.871 | 7.26 | 0.0 | 0 | 0.00 | 0.00 | 0.00 | 0.00 |
| 05/09/26 8:16:20 PM | 35 | 0.0 | 16.0 | 64 | 50 | 76.4 | 75.7 | 29.871 | 7.26 | 0.0 | 0 | 0.00 | 0.00 | 0.00 | 0.00 |
| 05/09/26 8:17:31 PM | 38 | 0.0 | 16.0 | 64 | 50 | 76.4 | 75.7 | 29.871 | 7.26 | 0.0 | 0 | 0.00 | 0.00 | 0.00 | 0.00 |
| 05/09/26 8:18:23 PM | 38 | 0.0 | 16.0 | 64 | 50 | 76.4 | 75.6 | 29.873 | 7.26 | 0.0 | 0 | 0.00 | 0.00 | 0.00 | 0.00 |
| 05/09/26 8:19:31 PM | 36 | 0.0 | 16.0 | 64 | 50 | 76.4 | 75.6 | 29.873 | 7.26 | 0.0 | 0 | 0.00 | 0.00 | 0.00 | 0.00 |
| 05/09/26 8:20:21 PM | 32 | 0.0 | 16.0 | 64 | 50 | 76.4 | 75.5 | 29.872 | 7.26 | 0.0 | 0 | 0.00 | 0.00 | 0.00 | 0.00 |
| 05/09/26 8:21:32 PM | 32 | 0.0 | 16.0 | 64 | 50 | 76.4 | 75.5 | 29.872 | 7.26 | 0.0 | 0 | 0.00 | 0.00 | 0.00 | 0.00 |
| 05/09/26 8:22:28 PM | 38 | 0.0 | 16.0 | 64 | 50 | 76.4 | 75.4 | 29.875 | 7.26 | 0.0 | 0 | 0.00 | 0.00 | 0.00 | 0.00 |
| 05/09/26 8:23:17 PM | 32 | 0.0 | 16.0 | 64 | 50 | 76.3 | 75.4 | 29.874 | 7.26 | 0.0 | 0 | 0.00 | 0.00 | 0.00 | 0.00 |
| 05/09/26 8:24:31 PM | 38 | 0.0 | 16.0 | 64 | 50 | 76.3 | 75.3 | 29.876 | 7.26 | 0.0 | 0 | 0.00 | 0.00 | 0.00 | 0.00 |
| 05/09/26 8:25:18 PM | 35 | 0.0 | 16.0 | 64 | 50 | 76.3 | 75.2 | 29.877 | 7.26 | 0.0 | 0 | 0.00 | 0.00 | 0.00 | 0.00 |
| 05/09/26 8:26:29 PM | 30 | 3.0 | 16.0 | 64 | 50 | 76.2 | 75.1 | 29.876 | 7.26 | 0.0 | 0 | 0.00 | 0.00 | 0.00 | 0.00 |
| 05/09/26 8:27:21 PM | 38 | 1.0 | 16.0 | 64 | 50 | 76.2 | 74.9 | 29.875 | 7.26 | 0.0 | 0 | 0.00 | 0.00 | 0.00 | 0.00 |
| 05/09/26 8:28:32 PM | 34 | 3.0 | 16.0 | 64 | 51 | 76.2 | 74.8 | 29.876 | 7.26 | 0.0 | 0 | 0.00 | 0.00 | 0.00 | 0.00 |
| 05/09/26 8:29:25 PM | 38 | 2.0 | 16.0 | 64 | 51 | 76.2 | 74.7 | 29.877 | 7.26 | 0.0 | 0 | 0.00 | 0.00 | 0.00 | 0.00 |
| 05/09/26 8:30:33 PM | 38 | 2.0 | 16.0 | 64 | 51 | 76.2 | 74.6 | 29.877 | 7.26 | 0.0 | 0 | 0.00 | 0.00 | 0.00 | 0.00 |
| 05/09/26 8:31:26 PM | 36 | 3.0 | 16.0 | 64 | 51 | 76.1 | 74.5 | 29.875 | 7.26 | 0.0 | 0 | 0.00 | 0.00 | 0.00 | 0.00 |
| 05/09/26 8:32:15 PM | 39 | 3.0 | 16.0 | 64 | 51 | 76.1 | 74.4 | 29.876 | 7.26 | 0.0 | 0 | 0.00 | 0.00 | 0.00 | 0.00 |
| 05/09/26 8:33:29 PM | 32 | 1.0 | 16.0 | 64 | 52 | 76.0 | 74.3 | 29.877 | 7.26 | 0.0 | 0 | 0.00 | 0.00 | 0.00 | 0.00 |
| 05/09/26 8:34:19 PM | 36 | 3.0 | 16.0 | 64 | 52 | 76.0 | 74.2 | 29.879 | 7.26 | 0.0 | 0 | 0.00 | 0.00 | 0.00 | 0.00 |
| 05/09/26 8:35:30 PM | 38 | 2.0 | 16.0 | 64 | 52 | 76.0 | 74.1 | 29.878 | 7.26 | 0.0 | 0 | 0.00 | 0.00 | 0.00 | 0.00 |
| 05/09/26 8:36:20 PM | 38 | 3.0 | 16.0 | 64 | 52 | 76.0 | 74.0 | 29.879 | 7.26 | 0.0 | 0 | 0.00 | 0.00 | 0.00 | 0.00 |
| 05/09/26 8:37:33 PM | 38 | 2.0 | 16.0 | 64 | 52 | 75.9 | 73.8 | 29.878 | 7.26 | 0.0 | 0 | 0.00 | 0.00 | 0.00 | 0.00 |
| 05/09/26 8:38:23 PM | 38 | 1.0 | 16.0 | 64 | 52 | 75.9 | 73.7 | 29.879 | 7.26 | 0.0 | 0 | 0.00 | 0.00 | 0.00 | 0.00 |
| 05/09/26 8:39:37 PM | 38 | 1.0 | 16.0 | 64 | 53 | 75.9 | 73.7 | 29.881 | 7.26 | 0.0 | 0 | 0.00 | 0.00 | 0.00 | 0.00 |
| 05/09/26 8:40:30 PM | 38 | 0.0 | 16.0 | 64 | 53 | 75.9 | 73.5 | 29.881 | 7.26 | 0.0 | 0 | 0.00 | 0.00 | 0.00 | 0.00 |
| 05/09/26 8:41:35 PM | 32 | 0.0 | 16.0 | 64 | 53 | 75.8 | 73.5 | 29.881 | 7.26 | 0.0 | 0 | 0.00 | 0.00 | 0.00 | 0.00 |
| 05/09/26 8:42:28 PM | 32 | 0.0 | 16.0 | 64 | 53 | 75.8 | 73.4 | 29.885 | 7.26 | 0.0 | 0 | 0.00 | 0.00 | 0.00 | 0.00 |
| 05/09/26 8:43:21 PM | 36 | 0.0 | 16.0 | 64 | 53 | 75.8 | 73.4 | 29.883 | 7.26 | 0.0 | 0 | 0.00 | 0.00 | 0.00 | 0.00 |
| 05/09/26 8:44:32 PM | 39 | 0.0 | 16.0 | 64 | 53 | 75.8 | 73.3 | 29.884 | 7.26 | 0.0 | 0 | 0.00 | 0.00 | 0.00 | 0.00 |
| 05/09/26 8:45:27 PM | 36 | 0.0 | 16.0 | 64 | 53 | 75.7 | 73.3 | 29.884 | 7.26 | 0.0 | 0 | 0.00 | 0.00 | 0.00 | 0.00 |
| 05/09/26 8:46:32 PM | 38 | 0.0 | 16.0 | 64 | 53 | 75.7 | 73.3 | 29.884 | 7.26 | 0.0 | 0 | 0.00 | 0.00 | 0.00 | 0.00 |
| 05/09/26 8:47:25 PM | 35 | 0.0 | 16.0 | 64 | 53 | 75.7 | 73.3 | 29.885 | 7.26 | 0.0 | 0 | 0.00 | 0.00 | 0.00 | 0.00 |
| 05/09/26 8:48:36 PM | 38 | 0.0 | 16.0 | 64 | 53 | 75.7 | 73.2 | 29.886 | 7.26 | 0.0 | 0 | 0.00 | 0.00 | 0.00 | 0.00 |
| 05/09/26 8:49:28 PM | 38 | 0.0 | 16.0 | 64 | 53 | 75.7 | 73.2 | 29.886 | 7.26 | 0.0 | 0 | 0.00 | 0.00 | 0.00 | 0.00 |
| 05/09/26 8:50:18 PM | 38 | 0.0 | 16.0 | 64 | 53 | 75.6 | 73.1 | 29.885 | 7.26 | 0.0 | 0 | 0.00 | 0.00 | 0.00 | 0.00 |
| 05/09/26 8:51:29 PM | 32 | 0.0 | 16.0 | 64 | 53 | 75.6 | 73.0 | 29.887 | 7.26 | 0.0 | 0 | 0.00 | 0.00 | 0.00 | 0.00 |
| 05/09/26 8:52:19 PM | 35 | 2.0 | 16.0 | 64 | 53 | 75.6 | 73.0 | 29.885 | 7.26 | 0.0 | 0 | 0.00 | 0.00 | 0.00 | 0.00 |
| 05/09/26 8:53:33 PM | 39 | 3.0 | 16.0 | 64 | 54 | 75.5 | 72.9 | 29.886 | 7.26 | 0.0 | 0 | 0.00 | 0.00 | 0.00 | 0.00 |
| 05/09/26 8:54:25 PM | 34 | 3.0 | 16.0 | 64 | 54 | 75.5 | 72.8 | 29.886 | 7.26 | 0.0 | 0 | 0.00 | 0.00 | 0.00 | 0.00 |
| 05/09/26 8:55:18 PM | 36 | 2.0 | 16.0 | 64 | 54 | 75.4 | 72.8 | 29.885 | 7.26 | 0.0 | 0 | 0.00 | 0.00 | 0.00 | 0.00 |
| 05/09/26 8:56:29 PM | 38 | 2.0 | 16.0 | 64 | 54 | 75.4 | 72.6 | 29.890 | 7.26 | 0.0 | 0 | 0.00 | 0.00 | 0.00 | 0.00 |
| 05/09/26 8:57:16 PM | 32 | 2.0 | 16.0 | 64 | 55 | 75.4 | 72.5 | 29.886 | 7.26 | 0.0 | 0 | 0.00 | 0.00 | 0.00 | 0.00 |
| 05/09/26 8:58:29 PM | 36 | 3.0 | 16.0 | 64 | 55 | 75.3 | 72.4 | 29.887 | 7.26 | 0.0 | 0 | 0.00 | 0.00 | 0.00 | 0.00 |
| 05/09/26 8:59:19 PM | 35 | 3.0 | 16.0 | 64 | 55 | 75.3 | 72.3 | 29.887 | 7.26 | 0.0 | 0 | 0.00 | 0.00 | 0.00 | 0.00 |
| 05/09/26 9:00:54 PM | 38 | 1.0 | 16.0 | 64 | 55 | 75.3 | 72.3 | 29.886 | 7.26 | 0.0 | 0 | 0.00 | 0.00 | 0.00 | 0.00 |
| 05/09/26 9:01:26 PM | 38 | 2.0 | 16.0 | 64 | 55 | 75.3 | 72.2 | 29.890 | 7.26 | 0.0 | 0 | 0.00 | 0.00 | 0.00 | 0.00 |
| 05/09/26 9:02:18 PM | 38 | 2.0 | 16.0 | 64 | 56 | 75.3 | 72.2 | 29.886 | 7.26 | 0.0 | 0 | 0.00 | 0.00 | 0.00 | 0.00 |
| 05/09/26 9:03:27 PM | 34 | 2.0 | 16.0 | 64 | 56 | 75.2 | 72.2 | 29.886 | 7.26 | 0.0 | 0 | 0.00 | 0.00 | 0.00 | 0.00 |
| 05/09/26 9:04:19 PM | 38 | 1.0 | 16.0 | 64 | 56 | 75.2 | 72.1 | 29.887 | 7.26 | 0.0 | 0 | 0.00 | 0.00 | 0.00 | 0.00 |
| 05/09/26 9:05:30 PM | 32 | 0.0 | 16.0 | 64 | 56 | 75.2 | 72.1 | 29.886 | 7.26 | 0.0 | 0 | 0.00 | 0.00 | 0.00 | 0.00 |
| 05/09/26 9:06:20 PM | 32 | 0.0 | 16.0 | 64 | 56 | 75.1 | 72.1 | 29.887 | 7.26 | 0.0 | 0 | 0.00 | 0.00 | 0.00 | 0.00 |
| 05/09/26 9:07:34 PM | 40 | 0.0 | 16.0 | 64 | 56 | 75.1 | 72.1 | 29.888 | 7.26 | 0.0 | 0 | 0.00 | 0.00 | 0.00 | 0.00 |
| 05/09/26 9:08:20 PM | 36 | 0.0 | 16.0 | 64 | 55 | 75.0 | 72.0 | 29.886 | 7.26 | 0.0 | 0 | 0.00 | 0.00 | 0.00 | 0.00 |
| 05/09/26 9:09:34 PM | 36 | 0.0 | 16.0 | 64 | 55 | 75.0 | 72.0 | 29.885 | 7.26 | 0.0 | 0 | 0.00 | 0.00 | 0.00 | 0.00 |
| 05/09/26 9:10:24 PM | 38 | 0.0 | 16.0 | 64 | 55 | 75.0 | 71.9 | 29.886 | 7.26 | 0.0 | 0 | 0.00 | 0.00 | 0.00 | 0.00 |
| 05/09/26 9:11:17 PM | 38 | 0.0 | 16.0 | 64 | 55 | 74.9 | 71.9 | 29.883 | 7.26 | 0.0 | 0 | 0.00 | 0.00 | 0.00 | 0.00 |
| 05/09/26 9:12:28 PM | 38 | 0.0 | 16.0 | 64 | 55 | 74.9 | 71.9 | 29.885 | 7.26 | 0.0 | 0 | 0.00 | 0.00 | 0.00 | 0.00 |
| 05/09/26 9:13:17 PM | 36 | 0.0 | 16.0 | 64 | 55 | 74.9 | 71.8 | 29.887 | 7.26 | 0.0 | 0 | 0.00 | 0.00 | 0.00 | 0.00 |
| 05/09/26 9:14:28 PM | 35 | 0.0 | 16.0 | 64 | 55 | 74.8 | 71.8 | 29.886 | 7.26 | 0.0 | 0 | 0.00 | 0.00 | 0.00 | 0.00 |
| 05/09/26 9:15:42 PM | 34 | 0.0 | 16.0 | 64 | 55 | 74.8 | 71.8 | 29.886 | 7.26 | 0.0 | 0 | 0.00 | 0.00 | 0.00 | 0.00 |
| 05/09/26 9:16:32 PM | 32 | 0.0 | 16.0 | 64 | 55 | 74.8 | 71.7 | 29.885 | 7.26 | 0.0 | 0 | 0.00 | 0.00 | 0.00 | 0.00 |
| 05/09/26 9:17:28 PM | 38 | 0.0 | 16.0 | 64 | 56 | 74.7 | 71.7 | 29.883 | 7.26 | 0.0 | 0 | 0.00 | 0.00 | 0.00 | 0.00 |
| 05/09/26 9:18:17 PM | 34 | 0.0 | 16.0 | 64 | 56 | 74.7 | 71.6 | 29.886 | 7.26 | 0.0 | 0 | 0.00 | 0.00 | 0.00 | 0.00 |
| 05/09/26 9:19:25 PM | 38 | 0.0 | 16.0 | 64 | 56 | 74.7 | 71.6 | 29.887 | 7.26 | 0.0 | 0 | 0.00 | 0.00 | 0.00 | 0.00 |
| 05/09/26 9:20:18 PM | 29 | 0.0 | 16.0 | 64 | 56 | 74.7 | 71.5 | 29.888 | 7.26 | 0.0 | 0 | 0.00 | 0.00 | 0.00 | 0.00 |
| 05/09/26 9:21:29 PM | 36 | 0.0 | 16.0 | 64 | 56 | 74.6 | 71.5 | 29.888 | 7.26 | 0.0 | 0 | 0.00 | 0.00 | 0.00 | 0.00 |
| 05/09/26 9:22:22 PM | 38 | 0.0 | 16.0 | 64 | 56 | 74.6 | 71.4 | 29.888 | 7.26 | 0.0 | 0 | 0.00 | 0.00 | 0.00 | 0.00 |
| 05/09/26 9:23:32 PM | 38 | 0.0 | 16.0 | 64 | 57 | 74.6 | 71.3 | 29.888 | 7.26 | 0.0 | 0 | 0.00 | 0.00 | 0.00 | 0.00 |
| 05/09/26 9:24:19 PM | 34 | 0.0 | 16.0 | 64 | 57 | 74.6 | 71.3 | 29.891 | 7.26 | 0.0 | 0 | 0.00 | 0.00 | 0.00 | 0.00 |
| 05/09/26 9:25:33 PM | 38 | 0.0 | 16.0 | 64 | 57 | 74.6 | 71.2 | 29.888 | 7.26 | 0.0 | 0 | 0.00 | 0.00 | 0.00 | 0.00 |
| 05/09/26 9:26:23 PM | 35 | 0.0 | 16.0 | 64 | 57 | 74.5 | 71.2 | 29.889 | 7.26 | 0.0 | 0 | 0.00 | 0.00 | 0.00 | 0.00 |
| 05/09/26 9:27:16 PM | 32 | 0.0 | 16.0 | 64 | 57 | 74.5 | 71.1 | 29.890 | 7.26 | 0.0 | 0 | 0.00 | 0.00 | 0.00 | 0.00 |
| 05/09/26 9:28:27 PM | 32 | 0.0 | 16.0 | 64 | 57 | 74.5 | 71.0 | 29.891 | 7.26 | 0.0 | 0 | 0.00 | 0.00 | 0.00 | 0.00 |
| 05/09/26 9:29:20 PM | 36 | 0.0 | 16.0 | 64 | 57 | 74.4 | 71.0 | 29.891 | 7.26 | 0.0 | 0 | 0.00 | 0.00 | 0.00 | 0.00 |
| 05/09/26 9:30:31 PM | 38 | 0.0 | 16.0 | 64 | 57 | 74.4 | 70.9 | 29.888 | 7.26 | 0.0 | 0 | 0.00 | 0.00 | 0.00 | 0.00 |
| 05/09/26 9:31:21 PM | 35 | 0.0 | 16.0 | 64 | 57 | 74.4 | 70.8 | 29.888 | 7.26 | 0.0 | 0 | 0.00 | 0.00 | 0.00 | 0.00 |
| 05/09/26 9:32:34 PM | 38 | 0.0 | 16.0 | 64 | 57 | 74.4 | 70.8 | 29.889 | 7.26 | 0.0 | 0 | 0.00 | 0.00 | 0.00 | 0.00 |
| 05/09/26 9:33:27 PM | 31 | 0.0 | 16.0 | 64 | 57 | 74.3 | 70.7 | 29.890 | 7.26 | 0.0 | 0 | 0.00 | 0.00 | 0.00 | 0.00 |
| 05/09/26 9:34:20 PM | 38 | 0.0 | 16.0 | 64 | 57 | 74.3 | 70.7 | 29.888 | 7.26 | 0.0 | 0 | 0.00 | 0.00 | 0.00 | 0.00 |
| 05/09/26 9:35:28 PM | 38 | 0.0 | 16.0 | 64 | 57 | 74.2 | 70.6 | 29.890 | 7.26 | 0.0 | 0 | 0.00 | 0.00 | 0.00 | 0.00 |
| 05/09/26 9:36:18 PM | 34 | 0.0 | 16.0 | 64 | 57 | 74.2 | 70.6 | 29.888 | 7.26 | 0.0 | 0 | 0.00 | 0.00 | 0.00 | 0.00 |
| 05/09/26 9:37:31 PM | 38 | 0.0 | 16.0 | 64 | 58 | 74.2 | 70.5 | 29.886 | 7.26 | 0.0 | 0 | 0.00 | 0.00 | 0.00 | 0.00 |
| 05/09/26 9:38:21 PM | 35 | 0.0 | 16.0 | 64 | 58 | 74.1 | 70.4 | 29.888 | 7.26 | 0.0 | 0 | 0.00 | 0.00 | 0.00 | 0.00 |
| 05/09/26 9:39:35 PM | 36 | 0.0 | 16.0 | 64 | 58 | 74.1 | 70.4 | 29.889 | 7.26 | 0.0 | 0 | 0.00 | 0.00 | 0.00 | 0.00 |
| 05/09/26 9:40:25 PM | 32 | 0.0 | 16.0 | 64 | 58 | 74.1 | 70.3 | 29.889 | 7.26 | 0.0 | 0 | 0.00 | 0.00 | 0.00 | 0.00 |
| 05/09/26 9:41:15 PM | 38 | 0.0 | 16.0 | 64 | 59 | 74.1 | 70.3 | 29.890 | 7.26 | 0.0 | 0 | 0.00 | 0.00 | 0.00 | 0.00 |
| 05/09/26 9:42:29 PM | 35 | 0.0 | 16.0 | 64 | 59 | 74.0 | 70.2 | 29.891 | 7.26 | 0.0 | 0 | 0.00 | 0.00 | 0.00 | 0.00 |
| 05/09/26 9:43:19 PM | 38 | 0.0 | 16.0 | 64 | 59 | 74.0 | 70.1 | 29.890 | 7.26 | 0.0 | 0 | 0.00 | 0.00 | 0.00 | 0.00 |
| 05/09/26 9:44:33 PM | 32 | 0.0 | 16.0 | 64 | 59 | 74.0 | 70.1 | 29.891 | 7.26 | 0.0 | 0 | 0.00 | 0.00 | 0.00 | 0.00 |
| 05/09/26 9:45:49 PM | 31 | 0.0 | 16.0 | 64 | 59 | 74.0 | 70.0 | 29.886 | 7.26 | 0.0 | 0 | 0.00 | 0.00 | 0.00 | 0.00 |
| 05/09/26 9:46:33 PM | 35 | 0.0 | 16.0 | 64 | 59 | 73.9 | 69.9 | 29.888 | 7.26 | 0.0 | 0 | 0.00 | 0.00 | 0.00 | 0.00 |
| 05/09/26 9:47:23 PM | 38 | 0.0 | 16.0 | 64 | 59 | 73.9 | 69.9 | 29.893 | 7.26 | 0.0 | 0 | 0.00 | 0.00 | 0.00 | 0.00 |
| 05/09/26 9:48:37 PM | 38 | 0.0 | 16.0 | 64 | 59 | 73.9 | 69.8 | 29.890 | 7.26 | 0.0 | 0 | 0.00 | 0.00 | 0.00 | 0.00 |
| 05/09/26 9:49:30 PM | 38 | 0.0 | 16.0 | 64 | 59 | 73.8 | 69.8 | 29.891 | 7.26 | 0.0 | 0 | 0.00 | 0.00 | 0.00 | 0.00 |
| 05/09/26 9:50:19 PM | 35 | 0.0 | 16.0 | 64 | 59 | 73.8 | 69.7 | 29.893 | 7.26 | 0.0 | 0 | 0.00 | 0.00 | 0.00 | 0.00 |
| 05/09/26 9:51:30 PM | 38 | 0.0 | 16.0 | 64 | 59 | 73.8 | 69.7 | 29.892 | 7.26 | 0.0 | 0 | 0.00 | 0.00 | 0.00 | 0.00 |
| 05/09/26 9:52:20 PM | 36 | 0.0 | 16.0 | 64 | 59 | 73.8 | 69.6 | 29.892 | 7.26 | 0.0 | 0 | 0.00 | 0.00 | 0.00 | 0.00 |
| 05/09/26 9:53:34 PM | 38 | 0.0 | 16.0 | 64 | 60 | 73.8 | 69.5 | 29.893 | 7.26 | 0.0 | 0 | 0.00 | 0.00 | 0.00 | 0.00 |
| 05/09/26 9:54:27 PM | 35 | 0.0 | 16.0 | 64 | 60 | 73.7 | 69.5 | 29.895 | 7.26 | 0.0 | 0 | 0.00 | 0.00 | 0.00 | 0.00 |
| 05/09/26 9:55:16 PM | 38 | 0.0 | 16.0 | 64 | 60 | 73.7 | 69.4 | 29.895 | 7.26 | 0.0 | 0 | 0.00 | 0.00 | 0.00 | 0.00 |
| 05/09/26 9:56:30 PM | 32 | 0.0 | 16.0 | 64 | 60 | 73.6 | 69.3 | 29.897 | 7.26 | 0.0 | 0 | 0.00 | 0.00 | 0.00 | 0.00 |
| 05/09/26 9:57:17 PM | 36 | 0.0 | 16.0 | 64 | 60 | 73.6 | 69.3 | 29.899 | 7.26 | 0.0 | 0 | 0.00 | 0.00 | 0.00 | 0.00 |
| 05/09/26 9:58:31 PM | 35 | 0.0 | 16.0 | 64 | 61 | 73.6 | 69.2 | 29.897 | 7.26 | 0.0 | 0 | 0.00 | 0.00 | 0.00 | 0.00 |
| 05/09/26 9:59:21 PM | 36 | 0.0 | 16.0 | 64 | 61 | 73.6 | 69.1 | 29.899 | 7.26 | 0.0 | 0 | 0.00 | 0.00 | 0.00 | 0.00 |
| 05/09/26 10:00:35 PM | 38 | 0.0 | 16.0 | 64 | 61 | 73.5 | 69.0 | 29.899 | 7.26 | 0.0 | 0 | 0.00 | 0.00 | 0.00 | 0.00 |
| 05/09/26 10:01:28 PM | 38 | 0.0 | 16.0 | 64 | 61 | 73.5 | 69.0 | 29.902 | 7.26 | 0.0 | 0 | 0.00 | 0.00 | 0.00 | 0.00 |
| 05/09/26 10:02:35 PM | 34 | 0.0 | 16.0 | 64 | 61 | 73.5 | 68.9 | 29.902 | 7.26 | 0.0 | 0 | 0.00 | 0.00 | 0.00 | 0.00 |
| 05/09/26 10:03:25 PM | 36 | 0.0 | 16.0 | 64 | 61 | 73.5 | 68.9 | 29.903 | 7.26 | 0.0 | 0 | 0.00 | 0.00 | 0.00 | 0.00 |
| 05/09/26 10:04:18 PM | 36 | 0.0 | 16.0 | 64 | 61 | 73.5 | 68.8 | 29.904 | 7.26 | 0.0 | 0 | 0.00 | 0.00 | 0.00 | 0.00 |
| 05/09/26 10:05:32 PM | 39 | 0.0 | 16.0 | 64 | 61 | 73.5 | 68.8 | 29.902 | 7.26 | 0.0 | 0 | 0.00 | 0.00 | 0.00 | 0.00 |
| 05/09/26 10:06:22 PM | 32 | 0.0 | 16.0 | 64 | 61 | 73.4 | 68.7 | 29.902 | 7.26 | 0.0 | 0 | 0.00 | 0.00 | 0.00 | 0.00 |
| 05/09/26 10:07:32 PM | 35 | 0.0 | 16.0 | 64 | 62 | 73.5 | 68.6 | 29.903 | 7.26 | 0.0 | 0 | 0.00 | 0.00 | 0.00 | 0.00 |
| 05/09/26 10:08:22 PM | 38 | 0.0 | 16.0 | 64 | 62 | 73.5 | 68.6 | 29.902 | 7.26 | 0.0 | 0 | 0.00 | 0.00 | 0.00 | 0.00 |
| 05/09/26 10:09:36 PM | 39 | 0.0 | 16.0 | 64 | 62 | 73.4 | 68.5 | 29.904 | 7.26 | 0.0 | 0 | 0.00 | 0.00 | 0.00 | 0.00 |
| 05/09/26 10:10:26 PM | 38 | 0.0 | 16.0 | 64 | 63 | 73.5 | 68.5 | 29.904 | 7.26 | 0.0 | 0 | 0.00 | 0.00 | 0.00 | 0.00 |
| 05/09/26 10:11:19 PM | 36 | 0.0 | 16.0 | 64 | 63 | 73.5 | 68.4 | 29.904 | 7.26 | 0.0 | 0 | 0.00 | 0.00 | 0.00 | 0.00 |
| 05/09/26 10:12:30 PM | 38 | 0.0 | 16.0 | 64 | 63 | 73.5 | 68.4 | 29.903 | 7.26 | 0.0 | 0 | 0.00 | 0.00 | 0.00 | 0.00 |
| 05/09/26 10:13:19 PM | 38 | 0.0 | 16.0 | 64 | 63 | 73.5 | 68.3 | 29.905 | 7.26 | 0.0 | 0 | 0.00 | 0.00 | 0.00 | 0.00 |
| 05/09/26 10:14:30 PM | 35 | 2.0 | 16.0 | 64 | 63 | 73.5 | 68.3 | 29.902 | 7.26 | 0.0 | 0 | 0.00 | 0.00 | 0.00 | 0.00 |
| 05/09/26 10:15:47 PM | 37 | 2.0 | 16.0 | 64 | 63 | 73.5 | 68.3 | 29.905 | 7.26 | 0.0 | 0 | 0.00 | 0.00 | 0.00 | 0.00 |
| 05/09/26 10:16:37 PM | 34 | 2.0 | 16.0 | 64 | 64 | 73.5 | 68.2 | 29.907 | 7.26 | 0.0 | 0 | 0.00 | 0.00 | 0.00 | 0.00 |
| 05/09/26 10:17:27 PM | 38 | 1.0 | 16.0 | 64 | 64 | 73.5 | 68.1 | 29.904 | 7.26 | 0.0 | 0 | 0.00 | 0.00 | 0.00 | 0.00 |
| 05/09/26 10:18:20 PM | 34 | 0.0 | 16.0 | 64 | 64 | 73.5 | 68.1 | 29.904 | 7.26 | 0.0 | 0 | 0.00 | 0.00 | 0.00 | 0.00 |
| 05/09/26 10:19:25 PM | 38 | 0.0 | 16.0 | 64 | 64 | 73.5 | 68.0 | 29.902 | 7.26 | 0.0 | 0 | 0.00 | 0.00 | 0.00 | 0.00 |
| 05/09/26 10:20:17 PM | 36 | 0.0 | 16.0 | 64 | 64 | 73.5 | 68.0 | 29.902 | 7.26 | 0.0 | 0 | 0.00 | 0.00 | 0.00 | 0.00 |
| 05/09/26 10:21:32 PM | 38 | 0.0 | 16.0 | 64 | 64 | 73.5 | 67.9 | 29.904 | 7.26 | 0.0 | 0 | 0.00 | 0.00 | 0.00 | 0.00 |
| 05/09/26 10:22:21 PM | 38 | 0.0 | 16.0 | 64 | 64 | 73.5 | 67.9 | 29.904 | 7.26 | 0.0 | 0 | 0.00 | 0.00 | 0.00 | 0.00 |
| 05/09/26 10:23:35 PM | 38 | 0.0 | 16.0 | 64 | 64 | 73.5 | 67.8 | 29.903 | 7.26 | 0.0 | 0 | 0.00 | 0.00 | 0.00 | 0.00 |
| 05/09/26 10:24:22 PM | 38 | 0.0 | 16.0 | 64 | 64 | 73.5 | 67.7 | 29.905 | 7.26 | 0.0 | 0 | 0.00 | 0.00 | 0.00 | 0.00 |
| 05/09/26 10:25:33 PM | 37 | 0.0 | 16.0 | 64 | 65 | 73.5 | 67.7 | 29.902 | 7.26 | 0.0 | 0 | 0.00 | 0.00 | 0.00 | 0.00 |
| 05/09/26 10:26:26 PM | 40 | 0.0 | 16.0 | 64 | 65 | 73.5 | 67.6 | 29.906 | 7.26 | 0.0 | 0 | 0.00 | 0.00 | 0.00 | 0.00 |
| 05/09/26 10:27:19 PM | 39 | 0.0 | 16.0 | 64 | 65 | 73.6 | 67.6 | 29.904 | 7.26 | 0.0 | 0 | 0.00 | 0.00 | 0.00 | 0.00 |
| 05/09/26 10:28:29 PM | 36 | 0.0 | 16.0 | 64 | 65 | 73.6 | 67.6 | 29.906 | 7.26 | 0.0 | 0 | 0.00 | 0.00 | 0.00 | 0.00 |
| 05/09/26 10:29:19 PM | 38 | 0.0 | 16.0 | 64 | 65 | 73.6 | 67.6 | 29.904 | 7.26 | 0.0 | 0 | 0.00 | 0.00 | 0.00 | 0.00 |
| 05/09/26 10:30:33 PM | 35 | 0.0 | 16.0 | 64 | 65 | 73.6 | 67.5 | 29.903 | 7.26 | 0.0 | 0 | 0.00 | 0.00 | 0.00 | 0.00 |
| 05/09/26 10:31:23 PM | 38 | 0.0 | 16.0 | 64 | 65 | 73.6 | 67.5 | 29.901 | 7.26 | 0.0 | 0 | 0.00 | 0.00 | 0.00 | 0.00 |
| 05/09/26 10:32:34 PM | 38 | 0.0 | 16.0 | 64 | 65 | 73.6 | 67.5 | 29.904 | 7.26 | 0.0 | 0 | 0.00 | 0.00 | 0.00 | 0.00 |
| 05/09/26 10:33:27 PM | 38 | 0.0 | 16.0 | 64 | 65 | 73.6 | 67.4 | 29.903 | 7.26 | 0.0 | 0 | 0.00 | 0.00 | 0.00 | 0.00 |
| 05/09/26 10:34:20 PM | 37 | 0.0 | 16.0 | 64 | 65 | 73.5 | 67.4 | 29.905 | 7.26 | 0.0 | 0 | 0.00 | 0.00 | 0.00 | 0.00 |
| 05/09/26 10:35:27 PM | 38 | 0.0 | 16.0 | 64 | 65 | 73.6 | 67.4 | 29.904 | 7.26 | 0.0 | 0 | 0.00 | 0.00 | 0.00 | 0.00 |
| 05/09/26 10:36:20 PM | 38 | 0.0 | 16.0 | 64 | 65 | 73.6 | 67.4 | 29.902 | 7.26 | 0.0 | 0 | 0.00 | 0.00 | 0.00 | 0.00 |
| 05/09/26 10:37:31 PM | 37 | 0.0 | 16.0 | 64 | 65 | 73.6 | 67.3 | 29.903 | 7.26 | 0.0 | 0 | 0.00 | 0.00 | 0.00 | 0.00 |
| 05/09/26 10:38:24 PM | 38 | 0.0 | 16.0 | 64 | 65 | 73.5 | 67.3 | 29.906 | 7.26 | 0.0 | 0 | 0.00 | 0.00 | 0.00 | 0.00 |
| 05/09/26 10:39:35 PM | 34 | 0.0 | 16.0 | 64 | 65 | 73.6 | 67.2 | 29.904 | 7.26 | 0.0 | 0 | 0.00 | 0.00 | 0.00 | 0.00 |
| 05/09/26 10:40:25 PM | 36 | 0.0 | 16.0 | 64 | 65 | 73.6 | 67.2 | 29.904 | 7.26 | 0.0 | 0 | 0.00 | 0.00 | 0.00 | 0.00 |
| 05/09/26 10:41:17 PM | 38 | 0.0 | 16.0 | 64 | 65 | 73.6 | 67.2 | 29.905 | 7.26 | 0.0 | 0 | 0.00 | 0.00 | 0.00 | 0.00 |
| 05/09/26 10:42:28 PM | 34 | 0.0 | 16.0 | 64 | 66 | 73.6 | 67.2 | 29.903 | 7.26 | 0.0 | 0 | 0.00 | 0.00 | 0.00 | 0.00 |
| 05/09/26 10:43:21 PM | 38 | 0.0 | 16.0 | 64 | 66 | 73.6 | 67.1 | 29.905 | 7.26 | 0.0 | 0 | 0.00 | 0.00 | 0.00 | 0.00 |
| 05/09/26 10:44:32 PM | 34 | 0.0 | 16.0 | 64 | 66 | 73.6 | 67.1 | 29.902 | 7.26 | 0.0 | 0 | 0.00 | 0.00 | 0.00 | 0.00 |
| 05/09/26 10:45:43 PM | 34 | 0.0 | 16.0 | 64 | 66 | 73.6 | 67.1 | 29.903 | 7.26 | 0.0 | 0 | 0.00 | 0.00 | 0.00 | 0.00 |
| 05/09/26 10:46:33 PM | 36 | 0.0 | 16.0 | 64 | 66 | 73.6 | 67.0 | 29.903 | 7.26 | 0.0 | 0 | 0.00 | 0.00 | 0.00 | 0.00 |
| 05/09/26 10:47:26 PM | 38 | 0.0 | 16.0 | 64 | 66 | 73.6 | 67.0 | 29.904 | 7.26 | 0.0 | 0 | 0.00 | 0.00 | 0.00 | 0.00 |
| 05/09/26 10:48:19 PM | 38 | 0.0 | 16.0 | 64 | 66 | 73.6 | 67.0 | 29.902 | 7.26 | 0.0 | 0 | 0.00 | 0.00 | 0.00 | 0.00 |
| 05/09/26 10:49:30 PM | 34 | 0.0 | 16.0 | 64 | 66 | 73.6 | 67.0 | 29.905 | 7.26 | 0.0 | 0 | 0.00 | 0.00 | 0.00 | 0.00 |
| 05/09/26 10:50:22 PM | 35 | 0.0 | 16.0 | 64 | 66 | 73.6 | 66.9 | 29.904 | 7.26 | 0.0 | 0 | 0.00 | 0.00 | 0.00 | 0.00 |
| 05/09/26 10:51:30 PM | 32 | 0.0 | 16.0 | 64 | 66 | 73.6 | 66.8 | 29.905 | 7.26 | 0.0 | 0 | 0.00 | 0.00 | 0.00 | 0.00 |
| 05/09/26 10:52:23 PM | 36 | 0.0 | 16.0 | 64 | 66 | 73.6 | 66.8 | 29.905 | 7.26 | 0.0 | 0 | 0.00 | 0.00 | 0.00 | 0.00 |
| 05/09/26 10:53:34 PM | 30 | 0.0 | 16.0 | 64 | 67 | 73.6 | 66.7 | 29.901 | 7.26 | 0.0 | 0 | 0.00 | 0.00 | 0.00 | 0.00 |
| 05/09/26 10:54:27 PM | 34 | 0.0 | 16.0 | 64 | 66 | 73.7 | 66.7 | 29.906 | 7.26 | 0.0 | 0 | 0.00 | 0.00 | 0.00 | 0.00 |
| 05/09/26 10:55:17 PM | 38 | 0.0 | 16.0 | 64 | 66 | 73.7 | 66.7 | 29.905 | 7.26 | 0.0 | 0 | 0.00 | 0.00 | 0.00 | 0.00 |
| 05/09/26 10:56:25 PM | 37 | 0.0 | 16.0 | 64 | 67 | 73.6 | 66.6 | 29.906 | 7.26 | 0.0 | 0 | 0.00 | 0.00 | 0.00 | 0.00 |
| 05/09/26 10:57:18 PM | 28 | 0.0 | 16.0 | 64 | 67 | 73.6 | 66.5 | 29.906 | 7.26 | 0.0 | 0 | 0.00 | 0.00 | 0.00 | 0.00 |
| 05/09/26 10:58:32 PM | 36 | 0.0 | 16.0 | 64 | 67 | 73.6 | 66.5 | 29.903 | 7.26 | 0.0 | 0 | 0.00 | 0.00 | 0.00 | 0.00 |
| 05/09/26 10:59:25 PM | 39 | 0.0 | 16.0 | 64 | 67 | 73.7 | 66.4 | 29.905 | 7.26 | 0.0 | 0 | 0.00 | 0.00 | 0.00 | 0.00 |
| 05/09/26 11:00:17 PM | 32 | 0.0 | 16.0 | 64 | 67 | 73.6 | 66.3 | 29.905 | 7.26 | 0.0 | 0 | 0.00 | 0.00 | 0.00 | 0.00 |
| 05/09/26 11:01:28 PM | 35 | 0.0 | 16.0 | 64 | 67 | 73.7 | 66.3 | 29.905 | 7.26 | 0.0 | 0 | 0.00 | 0.00 | 0.00 | 0.00 |
| 05/09/26 11:02:18 PM | 40 | 0.0 | 16.0 | 64 | 67 | 73.7 | 66.2 | 29.904 | 7.26 | 0.0 | 0 | 0.00 | 0.00 | 0.00 | 0.00 |
| 05/09/26 11:03:29 PM | 32 | 0.0 | 16.0 | 64 | 67 | 73.6 | 66.2 | 29.905 | 7.26 | 0.0 | 0 | 0.00 | 0.00 | 0.00 | 0.00 |
| 05/09/26 11:04:19 PM | 36 | 0.0 | 16.0 | 64 | 67 | 73.6 | 66.1 | 29.904 | 7.26 | 0.0 | 0 | 0.00 | 0.00 | 0.00 | 0.00 |
| 05/09/26 11:05:33 PM | 36 | 0.0 | 16.0 | 64 | 68 | 73.7 | 66.1 | 29.904 | 7.26 | 0.0 | 0 | 0.00 | 0.00 | 0.00 | 0.00 |
| 05/09/26 11:06:26 PM | 38 | 0.0 | 16.0 | 64 | 68 | 73.6 | 66.1 | 29.905 | 7.26 | 0.0 | 0 | 0.00 | 0.00 | 0.00 | 0.00 |
| 05/09/26 11:07:34 PM | 38 | 0.0 | 16.0 | 64 | 68 | 73.7 | 66.0 | 29.907 | 7.26 | 0.0 | 0 | 0.00 | 0.00 | 0.00 | 0.00 |
| 05/09/26 11:08:23 PM | 38 | 0.0 | 16.0 | 64 | 68 | 73.7 | 65.9 | 29.906 | 7.26 | 0.0 | 0 | 0.00 | 0.00 | 0.00 | 0.00 |
| 05/09/26 11:09:16 PM | 39 | 0.0 | 16.0 | 64 | 68 | 73.7 | 65.9 | 29.906 | 7.26 | 0.0 | 0 | 0.00 | 0.00 | 0.00 | 0.00 |
| 05/09/26 11:10:27 PM | 36 | 0.0 | 16.0 | 64 | 68 | 73.7 | 65.8 | 29.908 | 7.26 | 0.0 | 0 | 0.00 | 0.00 | 0.00 | 0.00 |
| 05/09/26 11:11:20 PM | 39 | 0.0 | 16.0 | 64 | 68 | 73.7 | 65.8 | 29.908 | 7.26 | 0.0 | 0 | 0.00 | 0.00 | 0.00 | 0.00 |
| 05/09/26 11:12:28 PM | 32 | 0.0 | 16.0 | 64 | 68 | 73.6 | 65.7 | 29.907 | 7.26 | 0.0 | 0 | 0.00 | 0.00 | 0.00 | 0.00 |
| 05/09/26 11:13:18 PM | 36 | 0.0 | 16.0 | 64 | 68 | 73.6 | 65.6 | 29.908 | 7.26 | 0.0 | 0 | 0.00 | 0.00 | 0.00 | 0.00 |
| 05/09/26 11:14:29 PM | 34 | 0.0 | 16.0 | 64 | 69 | 73.6 | 65.6 | 29.905 | 7.26 | 0.0 | 0 | 0.00 | 0.00 | 0.00 | 0.00 |
| 05/09/26 11:15:22 PM | 32 | 0.0 | 16.0 | 64 | 69 | 73.6 | 65.5 | 29.907 | 7.26 | 0.0 | 0 | 0.00 | 0.00 | 0.00 | 0.00 |
| 05/09/26 11:16:36 PM | 38 | 0.0 | 16.0 | 64 | 69 | 73.7 | 65.5 | 29.908 | 7.26 | 0.0 | 0 | 0.00 | 0.00 | 0.00 | 0.00 |
| 05/09/26 11:17:26 PM | 38 | 0.0 | 16.0 | 64 | 69 | 73.6 | 65.4 | 29.905 | 7.26 | 0.0 | 0 | 0.00 | 0.00 | 0.00 | 0.00 |
| 05/09/26 11:18:34 PM | 38 | 0.0 | 16.0 | 64 | 69 | 73.6 | 65.4 | 29.906 | 7.26 | 0.0 | 0 | 0.00 | 0.00 | 0.00 | 0.00 |
| 05/09/26 11:19:27 PM | 37 | 0.0 | 16.0 | 64 | 69 | 73.6 | 65.3 | 29.907 | 7.26 | 0.0 | 0 | 0.00 | 0.00 | 0.00 | 0.00 |
| 05/09/26 11:20:19 PM | 37 | 0.0 | 16.0 | 64 | 69 | 73.6 | 65.3 | 29.906 | 7.26 | 0.0 | 0 | 0.00 | 0.00 | 0.00 | 0.00 |
| 05/09/26 11:21:33 PM | 34 | 0.0 | 16.0 | 64 | 70 | 73.6 | 65.2 | 29.906 | 7.26 | 0.0 | 0 | 0.00 | 0.00 | 0.00 | 0.00 |
| 05/09/26 11:22:23 PM | 35 | 0.0 | 16.0 | 64 | 70 | 73.6 | 65.2 | 29.906 | 7.26 | 0.0 | 0 | 0.00 | 0.00 | 0.00 | 0.00 |
| 05/09/26 11:23:31 PM | 35 | 0.0 | 16.0 | 64 | 70 | 73.6 | 65.2 | 29.907 | 7.26 | 0.0 | 0 | 0.00 | 0.00 | 0.00 | 0.00 |
| 05/09/26 11:24:24 PM | 38 | 1.0 | 16.0 | 64 | 70 | 73.6 | 65.2 | 29.906 | 7.26 | 0.0 | 0 | 0.00 | 0.00 | 0.00 | 0.00 |
| 05/09/26 11:25:35 PM | 37 | 2.0 | 16.0 | 64 | 70 | 73.6 | 65.0 | 29.905 | 7.26 | 0.0 | 0 | 0.00 | 0.00 | 0.00 | 0.00 |
| 05/09/26 11:26:28 PM | 37 | 1.0 | 16.0 | 64 | 70 | 73.7 | 65.0 | 29.905 | 7.26 | 0.0 | 0 | 0.00 | 0.00 | 0.00 | 0.00 |
| 05/09/26 11:27:17 PM | 38 | 1.0 | 16.0 | 64 | 71 | 73.6 | 64.9 | 29.906 | 7.26 | 0.0 | 0 | 0.00 | 0.00 | 0.00 | 0.00 |
| 05/09/26 11:28:25 PM | 38 | 1.0 | 16.0 | 64 | 71 | 73.6 | 64.9 | 29.907 | 7.26 | 0.0 | 0 | 0.00 | 0.00 | 0.00 | 0.00 |
| 05/09/26 11:29:18 PM | 38 | 2.0 | 16.0 | 64 | 71 | 73.6 | 64.8 | 29.907 | 7.26 | 0.0 | 0 | 0.00 | 0.00 | 0.00 | 0.00 |
| 05/09/26 11:30:54 PM | 38 | 1.0 | 16.0 | 64 | 71 | 73.6 | 64.8 | 29.907 | 7.26 | 0.0 | 0 | 0.00 | 0.00 | 0.00 | 0.00 |
| 05/09/26 11:31:25 PM | 38 | 0.0 | 16.0 | 64 | 71 | 73.6 | 64.8 | 29.909 | 7.26 | 0.0 | 0 | 0.00 | 0.00 | 0.00 | 0.00 |
| 05/09/26 11:32:36 PM | 35 | 0.0 | 16.0 | 64 | 72 | 73.7 | 64.7 | 29.906 | 7.26 | 0.0 | 0 | 0.00 | 0.00 | 0.00 | 0.00 |
| 05/09/26 11:33:29 PM | 38 | 0.0 | 16.0 | 64 | 72 | 73.6 | 64.7 | 29.908 | 7.26 | 0.0 | 0 | 0.00 | 0.00 | 0.00 | 0.00 |
| 05/09/26 11:34:16 PM | 38 | 0.0 | 16.0 | 64 | 72 | 73.6 | 64.7 | 29.908 | 7.26 | 0.0 | 0 | 0.00 | 0.00 | 0.00 | 0.00 |
| 05/09/26 11:35:30 PM | 32 | 0.0 | 16.0 | 64 | 72 | 73.6 | 64.7 | 29.906 | 7.26 | 0.0 | 0 | 0.00 | 0.00 | 0.00 | 0.00 |
| 05/09/26 11:36:20 PM | 38 | 0.0 | 16.0 | 64 | 72 | 73.6 | 64.7 | 29.907 | 7.26 | 0.0 | 0 | 0.00 | 0.00 | 0.00 | 0.00 |
| 05/09/26 11:37:34 PM | 32 | 0.0 | 16.0 | 64 | 72 | 73.6 | 64.6 | 29.907 | 7.26 | 0.0 | 0 | 0.00 | 0.00 | 0.00 | 0.00 |
| 05/09/26 11:38:27 PM | 38 | 0.0 | 16.0 | 64 | 72 | 73.6 | 64.6 | 29.906 | 7.26 | 0.0 | 0 | 0.00 | 0.00 | 0.00 | 0.00 |
| 05/09/26 11:39:17 PM | 38 | 0.0 | 16.0 | 64 | 72 | 73.6 | 64.6 | 29.905 | 7.26 | 0.0 | 0 | 0.00 | 0.00 | 0.00 | 0.00 |
| 05/09/26 11:40:25 PM | 35 | 0.0 | 16.0 | 64 | 72 | 73.6 | 64.5 | 29.906 | 7.26 | 0.0 | 0 | 0.00 | 0.00 | 0.00 | 0.00 |
| 05/09/26 11:41:18 PM | 38 | 0.0 | 16.0 | 64 | 72 | 73.6 | 64.5 | 29.907 | 7.26 | 0.0 | 0 | 0.00 | 0.00 | 0.00 | 0.00 |
| 05/09/26 11:42:29 PM | 36 | 0.0 | 16.0 | 64 | 72 | 73.6 | 64.5 | 29.906 | 7.26 | 0.0 | 0 | 0.00 | 0.00 | 0.00 | 0.00 |
| 05/09/26 11:43:22 PM | 37 | 0.0 | 16.0 | 64 | 72 | 73.6 | 64.5 | 29.906 | 7.26 | 0.0 | 0 | 0.00 | 0.00 | 0.00 | 0.00 |
| 05/09/26 11:44:33 PM | 36 | 0.0 | 16.0 | 64 | 72 | 73.6 | 64.4 | 29.906 | 7.26 | 0.0 | 0 | 0.00 | 0.00 | 0.00 | 0.00 |
| 05/09/26 11:45:23 PM | 35 | 0.0 | 16.0 | 64 | 72 | 73.6 | 64.4 | 29.906 | 7.26 | 0.0 | 0 | 0.00 | 0.00 | 0.00 | 0.00 |
| 05/09/26 11:46:34 PM | 38 | 0.0 | 16.0 | 64 | 72 | 73.6 | 64.3 | 29.903 | 7.26 | 0.0 | 0 | 0.00 | 0.00 | 0.00 | 0.00 |
| 05/09/26 11:47:24 PM | 37 | 0.0 | 16.0 | 64 | 72 | 73.6 | 64.3 | 29.905 | 7.26 | 0.0 | 0 | 0.00 | 0.00 | 0.00 | 0.00 |
| 05/09/26 11:48:17 PM | 32 | 0.0 | 16.0 | 64 | 72 | 73.6 | 64.3 | 29.905 | 7.26 | 0.0 | 0 | 0.00 | 0.00 | 0.00 | 0.00 |
| 05/09/26 11:49:28 PM | 37 | 0.0 | 16.0 | 64 | 72 | 73.6 | 64.2 | 29.906 | 7.26 | 0.0 | 0 | 0.00 | 0.00 | 0.00 | 0.00 |
| 05/09/26 11:50:36 PM | 37 | 0.0 | 16.0 | 64 | 72 | 73.6 | 64.1 | 29.906 | 7.26 | 0.0 | 0 | 0.00 | 0.00 | 0.00 | 0.00 |
| 05/09/26 11:51:28 PM | 35 | 0.0 | 16.0 | 64 | 73 | 73.6 | 64.0 | 29.907 | 7.26 | 0.0 | 0 | 0.00 | 0.00 | 0.00 | 0.00 |
| 05/09/26 11:52:21 PM | 38 | 0.0 | 16.0 | 64 | 73 | 73.6 | 64.0 | 29.906 | 7.26 | 0.0 | 0 | 0.00 | 0.00 | 0.00 | 0.00 |
| 05/09/26 11:53:32 PM | 36 | 0.0 | 16.0 | 64 | 73 | 73.6 | 63.9 | 29.903 | 7.26 | 0.0 | 0 | 0.00 | 0.00 | 0.00 | 0.00 |
| 05/09/26 11:54:25 PM | 37 | 0.0 | 16.0 | 64 | 72 | 73.6 | 63.8 | 29.906 | 7.26 | 0.0 | 0 | 0.00 | 0.00 | 0.00 | 0.00 |
| 05/09/26 11:55:18 PM | 37 | 0.0 | 16.0 | 64 | 72 | 73.6 | 63.8 | 29.905 | 7.26 | 0.0 | 0 | 0.00 | 0.00 | 0.00 | 0.00 |
| 05/09/26 11:56:26 PM | 37 | 0.0 | 16.0 | 64 | 72 | 73.5 | 63.6 | 29.905 | 7.26 | 0.0 | 0 | 0.00 | 0.00 | 0.00 | 0.00 |
| 05/09/26 11:57:16 PM | 38 | 0.0 | 16.0 | 64 | 72 | 73.6 | 63.6 | 29.905 | 7.26 | 0.0 | 0 | 0.00 | 0.00 | 0.00 | 0.00 |
| 05/09/26 11:58:30 PM | 38 | 0.0 | 16.0 | 64 | 72 | 73.6 | 63.5 | 29.904 | 7.26 | 0.0 | 0 | 0.00 | 0.00 | 0.00 | 0.00 |
University Police wind advisory reference
For campus closure information please call the campus Emergency Hotline at (909) 537-5999
© All rights reserved. Unauthorized duplication or distribution is prohibited
Never base important decisions on this or any weather information obtained from the Internet
California State University, San Bernardino
5500 University Parkway, San Bernardino, CA. 92407
Phone: (909) 537-5108, Email: Weather Webmaster
Last Updated: